<?xml version="1.0" encoding="UTF-8" standalone="no" ?>
<gpx xmlns="http://www.topografix.com/GPX/1/1" xmlns:xsi="http://www.w3.org/2001/XMLSchema-instance" xsi:schemaLocation="http://www.topografix.com/GPX/1/1 http://www.topografix.com/GPX/1/1/gpx.xsd" version="1.1" creator="VisuGPX - https://www.visugpx.com">
  <metadata>
    <name>tour de Tourtour (Var)</name>
    <desc><![CDATA[tour de Tourtour (Var) [15 août 2022]]]></desc>
  </metadata>
  <trk>
    <name><![CDATA[Tourtour]]></name>
    <trkseg>
      <trkpt lat="43.59242" lon="6.28923">
        <ele>519.617</ele>
        <time>2022-08-15T15:36:55Z</time>
      </trkpt>
      <trkpt lat="43.59259" lon="6.28911">
        <ele>525.604</ele>
        <time>2022-08-15T15:36:56Z</time>
      </trkpt>
      <trkpt lat="43.59259" lon="6.28918">
        <ele>534.347</ele>
        <time>2022-08-15T15:36:56Z</time>
      </trkpt>
      <trkpt lat="43.59262" lon="6.28918">
        <ele>532.204</ele>
        <time>2022-08-15T15:36:58Z</time>
      </trkpt>
      <trkpt lat="43.59262" lon="6.28919">
        <ele>529.001</ele>
        <time>2022-08-15T15:36:59Z</time>
      </trkpt>
      <trkpt lat="43.59262" lon="6.28919">
        <ele>528.451</ele>
        <time>2022-08-15T15:37:00Z</time>
      </trkpt>
      <trkpt lat="43.59262" lon="6.28919">
        <ele>533.646</ele>
        <time>2022-08-15T15:37:03Z</time>
      </trkpt>
      <trkpt lat="43.59262" lon="6.28917">
        <ele>533.339</ele>
        <time>2022-08-15T15:37:04Z</time>
      </trkpt>
      <trkpt lat="43.59261" lon="6.28919">
        <ele>532.073</ele>
        <time>2022-08-15T15:37:06Z</time>
      </trkpt>
      <trkpt lat="43.5926" lon="6.28923">
        <ele>526.911</ele>
        <time>2022-08-15T15:37:09Z</time>
      </trkpt>
      <trkpt lat="43.59255" lon="6.28928">
        <ele>524.898</ele>
        <time>2022-08-15T15:37:14Z</time>
      </trkpt>
      <trkpt lat="43.59253" lon="6.28932">
        <ele>522.59</ele>
        <time>2022-08-15T15:37:17Z</time>
      </trkpt>
      <trkpt lat="43.59247" lon="6.28939">
        <ele>524.944</ele>
        <time>2022-08-15T15:37:26Z</time>
      </trkpt>
      <trkpt lat="43.59246" lon="6.28942">
        <ele>528.077</ele>
        <time>2022-08-15T15:37:31Z</time>
      </trkpt>
      <trkpt lat="43.59242" lon="6.28951">
        <ele>530.431</ele>
        <time>2022-08-15T15:37:40Z</time>
      </trkpt>
      <trkpt lat="43.5924" lon="6.28954">
        <ele>531.278</ele>
        <time>2022-08-15T15:37:43Z</time>
      </trkpt>
      <trkpt lat="43.5923" lon="6.2897">
        <ele>529.258</ele>
        <time>2022-08-15T15:38:00Z</time>
      </trkpt>
      <trkpt lat="43.59225" lon="6.28972">
        <ele>528.513</ele>
        <time>2022-08-15T15:38:04Z</time>
      </trkpt>
      <trkpt lat="43.59222" lon="6.28973">
        <ele>528.616</ele>
        <time>2022-08-15T15:38:07Z</time>
      </trkpt>
      <trkpt lat="43.59209" lon="6.28995">
        <ele>530.73</ele>
        <time>2022-08-15T15:38:29Z</time>
      </trkpt>
      <trkpt lat="43.59196" lon="6.29017">
        <ele>528.521</ele>
        <time>2022-08-15T15:38:48Z</time>
      </trkpt>
      <trkpt lat="43.59192" lon="6.29021">
        <ele>528.696</ele>
        <time>2022-08-15T15:38:53Z</time>
      </trkpt>
      <trkpt lat="43.59181" lon="6.29037">
        <ele>529.363</ele>
        <time>2022-08-15T15:39:10Z</time>
      </trkpt>
      <trkpt lat="43.59173" lon="6.29051">
        <ele>529.863</ele>
        <time>2022-08-15T15:39:25Z</time>
      </trkpt>
      <trkpt lat="43.59172" lon="6.29053">
        <ele>530.703</ele>
        <time>2022-08-15T15:39:28Z</time>
      </trkpt>
      <trkpt lat="43.59171" lon="6.29053">
        <ele>530.855</ele>
        <time>2022-08-15T15:39:29Z</time>
      </trkpt>
      <trkpt lat="43.59171" lon="6.29053">
        <ele>531.281</ele>
        <time>2022-08-15T15:39:30Z</time>
      </trkpt>
      <trkpt lat="43.59171" lon="6.29053">
        <ele>530.824</ele>
        <time>2022-08-15T15:39:31Z</time>
      </trkpt>
      <trkpt lat="43.59171" lon="6.29054">
        <ele>531.056</ele>
        <time>2022-08-15T15:39:32Z</time>
      </trkpt>
      <trkpt lat="43.59169" lon="6.29063">
        <ele>530.542</ele>
        <time>2022-08-15T15:39:41Z</time>
      </trkpt>
      <trkpt lat="43.5917" lon="6.29063">
        <ele>530.759</ele>
        <time>2022-08-15T15:39:43Z</time>
      </trkpt>
      <trkpt lat="43.5917" lon="6.29063">
        <ele>530.759</ele>
        <time>2022-08-15T15:39:43Z</time>
      </trkpt>
      <trkpt lat="43.5917" lon="6.29063">
        <ele>530.635</ele>
        <time>2022-08-15T15:39:44Z</time>
      </trkpt>
      <trkpt lat="43.5917" lon="6.29064">
        <ele>530.419</ele>
        <time>2022-08-15T15:39:46Z</time>
      </trkpt>
      <trkpt lat="43.5917" lon="6.29064">
        <ele>530.419</ele>
        <time>2022-08-15T15:39:46Z</time>
      </trkpt>
      <trkpt lat="43.5917" lon="6.29064">
        <ele>530.214</ele>
        <time>2022-08-15T15:39:46Z</time>
      </trkpt>
      <trkpt lat="43.5917" lon="6.29064">
        <ele>530.106</ele>
        <time>2022-08-15T15:39:47Z</time>
      </trkpt>
      <trkpt lat="43.5917" lon="6.29063">
        <ele>530.43</ele>
        <time>2022-08-15T15:39:49Z</time>
      </trkpt>
      <trkpt lat="43.5917" lon="6.29061">
        <ele>530.236</ele>
        <time>2022-08-15T15:39:52Z</time>
      </trkpt>
      <trkpt lat="43.59169" lon="6.29061">
        <ele>530.441</ele>
        <time>2022-08-15T15:39:53Z</time>
      </trkpt>
      <trkpt lat="43.59169" lon="6.29061">
        <ele>530.888</ele>
        <time>2022-08-15T15:39:54Z</time>
      </trkpt>
      <trkpt lat="43.59169" lon="6.29061">
        <ele>530.888</ele>
        <time>2022-08-15T15:39:54Z</time>
      </trkpt>
      <trkpt lat="43.59169" lon="6.2906">
        <ele>530.887</ele>
        <time>2022-08-15T15:39:55Z</time>
      </trkpt>
      <trkpt lat="43.59169" lon="6.2906">
        <ele>530.996</ele>
        <time>2022-08-15T15:39:56Z</time>
      </trkpt>
      <trkpt lat="43.59169" lon="6.2906">
        <ele>530.996</ele>
        <time>2022-08-15T15:39:56Z</time>
      </trkpt>
      <trkpt lat="43.59169" lon="6.2906">
        <ele>531.107</ele>
        <time>2022-08-15T15:39:57Z</time>
      </trkpt>
      <trkpt lat="43.59167" lon="6.2906">
        <ele>531.04</ele>
        <time>2022-08-15T15:39:59Z</time>
      </trkpt>
      <trkpt lat="43.59165" lon="6.29064">
        <ele>529.706</ele>
        <time>2022-08-15T15:40:02Z</time>
      </trkpt>
      <trkpt lat="43.5915" lon="6.29096">
        <ele>530.27</ele>
        <time>2022-08-15T15:40:24Z</time>
      </trkpt>
      <trkpt lat="43.59147" lon="6.29115">
        <ele>528.776</ele>
        <time>2022-08-15T15:40:34Z</time>
      </trkpt>
      <trkpt lat="43.59151" lon="6.29137">
        <ele>528.557</ele>
        <time>2022-08-15T15:40:50Z</time>
      </trkpt>
      <trkpt lat="43.59152" lon="6.29142">
        <ele>529.347</ele>
        <time>2022-08-15T15:40:54Z</time>
      </trkpt>
      <trkpt lat="43.59152" lon="6.29152">
        <ele>529.95</ele>
        <time>2022-08-15T15:41:02Z</time>
      </trkpt>
      <trkpt lat="43.59148" lon="6.29163">
        <ele>529.525</ele>
        <time>2022-08-15T15:41:10Z</time>
      </trkpt>
      <trkpt lat="43.59146" lon="6.29165">
        <ele>530.106</ele>
        <time>2022-08-15T15:41:12Z</time>
      </trkpt>
      <trkpt lat="43.59146" lon="6.29169">
        <ele>530.766</ele>
        <time>2022-08-15T15:41:16Z</time>
      </trkpt>
      <trkpt lat="43.59144" lon="6.29174">
        <ele>530.873</ele>
        <time>2022-08-15T15:41:19Z</time>
      </trkpt>
      <trkpt lat="43.59142" lon="6.29178">
        <ele>530.831</ele>
        <time>2022-08-15T15:41:21Z</time>
      </trkpt>
      <trkpt lat="43.59141" lon="6.29187">
        <ele>531.59</ele>
        <time>2022-08-15T15:41:23Z</time>
      </trkpt>
      <trkpt lat="43.59139" lon="6.29194">
        <ele>531.593</ele>
        <time>2022-08-15T15:41:25Z</time>
      </trkpt>
      <trkpt lat="43.59139" lon="6.29198">
        <ele>531.102</ele>
        <time>2022-08-15T15:41:27Z</time>
      </trkpt>
      <trkpt lat="43.59139" lon="6.29206">
        <ele>531.035</ele>
        <time>2022-08-15T15:41:34Z</time>
      </trkpt>
      <trkpt lat="43.59138" lon="6.29211">
        <ele>530.645</ele>
        <time>2022-08-15T15:41:37Z</time>
      </trkpt>
      <trkpt lat="43.59137" lon="6.29214">
        <ele>529.415</ele>
        <time>2022-08-15T15:41:40Z</time>
      </trkpt>
      <trkpt lat="43.59135" lon="6.29227">
        <ele>527.841</ele>
        <time>2022-08-15T15:41:52Z</time>
      </trkpt>
      <trkpt lat="43.5913" lon="6.2924">
        <ele>526.793</ele>
        <time>2022-08-15T15:42:04Z</time>
      </trkpt>
      <trkpt lat="43.5913" lon="6.2924">
        <ele>526.924</ele>
        <time>2022-08-15T15:42:05Z</time>
      </trkpt>
      <trkpt lat="43.59129" lon="6.29241">
        <ele>527.362</ele>
        <time>2022-08-15T15:42:06Z</time>
      </trkpt>
      <trkpt lat="43.59124" lon="6.2926">
        <ele>531.201</ele>
        <time>2022-08-15T15:42:19Z</time>
      </trkpt>
      <trkpt lat="43.59124" lon="6.29265">
        <ele>531.312</ele>
        <time>2022-08-15T15:42:23Z</time>
      </trkpt>
      <trkpt lat="43.59123" lon="6.29273">
        <ele>531.84</ele>
        <time>2022-08-15T15:42:30Z</time>
      </trkpt>
      <trkpt lat="43.59123" lon="6.29275">
        <ele>531.858</ele>
        <time>2022-08-15T15:42:33Z</time>
      </trkpt>
      <trkpt lat="43.59124" lon="6.2928">
        <ele>531.497</ele>
        <time>2022-08-15T15:42:37Z</time>
      </trkpt>
      <trkpt lat="43.59127" lon="6.29295">
        <ele>534.164</ele>
        <time>2022-08-15T15:42:49Z</time>
      </trkpt>
      <trkpt lat="43.59129" lon="6.29316">
        <ele>536.493</ele>
        <time>2022-08-15T15:43:04Z</time>
      </trkpt>
      <trkpt lat="43.59134" lon="6.29343">
        <ele>534.249</ele>
        <time>2022-08-15T15:43:23Z</time>
      </trkpt>
      <trkpt lat="43.59139" lon="6.2936">
        <ele>535.204</ele>
        <time>2022-08-15T15:43:37Z</time>
      </trkpt>
      <trkpt lat="43.5914" lon="6.29365">
        <ele>535.423</ele>
        <time>2022-08-15T15:43:42Z</time>
      </trkpt>
      <trkpt lat="43.59141" lon="6.29375">
        <ele>537.679</ele>
        <time>2022-08-15T15:43:50Z</time>
      </trkpt>
      <trkpt lat="43.5914" lon="6.2938">
        <ele>538.285</ele>
        <time>2022-08-15T15:43:53Z</time>
      </trkpt>
      <trkpt lat="43.59138" lon="6.29389">
        <ele>538.558</ele>
        <time>2022-08-15T15:44:00Z</time>
      </trkpt>
      <trkpt lat="43.59136" lon="6.29393">
        <ele>539.506</ele>
        <time>2022-08-15T15:44:03Z</time>
      </trkpt>
      <trkpt lat="43.59131" lon="6.29427">
        <ele>537.405</ele>
        <time>2022-08-15T15:44:27Z</time>
      </trkpt>
      <trkpt lat="43.59118" lon="6.29458">
        <ele>537.646</ele>
        <time>2022-08-15T15:44:55Z</time>
      </trkpt>
      <trkpt lat="43.59118" lon="6.29458">
        <ele>537.631</ele>
        <time>2022-08-15T15:44:56Z</time>
      </trkpt>
      <trkpt lat="43.59118" lon="6.29457">
        <ele>537.746</ele>
        <time>2022-08-15T15:44:57Z</time>
      </trkpt>
      <trkpt lat="43.59118" lon="6.29457">
        <ele>537.684</ele>
        <time>2022-08-15T15:44:58Z</time>
      </trkpt>
      <trkpt lat="43.59118" lon="6.29457">
        <ele>537.684</ele>
        <time>2022-08-15T15:44:58Z</time>
      </trkpt>
      <trkpt lat="43.59118" lon="6.29456">
        <ele>537.772</ele>
        <time>2022-08-15T15:44:59Z</time>
      </trkpt>
      <trkpt lat="43.59118" lon="6.29456">
        <ele>537.772</ele>
        <time>2022-08-15T15:44:59Z</time>
      </trkpt>
      <trkpt lat="43.59118" lon="6.29455">
        <ele>537.816</ele>
        <time>2022-08-15T15:45:00Z</time>
      </trkpt>
      <trkpt lat="43.59118" lon="6.29455">
        <ele>537.883</ele>
        <time>2022-08-15T15:45:01Z</time>
      </trkpt>
      <trkpt lat="43.59118" lon="6.29455">
        <ele>538.747</ele>
        <time>2022-08-15T15:45:04Z</time>
      </trkpt>
      <trkpt lat="43.59116" lon="6.29456">
        <ele>539.782</ele>
        <time>2022-08-15T15:45:07Z</time>
      </trkpt>
      <trkpt lat="43.59115" lon="6.29457">
        <ele>539.62</ele>
        <time>2022-08-15T15:45:09Z</time>
      </trkpt>
      <trkpt lat="43.59115" lon="6.29457">
        <ele>539.62</ele>
        <time>2022-08-15T15:45:09Z</time>
      </trkpt>
      <trkpt lat="43.59114" lon="6.29457">
        <ele>540.178</ele>
        <time>2022-08-15T15:45:10Z</time>
      </trkpt>
      <trkpt lat="43.59114" lon="6.29458">
        <ele>540.399</ele>
        <time>2022-08-15T15:45:13Z</time>
      </trkpt>
      <trkpt lat="43.59113" lon="6.2946">
        <ele>541.401</ele>
        <time>2022-08-15T15:45:16Z</time>
      </trkpt>
      <trkpt lat="43.59113" lon="6.2946">
        <ele>541.401</ele>
        <time>2022-08-15T15:45:16Z</time>
      </trkpt>
      <trkpt lat="43.59113" lon="6.2946">
        <ele>541.357</ele>
        <time>2022-08-15T15:45:17Z</time>
      </trkpt>
      <trkpt lat="43.59113" lon="6.2946">
        <ele>541.357</ele>
        <time>2022-08-15T15:45:17Z</time>
      </trkpt>
      <trkpt lat="43.59111" lon="6.29461">
        <ele>541.33</ele>
        <time>2022-08-15T15:45:18Z</time>
      </trkpt>
      <trkpt lat="43.59103" lon="6.29471">
        <ele>543.429</ele>
        <time>2022-08-15T15:45:28Z</time>
      </trkpt>
      <trkpt lat="43.591" lon="6.29472">
        <ele>544.301</ele>
        <time>2022-08-15T15:45:33Z</time>
      </trkpt>
      <trkpt lat="43.59096" lon="6.2947">
        <ele>544.316</ele>
        <time>2022-08-15T15:45:37Z</time>
      </trkpt>
      <trkpt lat="43.59092" lon="6.29465">
        <ele>544.266</ele>
        <time>2022-08-15T15:45:42Z</time>
      </trkpt>
      <trkpt lat="43.59087" lon="6.29455">
        <ele>544.072</ele>
        <time>2022-08-15T15:45:50Z</time>
      </trkpt>
      <trkpt lat="43.59087" lon="6.29433">
        <ele>543.455</ele>
        <time>2022-08-15T15:46:05Z</time>
      </trkpt>
      <trkpt lat="43.59086" lon="6.29432">
        <ele>543.583</ele>
        <time>2022-08-15T15:46:06Z</time>
      </trkpt>
      <trkpt lat="43.59085" lon="6.29429">
        <ele>543.241</ele>
        <time>2022-08-15T15:46:09Z</time>
      </trkpt>
      <trkpt lat="43.59082" lon="6.29426">
        <ele>543.071</ele>
        <time>2022-08-15T15:46:12Z</time>
      </trkpt>
      <trkpt lat="43.59076" lon="6.29423">
        <ele>542.663</ele>
        <time>2022-08-15T15:46:17Z</time>
      </trkpt>
      <trkpt lat="43.59072" lon="6.29424">
        <ele>543.072</ele>
        <time>2022-08-15T15:46:20Z</time>
      </trkpt>
      <trkpt lat="43.59067" lon="6.29427">
        <ele>543.173</ele>
        <time>2022-08-15T15:46:24Z</time>
      </trkpt>
      <trkpt lat="43.59063" lon="6.29432">
        <ele>542.979</ele>
        <time>2022-08-15T15:46:29Z</time>
      </trkpt>
      <trkpt lat="43.59062" lon="6.29446">
        <ele>542.722</ele>
        <time>2022-08-15T15:46:39Z</time>
      </trkpt>
      <trkpt lat="43.59061" lon="6.29453">
        <ele>541.854</ele>
        <time>2022-08-15T15:46:44Z</time>
      </trkpt>
      <trkpt lat="43.59058" lon="6.29471">
        <ele>543.86</ele>
        <time>2022-08-15T15:46:58Z</time>
      </trkpt>
      <trkpt lat="43.59057" lon="6.29476">
        <ele>544.252</ele>
        <time>2022-08-15T15:47:02Z</time>
      </trkpt>
      <trkpt lat="43.59058" lon="6.29488">
        <ele>546.406</ele>
        <time>2022-08-15T15:47:11Z</time>
      </trkpt>
      <trkpt lat="43.59058" lon="6.29488">
        <ele>546.771</ele>
        <time>2022-08-15T15:47:12Z</time>
      </trkpt>
      <trkpt lat="43.59057" lon="6.29493">
        <ele>547.641</ele>
        <time>2022-08-15T15:47:17Z</time>
      </trkpt>
      <trkpt lat="43.59056" lon="6.29494">
        <ele>547.927</ele>
        <time>2022-08-15T15:47:19Z</time>
      </trkpt>
      <trkpt lat="43.59055" lon="6.29499">
        <ele>547.635</ele>
        <time>2022-08-15T15:47:24Z</time>
      </trkpt>
      <trkpt lat="43.59051" lon="6.29519">
        <ele>549.676</ele>
        <time>2022-08-15T15:47:38Z</time>
      </trkpt>
      <trkpt lat="43.59051" lon="6.29521">
        <ele>550.598</ele>
        <time>2022-08-15T15:47:40Z</time>
      </trkpt>
      <trkpt lat="43.59051" lon="6.29523">
        <ele>550.961</ele>
        <time>2022-08-15T15:47:41Z</time>
      </trkpt>
      <trkpt lat="43.59047" lon="6.29531">
        <ele>550.615</ele>
        <time>2022-08-15T15:47:48Z</time>
      </trkpt>
      <trkpt lat="43.59038" lon="6.29537">
        <ele>550.259</ele>
        <time>2022-08-15T15:47:59Z</time>
      </trkpt>
      <trkpt lat="43.59037" lon="6.29538">
        <ele>550.713</ele>
        <time>2022-08-15T15:48:01Z</time>
      </trkpt>
      <trkpt lat="43.59037" lon="6.29538">
        <ele>550.385</ele>
        <time>2022-08-15T15:48:02Z</time>
      </trkpt>
      <trkpt lat="43.59037" lon="6.29538">
        <ele>550.431</ele>
        <time>2022-08-15T15:48:03Z</time>
      </trkpt>
      <trkpt lat="43.59037" lon="6.29538">
        <ele>550.431</ele>
        <time>2022-08-15T15:48:03Z</time>
      </trkpt>
      <trkpt lat="43.59036" lon="6.29538">
        <ele>551.189</ele>
        <time>2022-08-15T15:48:04Z</time>
      </trkpt>
      <trkpt lat="43.59036" lon="6.29538">
        <ele>551.366</ele>
        <time>2022-08-15T15:48:06Z</time>
      </trkpt>
      <trkpt lat="43.59035" lon="6.2954">
        <ele>551.542</ele>
        <time>2022-08-15T15:48:08Z</time>
      </trkpt>
      <trkpt lat="43.59029" lon="6.29546">
        <ele>551.733</ele>
        <time>2022-08-15T15:48:16Z</time>
      </trkpt>
      <trkpt lat="43.59027" lon="6.29551">
        <ele>552.538</ele>
        <time>2022-08-15T15:48:19Z</time>
      </trkpt>
      <trkpt lat="43.59026" lon="6.29555">
        <ele>553.63</ele>
        <time>2022-08-15T15:48:22Z</time>
      </trkpt>
      <trkpt lat="43.59023" lon="6.2957">
        <ele>555.588</ele>
        <time>2022-08-15T15:48:34Z</time>
      </trkpt>
      <trkpt lat="43.59027" lon="6.29586">
        <ele>557.608</ele>
        <time>2022-08-15T15:48:46Z</time>
      </trkpt>
      <trkpt lat="43.59025" lon="6.29591">
        <ele>558.436</ele>
        <time>2022-08-15T15:48:50Z</time>
      </trkpt>
      <trkpt lat="43.59021" lon="6.29598">
        <ele>559.786</ele>
        <time>2022-08-15T15:48:56Z</time>
      </trkpt>
      <trkpt lat="43.59016" lon="6.29602">
        <ele>560.219</ele>
        <time>2022-08-15T15:49:02Z</time>
      </trkpt>
      <trkpt lat="43.59011" lon="6.29614">
        <ele>561.22</ele>
        <time>2022-08-15T15:49:13Z</time>
      </trkpt>
      <trkpt lat="43.59011" lon="6.29614">
        <ele>561.22</ele>
        <time>2022-08-15T15:49:13Z</time>
      </trkpt>
      <trkpt lat="43.5901" lon="6.29615">
        <ele>561.071</ele>
        <time>2022-08-15T15:49:14Z</time>
      </trkpt>
      <trkpt lat="43.59009" lon="6.29617">
        <ele>561.509</ele>
        <time>2022-08-15T15:49:16Z</time>
      </trkpt>
      <trkpt lat="43.59004" lon="6.29627">
        <ele>562.128</ele>
        <time>2022-08-15T15:49:23Z</time>
      </trkpt>
      <trkpt lat="43.58995" lon="6.29669">
        <ele>564.246</ele>
        <time>2022-08-15T15:49:51Z</time>
      </trkpt>
      <trkpt lat="43.58982" lon="6.29709">
        <ele>566.306</ele>
        <time>2022-08-15T15:50:20Z</time>
      </trkpt>
      <trkpt lat="43.5898" lon="6.29722">
        <ele>567.885</ele>
        <time>2022-08-15T15:50:32Z</time>
      </trkpt>
      <trkpt lat="43.58978" lon="6.2973">
        <ele>568.037</ele>
        <time>2022-08-15T15:50:38Z</time>
      </trkpt>
      <trkpt lat="43.58966" lon="6.2976">
        <ele>569.897</ele>
        <time>2022-08-15T15:51:04Z</time>
      </trkpt>
      <trkpt lat="43.58966" lon="6.29765">
        <ele>570.171</ele>
        <time>2022-08-15T15:51:09Z</time>
      </trkpt>
      <trkpt lat="43.58965" lon="6.29766">
        <ele>570.054</ele>
        <time>2022-08-15T15:51:10Z</time>
      </trkpt>
      <trkpt lat="43.58965" lon="6.29766">
        <ele>570.119</ele>
        <time>2022-08-15T15:51:11Z</time>
      </trkpt>
      <trkpt lat="43.58965" lon="6.29767">
        <ele>570.523</ele>
        <time>2022-08-15T15:51:13Z</time>
      </trkpt>
      <trkpt lat="43.58967" lon="6.29767">
        <ele>570.835</ele>
        <time>2022-08-15T15:51:16Z</time>
      </trkpt>
      <trkpt lat="43.58967" lon="6.29767">
        <ele>570.835</ele>
        <time>2022-08-15T15:51:16Z</time>
      </trkpt>
      <trkpt lat="43.58968" lon="6.29767">
        <ele>570.915</ele>
        <time>2022-08-15T15:51:17Z</time>
      </trkpt>
      <trkpt lat="43.58968" lon="6.29768">
        <ele>571.375</ele>
        <time>2022-08-15T15:51:18Z</time>
      </trkpt>
      <trkpt lat="43.58963" lon="6.29784">
        <ele>573.347</ele>
        <time>2022-08-15T15:51:28Z</time>
      </trkpt>
      <trkpt lat="43.58958" lon="6.29815">
        <ele>575.471</ele>
        <time>2022-08-15T15:51:49Z</time>
      </trkpt>
      <trkpt lat="43.58956" lon="6.29824">
        <ele>576.517</ele>
        <time>2022-08-15T15:51:58Z</time>
      </trkpt>
      <trkpt lat="43.58955" lon="6.29828">
        <ele>576.723</ele>
        <time>2022-08-15T15:52:01Z</time>
      </trkpt>
      <trkpt lat="43.58951" lon="6.29858">
        <ele>578.359</ele>
        <time>2022-08-15T15:52:25Z</time>
      </trkpt>
      <trkpt lat="43.58951" lon="6.29858">
        <ele>578.392</ele>
        <time>2022-08-15T15:52:26Z</time>
      </trkpt>
      <trkpt lat="43.58951" lon="6.29858">
        <ele>578.426</ele>
        <time>2022-08-15T15:52:27Z</time>
      </trkpt>
      <trkpt lat="43.5895" lon="6.29858">
        <ele>578.455</ele>
        <time>2022-08-15T15:52:28Z</time>
      </trkpt>
      <trkpt lat="43.5895" lon="6.29859">
        <ele>578.592</ele>
        <time>2022-08-15T15:52:30Z</time>
      </trkpt>
      <trkpt lat="43.58946" lon="6.29875">
        <ele>579.989</ele>
        <time>2022-08-15T15:52:41Z</time>
      </trkpt>
      <trkpt lat="43.58946" lon="6.29875">
        <ele>579.925</ele>
        <time>2022-08-15T15:52:42Z</time>
      </trkpt>
      <trkpt lat="43.58945" lon="6.29875">
        <ele>579.805</ele>
        <time>2022-08-15T15:52:44Z</time>
      </trkpt>
      <trkpt lat="43.58945" lon="6.29875">
        <ele>579.483</ele>
        <time>2022-08-15T15:52:46Z</time>
      </trkpt>
      <trkpt lat="43.58945" lon="6.29874">
        <ele>579.45</ele>
        <time>2022-08-15T15:52:47Z</time>
      </trkpt>
      <trkpt lat="43.58945" lon="6.29874">
        <ele>579.45</ele>
        <time>2022-08-15T15:52:47Z</time>
      </trkpt>
      <trkpt lat="43.58945" lon="6.29874">
        <ele>579.382</ele>
        <time>2022-08-15T15:52:48Z</time>
      </trkpt>
      <trkpt lat="43.58945" lon="6.29874">
        <ele>579.137</ele>
        <time>2022-08-15T15:52:51Z</time>
      </trkpt>
      <trkpt lat="43.58945" lon="6.29875">
        <ele>579.125</ele>
        <time>2022-08-15T15:52:52Z</time>
      </trkpt>
      <trkpt lat="43.58945" lon="6.29875">
        <ele>579.225</ele>
        <time>2022-08-15T15:52:53Z</time>
      </trkpt>
      <trkpt lat="43.58944" lon="6.29876">
        <ele>579.261</ele>
        <time>2022-08-15T15:52:54Z</time>
      </trkpt>
      <trkpt lat="43.58943" lon="6.2988">
        <ele>579.884</ele>
        <time>2022-08-15T15:53:00Z</time>
      </trkpt>
      <trkpt lat="43.58943" lon="6.2988">
        <ele>579.884</ele>
        <time>2022-08-15T15:53:00Z</time>
      </trkpt>
      <trkpt lat="43.58943" lon="6.2988">
        <ele>579.897</ele>
        <time>2022-08-15T15:53:01Z</time>
      </trkpt>
      <trkpt lat="43.58943" lon="6.2988">
        <ele>579.891</ele>
        <time>2022-08-15T15:53:02Z</time>
      </trkpt>
      <trkpt lat="43.58943" lon="6.29879">
        <ele>580.004</ele>
        <time>2022-08-15T15:53:03Z</time>
      </trkpt>
      <trkpt lat="43.58943" lon="6.29879">
        <ele>579.999</ele>
        <time>2022-08-15T15:53:04Z</time>
      </trkpt>
      <trkpt lat="43.58943" lon="6.29879">
        <ele>579.959</ele>
        <time>2022-08-15T15:53:07Z</time>
      </trkpt>
      <trkpt lat="43.58943" lon="6.2988">
        <ele>580.014</ele>
        <time>2022-08-15T15:53:08Z</time>
      </trkpt>
      <trkpt lat="43.5894" lon="6.29887">
        <ele>580.302</ele>
        <time>2022-08-15T15:53:14Z</time>
      </trkpt>
      <trkpt lat="43.58938" lon="6.2989">
        <ele>580.327</ele>
        <time>2022-08-15T15:53:17Z</time>
      </trkpt>
      <trkpt lat="43.58936" lon="6.29894">
        <ele>581.169</ele>
        <time>2022-08-15T15:53:20Z</time>
      </trkpt>
      <trkpt lat="43.58936" lon="6.29898">
        <ele>581.703</ele>
        <time>2022-08-15T15:53:23Z</time>
      </trkpt>
      <trkpt lat="43.58934" lon="6.29903">
        <ele>582.428</ele>
        <time>2022-08-15T15:53:29Z</time>
      </trkpt>
      <trkpt lat="43.58934" lon="6.29903">
        <ele>582.379</ele>
        <time>2022-08-15T15:53:30Z</time>
      </trkpt>
      <trkpt lat="43.58934" lon="6.29903">
        <ele>581.918</ele>
        <time>2022-08-15T15:53:32Z</time>
      </trkpt>
      <trkpt lat="43.58934" lon="6.29903">
        <ele>582.197</ele>
        <time>2022-08-15T15:53:33Z</time>
      </trkpt>
      <trkpt lat="43.58934" lon="6.29903">
        <ele>582.21</ele>
        <time>2022-08-15T15:53:34Z</time>
      </trkpt>
      <trkpt lat="43.58934" lon="6.29904">
        <ele>582.321</ele>
        <time>2022-08-15T15:53:35Z</time>
      </trkpt>
      <trkpt lat="43.58934" lon="6.29904">
        <ele>582.358</ele>
        <time>2022-08-15T15:53:36Z</time>
      </trkpt>
      <trkpt lat="43.58934" lon="6.29904">
        <ele>582.358</ele>
        <time>2022-08-15T15:53:36Z</time>
      </trkpt>
      <trkpt lat="43.58934" lon="6.29904">
        <ele>582.256</ele>
        <time>2022-08-15T15:53:37Z</time>
      </trkpt>
      <trkpt lat="43.58934" lon="6.29904">
        <ele>582.29</ele>
        <time>2022-08-15T15:53:38Z</time>
      </trkpt>
      <trkpt lat="43.58934" lon="6.29904">
        <ele>582.382</ele>
        <time>2022-08-15T15:53:43Z</time>
      </trkpt>
      <trkpt lat="43.58934" lon="6.29906">
        <ele>582.301</ele>
        <time>2022-08-15T15:53:44Z</time>
      </trkpt>
      <trkpt lat="43.58934" lon="6.29906">
        <ele>582.306</ele>
        <time>2022-08-15T15:53:45Z</time>
      </trkpt>
      <trkpt lat="43.58934" lon="6.29906">
        <ele>582.306</ele>
        <time>2022-08-15T15:53:45Z</time>
      </trkpt>
      <trkpt lat="43.58934" lon="6.29907">
        <ele>582.384</ele>
        <time>2022-08-15T15:53:46Z</time>
      </trkpt>
      <trkpt lat="43.58935" lon="6.29907">
        <ele>582.635</ele>
        <time>2022-08-15T15:53:48Z</time>
      </trkpt>
      <trkpt lat="43.58937" lon="6.29909">
        <ele>583.202</ele>
        <time>2022-08-15T15:53:52Z</time>
      </trkpt>
      <trkpt lat="43.58937" lon="6.29909">
        <ele>583.31</ele>
        <time>2022-08-15T15:53:53Z</time>
      </trkpt>
      <trkpt lat="43.58937" lon="6.29919">
        <ele>583.581</ele>
        <time>2022-08-15T15:53:59Z</time>
      </trkpt>
      <trkpt lat="43.58938" lon="6.29923">
        <ele>584.604</ele>
        <time>2022-08-15T15:54:04Z</time>
      </trkpt>
      <trkpt lat="43.58938" lon="6.29928">
        <ele>585.045</ele>
        <time>2022-08-15T15:54:08Z</time>
      </trkpt>
      <trkpt lat="43.58938" lon="6.29939">
        <ele>587.064</ele>
        <time>2022-08-15T15:54:18Z</time>
      </trkpt>
      <trkpt lat="43.58937" lon="6.29954">
        <ele>589.143</ele>
        <time>2022-08-15T15:54:31Z</time>
      </trkpt>
      <trkpt lat="43.58936" lon="6.29965">
        <ele>591.16</ele>
        <time>2022-08-15T15:54:41Z</time>
      </trkpt>
      <trkpt lat="43.58935" lon="6.29969">
        <ele>591.237</ele>
        <time>2022-08-15T15:54:44Z</time>
      </trkpt>
      <trkpt lat="43.58932" lon="6.29975">
        <ele>591.835</ele>
        <time>2022-08-15T15:54:51Z</time>
      </trkpt>
      <trkpt lat="43.58928" lon="6.29991">
        <ele>594.008</ele>
        <time>2022-08-15T15:55:06Z</time>
      </trkpt>
      <trkpt lat="43.58922" lon="6.30004">
        <ele>595.425</ele>
        <time>2022-08-15T15:55:20Z</time>
      </trkpt>
      <trkpt lat="43.5892" lon="6.3001">
        <ele>595.758</ele>
        <time>2022-08-15T15:55:27Z</time>
      </trkpt>
      <trkpt lat="43.58915" lon="6.30021">
        <ele>597.128</ele>
        <time>2022-08-15T15:55:38Z</time>
      </trkpt>
      <trkpt lat="43.58914" lon="6.30026">
        <ele>597.869</ele>
        <time>2022-08-15T15:55:43Z</time>
      </trkpt>
      <trkpt lat="43.58913" lon="6.30027">
        <ele>598.222</ele>
        <time>2022-08-15T15:55:45Z</time>
      </trkpt>
      <trkpt lat="43.58913" lon="6.30027">
        <ele>598.476</ele>
        <time>2022-08-15T15:55:46Z</time>
      </trkpt>
      <trkpt lat="43.58913" lon="6.30027">
        <ele>598.596</ele>
        <time>2022-08-15T15:55:48Z</time>
      </trkpt>
      <trkpt lat="43.58913" lon="6.30028">
        <ele>598.702</ele>
        <time>2022-08-15T15:55:49Z</time>
      </trkpt>
      <trkpt lat="43.58912" lon="6.30029">
        <ele>598.848</ele>
        <time>2022-08-15T15:55:52Z</time>
      </trkpt>
      <trkpt lat="43.58912" lon="6.30029">
        <ele>598.848</ele>
        <time>2022-08-15T15:55:52Z</time>
      </trkpt>
      <trkpt lat="43.58912" lon="6.3003">
        <ele>598.933</ele>
        <time>2022-08-15T15:55:53Z</time>
      </trkpt>
      <trkpt lat="43.58912" lon="6.30031">
        <ele>599.004</ele>
        <time>2022-08-15T15:55:54Z</time>
      </trkpt>
      <trkpt lat="43.58912" lon="6.30033">
        <ele>599.224</ele>
        <time>2022-08-15T15:55:57Z</time>
      </trkpt>
      <trkpt lat="43.5891" lon="6.30037">
        <ele>599.657</ele>
        <time>2022-08-15T15:56:01Z</time>
      </trkpt>
      <trkpt lat="43.5891" lon="6.30038">
        <ele>599.785</ele>
        <time>2022-08-15T15:56:03Z</time>
      </trkpt>
      <trkpt lat="43.58909" lon="6.3004">
        <ele>599.96</ele>
        <time>2022-08-15T15:56:05Z</time>
      </trkpt>
      <trkpt lat="43.58908" lon="6.30054">
        <ele>601.115</ele>
        <time>2022-08-15T15:56:15Z</time>
      </trkpt>
      <trkpt lat="43.58903" lon="6.30065">
        <ele>603.34</ele>
        <time>2022-08-15T15:56:27Z</time>
      </trkpt>
      <trkpt lat="43.58891" lon="6.30086">
        <ele>605.463</ele>
        <time>2022-08-15T15:56:50Z</time>
      </trkpt>
      <trkpt lat="43.5889" lon="6.30091">
        <ele>606.193</ele>
        <time>2022-08-15T15:56:54Z</time>
      </trkpt>
      <trkpt lat="43.58892" lon="6.30096">
        <ele>607.059</ele>
        <time>2022-08-15T15:56:59Z</time>
      </trkpt>
      <trkpt lat="43.58892" lon="6.30096">
        <ele>607.239</ele>
        <time>2022-08-15T15:57:00Z</time>
      </trkpt>
      <trkpt lat="43.58892" lon="6.30096">
        <ele>607.923</ele>
        <time>2022-08-15T15:57:18Z</time>
      </trkpt>
      <trkpt lat="43.58893" lon="6.30097">
        <ele>608.007</ele>
        <time>2022-08-15T15:57:19Z</time>
      </trkpt>
      <trkpt lat="43.58894" lon="6.30097">
        <ele>608.151</ele>
        <time>2022-08-15T15:57:20Z</time>
      </trkpt>
      <trkpt lat="43.58895" lon="6.30096">
        <ele>608.291</ele>
        <time>2022-08-15T15:57:21Z</time>
      </trkpt>
      <trkpt lat="43.58898" lon="6.30094">
        <ele>608.488</ele>
        <time>2022-08-15T15:57:24Z</time>
      </trkpt>
      <trkpt lat="43.58901" lon="6.30095">
        <ele>609.133</ele>
        <time>2022-08-15T15:57:27Z</time>
      </trkpt>
      <trkpt lat="43.58909" lon="6.30098">
        <ele>610.577</ele>
        <time>2022-08-15T15:57:34Z</time>
      </trkpt>
      <trkpt lat="43.58915" lon="6.30096">
        <ele>610.396</ele>
        <time>2022-08-15T15:57:38Z</time>
      </trkpt>
      <trkpt lat="43.58938" lon="6.30086">
        <ele>612.073</ele>
        <time>2022-08-15T15:57:56Z</time>
      </trkpt>
      <trkpt lat="43.5895" lon="6.30087">
        <ele>614.096</ele>
        <time>2022-08-15T15:58:08Z</time>
      </trkpt>
      <trkpt lat="43.5895" lon="6.30093">
        <ele>614.729</ele>
        <time>2022-08-15T15:58:14Z</time>
      </trkpt>
      <trkpt lat="43.58952" lon="6.30097">
        <ele>615.114</ele>
        <time>2022-08-15T15:58:18Z</time>
      </trkpt>
      <trkpt lat="43.58954" lon="6.301">
        <ele>616.014</ele>
        <time>2022-08-15T15:58:22Z</time>
      </trkpt>
      <trkpt lat="43.58956" lon="6.30101">
        <ele>616.2</ele>
        <time>2022-08-15T15:58:25Z</time>
      </trkpt>
      <trkpt lat="43.58956" lon="6.30102">
        <ele>616.21</ele>
        <time>2022-08-15T15:58:26Z</time>
      </trkpt>
      <trkpt lat="43.58957" lon="6.30101">
        <ele>616.548</ele>
        <time>2022-08-15T15:58:29Z</time>
      </trkpt>
      <trkpt lat="43.58957" lon="6.30101">
        <ele>616.548</ele>
        <time>2022-08-15T15:58:29Z</time>
      </trkpt>
      <trkpt lat="43.58957" lon="6.30101">
        <ele>616.708</ele>
        <time>2022-08-15T15:58:30Z</time>
      </trkpt>
      <trkpt lat="43.58957" lon="6.30101">
        <ele>616.708</ele>
        <time>2022-08-15T15:58:30Z</time>
      </trkpt>
      <trkpt lat="43.58958" lon="6.30102">
        <ele>616.875</ele>
        <time>2022-08-15T15:58:31Z</time>
      </trkpt>
      <trkpt lat="43.58959" lon="6.30103">
        <ele>617.271</ele>
        <time>2022-08-15T15:58:32Z</time>
      </trkpt>
      <trkpt lat="43.58959" lon="6.30104">
        <ele>617.513</ele>
        <time>2022-08-15T15:58:34Z</time>
      </trkpt>
      <trkpt lat="43.58959" lon="6.30104">
        <ele>617.378</ele>
        <time>2022-08-15T15:58:41Z</time>
      </trkpt>
      <trkpt lat="43.58959" lon="6.30105">
        <ele>617.566</ele>
        <time>2022-08-15T15:58:42Z</time>
      </trkpt>
      <trkpt lat="43.58958" lon="6.30106">
        <ele>617.544</ele>
        <time>2022-08-15T15:58:43Z</time>
      </trkpt>
      <trkpt lat="43.58954" lon="6.30109">
        <ele>618.634</ele>
        <time>2022-08-15T15:58:46Z</time>
      </trkpt>
      <trkpt lat="43.58949" lon="6.30111">
        <ele>619.5</ele>
        <time>2022-08-15T15:58:49Z</time>
      </trkpt>
      <trkpt lat="43.58949" lon="6.3011">
        <ele>619.749</ele>
        <time>2022-08-15T15:58:50Z</time>
      </trkpt>
      <trkpt lat="43.58948" lon="6.30111">
        <ele>619.37</ele>
        <time>2022-08-15T15:58:52Z</time>
      </trkpt>
      <trkpt lat="43.58948" lon="6.30113">
        <ele>619.19</ele>
        <time>2022-08-15T15:58:53Z</time>
      </trkpt>
      <trkpt lat="43.58948" lon="6.3012">
        <ele>620.453</ele>
        <time>2022-08-15T15:58:57Z</time>
      </trkpt>
      <trkpt lat="43.58947" lon="6.30121">
        <ele>620.346</ele>
        <time>2022-08-15T15:58:58Z</time>
      </trkpt>
      <trkpt lat="43.58944" lon="6.30121">
        <ele>619.571</ele>
        <time>2022-08-15T15:59:03Z</time>
      </trkpt>
      <trkpt lat="43.58943" lon="6.30125">
        <ele>621.594</ele>
        <time>2022-08-15T15:59:09Z</time>
      </trkpt>
      <trkpt lat="43.58943" lon="6.30128">
        <ele>621.845</ele>
        <time>2022-08-15T15:59:15Z</time>
      </trkpt>
      <trkpt lat="43.58943" lon="6.30128">
        <ele>622.331</ele>
        <time>2022-08-15T15:59:18Z</time>
      </trkpt>
      <trkpt lat="43.58943" lon="6.30128">
        <ele>622.786</ele>
        <time>2022-08-15T15:59:19Z</time>
      </trkpt>
      <trkpt lat="43.58943" lon="6.30128">
        <ele>623.604</ele>
        <time>2022-08-15T15:59:27Z</time>
      </trkpt>
      <trkpt lat="43.58944" lon="6.30127">
        <ele>623.772</ele>
        <time>2022-08-15T15:59:28Z</time>
      </trkpt>
      <trkpt lat="43.58944" lon="6.30127">
        <ele>623.63</ele>
        <time>2022-08-15T15:59:29Z</time>
      </trkpt>
      <trkpt lat="43.58944" lon="6.30127">
        <ele>623.524</ele>
        <time>2022-08-15T15:59:32Z</time>
      </trkpt>
      <trkpt lat="43.58945" lon="6.30128">
        <ele>623.832</ele>
        <time>2022-08-15T15:59:33Z</time>
      </trkpt>
      <trkpt lat="43.58945" lon="6.3013">
        <ele>624.389</ele>
        <time>2022-08-15T15:59:35Z</time>
      </trkpt>
      <trkpt lat="43.58945" lon="6.30131">
        <ele>624.465</ele>
        <time>2022-08-15T15:59:37Z</time>
      </trkpt>
      <trkpt lat="43.58945" lon="6.30132">
        <ele>623.261</ele>
        <time>2022-08-15T15:59:39Z</time>
      </trkpt>
      <trkpt lat="43.58946" lon="6.30131">
        <ele>624.379</ele>
        <time>2022-08-15T15:59:42Z</time>
      </trkpt>
      <trkpt lat="43.58947" lon="6.30131">
        <ele>625.292</ele>
        <time>2022-08-15T15:59:44Z</time>
      </trkpt>
      <trkpt lat="43.58947" lon="6.30131">
        <ele>625.292</ele>
        <time>2022-08-15T15:59:44Z</time>
      </trkpt>
      <trkpt lat="43.58948" lon="6.30131">
        <ele>625.28</ele>
        <time>2022-08-15T15:59:45Z</time>
      </trkpt>
      <trkpt lat="43.58948" lon="6.30131">
        <ele>625.299</ele>
        <time>2022-08-15T15:59:46Z</time>
      </trkpt>
      <trkpt lat="43.58948" lon="6.30131">
        <ele>625.066</ele>
        <time>2022-08-15T15:59:47Z</time>
      </trkpt>
      <trkpt lat="43.58948" lon="6.30131">
        <ele>625.926</ele>
        <time>2022-08-15T15:59:48Z</time>
      </trkpt>
      <trkpt lat="43.58949" lon="6.3013">
        <ele>626.067</ele>
        <time>2022-08-15T15:59:50Z</time>
      </trkpt>
      <trkpt lat="43.58949" lon="6.3013">
        <ele>625.853</ele>
        <time>2022-08-15T15:59:51Z</time>
      </trkpt>
      <trkpt lat="43.58949" lon="6.3013">
        <ele>625.853</ele>
        <time>2022-08-15T15:59:51Z</time>
      </trkpt>
      <trkpt lat="43.58949" lon="6.3013">
        <ele>625.799</ele>
        <time>2022-08-15T15:59:52Z</time>
      </trkpt>
      <trkpt lat="43.58949" lon="6.3013">
        <ele>625.931</ele>
        <time>2022-08-15T15:59:53Z</time>
      </trkpt>
      <trkpt lat="43.58949" lon="6.3013">
        <ele>625.659</ele>
        <time>2022-08-15T15:59:57Z</time>
      </trkpt>
      <trkpt lat="43.58951" lon="6.3013">
        <ele>625.679</ele>
        <time>2022-08-15T15:59:58Z</time>
      </trkpt>
      <trkpt lat="43.58953" lon="6.30132">
        <ele>626.34</ele>
        <time>2022-08-15T16:00:02Z</time>
      </trkpt>
      <trkpt lat="43.58956" lon="6.30135">
        <ele>627.795</ele>
        <time>2022-08-15T16:00:07Z</time>
      </trkpt>
      <trkpt lat="43.58957" lon="6.30136">
        <ele>628.303</ele>
        <time>2022-08-15T16:00:10Z</time>
      </trkpt>
      <trkpt lat="43.58957" lon="6.30136">
        <ele>628.303</ele>
        <time>2022-08-15T16:00:10Z</time>
      </trkpt>
      <trkpt lat="43.58957" lon="6.30136">
        <ele>628.54</ele>
        <time>2022-08-15T16:00:11Z</time>
      </trkpt>
      <trkpt lat="43.58957" lon="6.30136">
        <ele>628.54</ele>
        <time>2022-08-15T16:00:11Z</time>
      </trkpt>
      <trkpt lat="43.58957" lon="6.30136">
        <ele>628.86</ele>
        <time>2022-08-15T16:00:12Z</time>
      </trkpt>
      <trkpt lat="43.58957" lon="6.30136">
        <ele>628.764</ele>
        <time>2022-08-15T16:00:14Z</time>
      </trkpt>
      <trkpt lat="43.58957" lon="6.30136">
        <ele>628.912</ele>
        <time>2022-08-15T16:00:17Z</time>
      </trkpt>
      <trkpt lat="43.58957" lon="6.30135">
        <ele>628.863</ele>
        <time>2022-08-15T16:00:18Z</time>
      </trkpt>
      <trkpt lat="43.58956" lon="6.30134">
        <ele>628.716</ele>
        <time>2022-08-15T16:00:19Z</time>
      </trkpt>
      <trkpt lat="43.58958" lon="6.30132">
        <ele>628.849</ele>
        <time>2022-08-15T16:00:23Z</time>
      </trkpt>
      <trkpt lat="43.58959" lon="6.30133">
        <ele>629.162</ele>
        <time>2022-08-15T16:00:26Z</time>
      </trkpt>
      <trkpt lat="43.58959" lon="6.30133">
        <ele>629.162</ele>
        <time>2022-08-15T16:00:26Z</time>
      </trkpt>
      <trkpt lat="43.58958" lon="6.30134">
        <ele>629.221</ele>
        <time>2022-08-15T16:00:27Z</time>
      </trkpt>
      <trkpt lat="43.58958" lon="6.30138">
        <ele>629.807</ele>
        <time>2022-08-15T16:00:31Z</time>
      </trkpt>
      <trkpt lat="43.58958" lon="6.30141">
        <ele>630.23</ele>
        <time>2022-08-15T16:00:34Z</time>
      </trkpt>
      <trkpt lat="43.58958" lon="6.30143">
        <ele>630.567</ele>
        <time>2022-08-15T16:00:37Z</time>
      </trkpt>
      <trkpt lat="43.58953" lon="6.30138">
        <ele>630.318</ele>
        <time>2022-08-15T16:00:41Z</time>
      </trkpt>
      <trkpt lat="43.58953" lon="6.30138">
        <ele>629.879</ele>
        <time>2022-08-15T16:00:51Z</time>
      </trkpt>
      <trkpt lat="43.58953" lon="6.30136">
        <ele>629.984</ele>
        <time>2022-08-15T16:00:52Z</time>
      </trkpt>
      <trkpt lat="43.58955" lon="6.30136">
        <ele>630.269</ele>
        <time>2022-08-15T16:00:54Z</time>
      </trkpt>
      <trkpt lat="43.58956" lon="6.30135">
        <ele>630.383</ele>
        <time>2022-08-15T16:00:55Z</time>
      </trkpt>
      <trkpt lat="43.58962" lon="6.30133">
        <ele>630.872</ele>
        <time>2022-08-15T16:00:59Z</time>
      </trkpt>
      <trkpt lat="43.58963" lon="6.30133">
        <ele>630.66</ele>
        <time>2022-08-15T16:01:00Z</time>
      </trkpt>
      <trkpt lat="43.58964" lon="6.30133">
        <ele>630.82</ele>
        <time>2022-08-15T16:01:01Z</time>
      </trkpt>
      <trkpt lat="43.58966" lon="6.30134">
        <ele>630.628</ele>
        <time>2022-08-15T16:01:03Z</time>
      </trkpt>
      <trkpt lat="43.58967" lon="6.30134">
        <ele>631.175</ele>
        <time>2022-08-15T16:01:05Z</time>
      </trkpt>
      <trkpt lat="43.58967" lon="6.30134">
        <ele>631.175</ele>
        <time>2022-08-15T16:01:05Z</time>
      </trkpt>
      <trkpt lat="43.58968" lon="6.30134">
        <ele>631.383</ele>
        <time>2022-08-15T16:01:06Z</time>
      </trkpt>
      <trkpt lat="43.58971" lon="6.30132">
        <ele>631.362</ele>
        <time>2022-08-15T16:01:10Z</time>
      </trkpt>
      <trkpt lat="43.58972" lon="6.30133">
        <ele>631.534</ele>
        <time>2022-08-15T16:01:11Z</time>
      </trkpt>
      <trkpt lat="43.58975" lon="6.30136">
        <ele>632.181</ele>
        <time>2022-08-15T16:01:15Z</time>
      </trkpt>
      <trkpt lat="43.58978" lon="6.30134">
        <ele>632.089</ele>
        <time>2022-08-15T16:01:17Z</time>
      </trkpt>
      <trkpt lat="43.58981" lon="6.30134">
        <ele>632.1</ele>
        <time>2022-08-15T16:01:19Z</time>
      </trkpt>
      <trkpt lat="43.58983" lon="6.30135">
        <ele>632.449</ele>
        <time>2022-08-15T16:01:25Z</time>
      </trkpt>
      <trkpt lat="43.58983" lon="6.30135">
        <ele>632.513</ele>
        <time>2022-08-15T16:01:27Z</time>
      </trkpt>
      <trkpt lat="43.58983" lon="6.30135">
        <ele>632.597</ele>
        <time>2022-08-15T16:01:28Z</time>
      </trkpt>
      <trkpt lat="43.58983" lon="6.30135">
        <ele>632.946</ele>
        <time>2022-08-15T16:01:29Z</time>
      </trkpt>
      <trkpt lat="43.58983" lon="6.30135">
        <ele>633.687</ele>
        <time>2022-08-15T16:01:32Z</time>
      </trkpt>
      <trkpt lat="43.58982" lon="6.30134">
        <ele>633.619</ele>
        <time>2022-08-15T16:01:33Z</time>
      </trkpt>
      <trkpt lat="43.58982" lon="6.30134">
        <ele>633.47</ele>
        <time>2022-08-15T16:01:34Z</time>
      </trkpt>
      <trkpt lat="43.58982" lon="6.30134">
        <ele>633.443</ele>
        <time>2022-08-15T16:01:35Z</time>
      </trkpt>
      <trkpt lat="43.58982" lon="6.30134">
        <ele>633.49</ele>
        <time>2022-08-15T16:01:39Z</time>
      </trkpt>
      <trkpt lat="43.5898" lon="6.30135">
        <ele>633.347</ele>
        <time>2022-08-15T16:01:40Z</time>
      </trkpt>
      <trkpt lat="43.58981" lon="6.30137">
        <ele>632.884</ele>
        <time>2022-08-15T16:01:42Z</time>
      </trkpt>
      <trkpt lat="43.58981" lon="6.30138">
        <ele>633.01</ele>
        <time>2022-08-15T16:01:43Z</time>
      </trkpt>
      <trkpt lat="43.58982" lon="6.30139">
        <ele>632.876</ele>
        <time>2022-08-15T16:01:44Z</time>
      </trkpt>
      <trkpt lat="43.58982" lon="6.3014">
        <ele>632.823</ele>
        <time>2022-08-15T16:01:45Z</time>
      </trkpt>
      <trkpt lat="43.58982" lon="6.3014">
        <ele>632.904</ele>
        <time>2022-08-15T16:01:46Z</time>
      </trkpt>
      <trkpt lat="43.58982" lon="6.3014">
        <ele>632.904</ele>
        <time>2022-08-15T16:01:46Z</time>
      </trkpt>
      <trkpt lat="43.58982" lon="6.3014">
        <ele>632.844</ele>
        <time>2022-08-15T16:01:47Z</time>
      </trkpt>
      <trkpt lat="43.58982" lon="6.3014">
        <ele>632.821</ele>
        <time>2022-08-15T16:01:48Z</time>
      </trkpt>
      <trkpt lat="43.58982" lon="6.3014">
        <ele>632.907</ele>
        <time>2022-08-15T16:01:49Z</time>
      </trkpt>
      <trkpt lat="43.58982" lon="6.3014">
        <ele>632.72</ele>
        <time>2022-08-15T16:01:51Z</time>
      </trkpt>
      <trkpt lat="43.58982" lon="6.3014">
        <ele>632.72</ele>
        <time>2022-08-15T16:01:51Z</time>
      </trkpt>
      <trkpt lat="43.58982" lon="6.3014">
        <ele>632.764</ele>
        <time>2022-08-15T16:01:52Z</time>
      </trkpt>
      <trkpt lat="43.58986" lon="6.3014">
        <ele>632.266</ele>
        <time>2022-08-15T16:01:59Z</time>
      </trkpt>
      <trkpt lat="43.58985" lon="6.30137">
        <ele>632.634</ele>
        <time>2022-08-15T16:02:02Z</time>
      </trkpt>
      <trkpt lat="43.58987" lon="6.30133">
        <ele>632.291</ele>
        <time>2022-08-15T16:02:07Z</time>
      </trkpt>
      <trkpt lat="43.58988" lon="6.30131">
        <ele>632.078</ele>
        <time>2022-08-15T16:02:08Z</time>
      </trkpt>
      <trkpt lat="43.58991" lon="6.3013">
        <ele>632.354</ele>
        <time>2022-08-15T16:02:11Z</time>
      </trkpt>
      <trkpt lat="43.58991" lon="6.30128">
        <ele>631.974</ele>
        <time>2022-08-15T16:02:13Z</time>
      </trkpt>
      <trkpt lat="43.58992" lon="6.30128">
        <ele>632.015</ele>
        <time>2022-08-15T16:02:15Z</time>
      </trkpt>
      <trkpt lat="43.58992" lon="6.30128">
        <ele>632.015</ele>
        <time>2022-08-15T16:02:15Z</time>
      </trkpt>
      <trkpt lat="43.58992" lon="6.30128">
        <ele>632.232</ele>
        <time>2022-08-15T16:02:16Z</time>
      </trkpt>
      <trkpt lat="43.5899" lon="6.30131">
        <ele>631.997</ele>
        <time>2022-08-15T16:02:19Z</time>
      </trkpt>
      <trkpt lat="43.58983" lon="6.30148">
        <ele>632.957</ele>
        <time>2022-08-15T16:02:24Z</time>
      </trkpt>
      <trkpt lat="43.58982" lon="6.30152">
        <ele>632.658</ele>
        <time>2022-08-15T16:02:26Z</time>
      </trkpt>
      <trkpt lat="43.58994" lon="6.30121">
        <ele>632.521</ele>
        <time>2022-08-15T16:02:27Z</time>
      </trkpt>
      <trkpt lat="43.58994" lon="6.30121">
        <ele>630.473</ele>
        <time>2022-08-15T16:02:29Z</time>
      </trkpt>
      <trkpt lat="43.58994" lon="6.3012">
        <ele>630.449</ele>
        <time>2022-08-15T16:02:31Z</time>
      </trkpt>
      <trkpt lat="43.58994" lon="6.30121">
        <ele>630.563</ele>
        <time>2022-08-15T16:02:32Z</time>
      </trkpt>
      <trkpt lat="43.58994" lon="6.30122">
        <ele>630.614</ele>
        <time>2022-08-15T16:02:33Z</time>
      </trkpt>
      <trkpt lat="43.58993" lon="6.30123">
        <ele>630.55</ele>
        <time>2022-08-15T16:02:34Z</time>
      </trkpt>
      <trkpt lat="43.58994" lon="6.30125">
        <ele>631.317</ele>
        <time>2022-08-15T16:02:39Z</time>
      </trkpt>
      <trkpt lat="43.58999" lon="6.30126">
        <ele>631.726</ele>
        <time>2022-08-15T16:02:44Z</time>
      </trkpt>
      <trkpt lat="43.59008" lon="6.30124">
        <ele>632.416</ele>
        <time>2022-08-15T16:02:49Z</time>
      </trkpt>
      <trkpt lat="43.5901" lon="6.30122">
        <ele>631.252</ele>
        <time>2022-08-15T16:02:52Z</time>
      </trkpt>
      <trkpt lat="43.5901" lon="6.30122">
        <ele>631.252</ele>
        <time>2022-08-15T16:02:52Z</time>
      </trkpt>
      <trkpt lat="43.59009" lon="6.30119">
        <ele>630.638</ele>
        <time>2022-08-15T16:02:53Z</time>
      </trkpt>
      <trkpt lat="43.59008" lon="6.30117">
        <ele>630.408</ele>
        <time>2022-08-15T16:02:54Z</time>
      </trkpt>
      <trkpt lat="43.59007" lon="6.30114">
        <ele>629.112</ele>
        <time>2022-08-15T16:02:56Z</time>
      </trkpt>
      <trkpt lat="43.59002" lon="6.30108">
        <ele>629.16</ele>
        <time>2022-08-15T16:02:57Z</time>
      </trkpt>
      <trkpt lat="43.59001" lon="6.30105">
        <ele>627.05</ele>
        <time>2022-08-15T16:02:59Z</time>
      </trkpt>
      <trkpt lat="43.59" lon="6.30111">
        <ele>628.331</ele>
        <time>2022-08-15T16:03:04Z</time>
      </trkpt>
      <trkpt lat="43.59" lon="6.30113">
        <ele>629.016</ele>
        <time>2022-08-15T16:03:06Z</time>
      </trkpt>
      <trkpt lat="43.59" lon="6.30113">
        <ele>629.213</ele>
        <time>2022-08-15T16:03:07Z</time>
      </trkpt>
      <trkpt lat="43.58998" lon="6.3012">
        <ele>630.317</ele>
        <time>2022-08-15T16:04:47Z</time>
      </trkpt>
      <trkpt lat="43.58977" lon="6.30118">
        <ele>630.606</ele>
        <time>2022-08-15T16:04:48Z</time>
      </trkpt>
      <trkpt lat="43.58979" lon="6.30123">
        <ele>630.346</ele>
        <time>2022-08-15T16:04:49Z</time>
      </trkpt>
      <trkpt lat="43.5898" lon="6.30127">
        <ele>629.997</ele>
        <time>2022-08-15T16:04:50Z</time>
      </trkpt>
      <trkpt lat="43.5898" lon="6.30127">
        <ele>630.841</ele>
        <time>2022-08-15T16:04:51Z</time>
      </trkpt>
      <trkpt lat="43.5898" lon="6.30127">
        <ele>632.367</ele>
        <time>2022-08-15T16:04:53Z</time>
      </trkpt>
      <trkpt lat="43.58981" lon="6.30133">
        <ele>632.4</ele>
        <time>2022-08-15T16:04:54Z</time>
      </trkpt>
      <trkpt lat="43.58982" lon="6.30134">
        <ele>632.519</ele>
        <time>2022-08-15T16:04:55Z</time>
      </trkpt>
      <trkpt lat="43.58984" lon="6.30138">
        <ele>632.894</ele>
        <time>2022-08-15T16:04:58Z</time>
      </trkpt>
      <trkpt lat="43.58986" lon="6.30142">
        <ele>633.935</ele>
        <time>2022-08-15T16:05:01Z</time>
      </trkpt>
      <trkpt lat="43.58988" lon="6.30146">
        <ele>634.117</ele>
        <time>2022-08-15T16:05:05Z</time>
      </trkpt>
      <trkpt lat="43.58988" lon="6.30146">
        <ele>634.089</ele>
        <time>2022-08-15T16:05:06Z</time>
      </trkpt>
      <trkpt lat="43.58988" lon="6.30146">
        <ele>634.089</ele>
        <time>2022-08-15T16:05:06Z</time>
      </trkpt>
      <trkpt lat="43.58988" lon="6.30146">
        <ele>633.974</ele>
        <time>2022-08-15T16:05:07Z</time>
      </trkpt>
      <trkpt lat="43.58988" lon="6.30146">
        <ele>633.974</ele>
        <time>2022-08-15T16:05:07Z</time>
      </trkpt>
      <trkpt lat="43.58989" lon="6.30145">
        <ele>634.008</ele>
        <time>2022-08-15T16:05:08Z</time>
      </trkpt>
      <trkpt lat="43.58989" lon="6.30145">
        <ele>634.008</ele>
        <time>2022-08-15T16:05:08Z</time>
      </trkpt>
      <trkpt lat="43.58989" lon="6.30145">
        <ele>634.187</ele>
        <time>2022-08-15T16:05:09Z</time>
      </trkpt>
      <trkpt lat="43.58989" lon="6.30145">
        <ele>634.187</ele>
        <time>2022-08-15T16:05:09Z</time>
      </trkpt>
      <trkpt lat="43.58988" lon="6.30145">
        <ele>634.226</ele>
        <time>2022-08-15T16:05:10Z</time>
      </trkpt>
      <trkpt lat="43.58988" lon="6.30144">
        <ele>634.062</ele>
        <time>2022-08-15T16:05:13Z</time>
      </trkpt>
      <trkpt lat="43.58988" lon="6.30144">
        <ele>634.062</ele>
        <time>2022-08-15T16:05:13Z</time>
      </trkpt>
      <trkpt lat="43.58988" lon="6.30143">
        <ele>634.274</ele>
        <time>2022-08-15T16:05:14Z</time>
      </trkpt>
      <trkpt lat="43.58988" lon="6.30143">
        <ele>634.428</ele>
        <time>2022-08-15T16:05:15Z</time>
      </trkpt>
      <trkpt lat="43.58988" lon="6.30142">
        <ele>634.545</ele>
        <time>2022-08-15T16:05:16Z</time>
      </trkpt>
      <trkpt lat="43.58988" lon="6.30141">
        <ele>634.585</ele>
        <time>2022-08-15T16:05:18Z</time>
      </trkpt>
      <trkpt lat="43.58989" lon="6.30141">
        <ele>634.573</ele>
        <time>2022-08-15T16:05:19Z</time>
      </trkpt>
      <trkpt lat="43.58989" lon="6.30142">
        <ele>634.709</ele>
        <time>2022-08-15T16:05:21Z</time>
      </trkpt>
      <trkpt lat="43.58989" lon="6.30142">
        <ele>634.709</ele>
        <time>2022-08-15T16:05:21Z</time>
      </trkpt>
      <trkpt lat="43.5899" lon="6.30142">
        <ele>634.799</ele>
        <time>2022-08-15T16:05:22Z</time>
      </trkpt>
      <trkpt lat="43.5899" lon="6.30142">
        <ele>634.886</ele>
        <time>2022-08-15T16:05:23Z</time>
      </trkpt>
      <trkpt lat="43.5899" lon="6.30142">
        <ele>634.65</ele>
        <time>2022-08-15T16:05:38Z</time>
      </trkpt>
      <trkpt lat="43.58992" lon="6.3014">
        <ele>634.706</ele>
        <time>2022-08-15T16:05:39Z</time>
      </trkpt>
      <trkpt lat="43.58992" lon="6.3014">
        <ele>634.702</ele>
        <time>2022-08-15T16:05:41Z</time>
      </trkpt>
      <trkpt lat="43.58992" lon="6.3014">
        <ele>634.699</ele>
        <time>2022-08-15T16:05:42Z</time>
      </trkpt>
      <trkpt lat="43.58991" lon="6.3014">
        <ele>634.54</ele>
        <time>2022-08-15T16:05:43Z</time>
      </trkpt>
      <trkpt lat="43.58991" lon="6.3014">
        <ele>634.728</ele>
        <time>2022-08-15T16:05:44Z</time>
      </trkpt>
      <trkpt lat="43.5899" lon="6.3014">
        <ele>634.495</ele>
        <time>2022-08-15T16:05:47Z</time>
      </trkpt>
      <trkpt lat="43.5899" lon="6.3014">
        <ele>634.129</ele>
        <time>2022-08-15T16:05:48Z</time>
      </trkpt>
      <trkpt lat="43.58989" lon="6.30139">
        <ele>634.134</ele>
        <time>2022-08-15T16:05:50Z</time>
      </trkpt>
      <trkpt lat="43.5899" lon="6.30143">
        <ele>634.325</ele>
        <time>2022-08-15T16:05:54Z</time>
      </trkpt>
      <trkpt lat="43.58988" lon="6.30145">
        <ele>634.221</ele>
        <time>2022-08-15T16:05:56Z</time>
      </trkpt>
      <trkpt lat="43.58985" lon="6.30146">
        <ele>633.939</ele>
        <time>2022-08-15T16:05:58Z</time>
      </trkpt>
      <trkpt lat="43.58979" lon="6.30143">
        <ele>632.624</ele>
        <time>2022-08-15T16:06:04Z</time>
      </trkpt>
      <trkpt lat="43.58978" lon="6.30174">
        <ele>631.653</ele>
        <time>2022-08-15T16:06:05Z</time>
      </trkpt>
      <trkpt lat="43.58974" lon="6.30181">
        <ele>632.073</ele>
        <time>2022-08-15T16:06:09Z</time>
      </trkpt>
      <trkpt lat="43.58969" lon="6.30179">
        <ele>633.412</ele>
        <time>2022-08-15T16:06:13Z</time>
      </trkpt>
      <trkpt lat="43.58969" lon="6.30175">
        <ele>632.71</ele>
        <time>2022-08-15T16:06:14Z</time>
      </trkpt>
      <trkpt lat="43.58969" lon="6.30168">
        <ele>631.459</ele>
        <time>2022-08-15T16:06:16Z</time>
      </trkpt>
      <trkpt lat="43.58968" lon="6.30163">
        <ele>633.173</ele>
        <time>2022-08-15T16:06:18Z</time>
      </trkpt>
      <trkpt lat="43.58967" lon="6.30157">
        <ele>632.206</ele>
        <time>2022-08-15T16:06:21Z</time>
      </trkpt>
      <trkpt lat="43.58965" lon="6.30154">
        <ele>632.008</ele>
        <time>2022-08-15T16:06:24Z</time>
      </trkpt>
      <trkpt lat="43.58965" lon="6.30155">
        <ele>631.686</ele>
        <time>2022-08-15T16:06:25Z</time>
      </trkpt>
      <trkpt lat="43.58965" lon="6.30155">
        <ele>632.045</ele>
        <time>2022-08-15T16:06:26Z</time>
      </trkpt>
      <trkpt lat="43.58965" lon="6.30156">
        <ele>632.059</ele>
        <time>2022-08-15T16:06:27Z</time>
      </trkpt>
      <trkpt lat="43.58965" lon="6.30157">
        <ele>632.169</ele>
        <time>2022-08-15T16:06:30Z</time>
      </trkpt>
      <trkpt lat="43.58961" lon="6.30161">
        <ele>632.059</ele>
        <time>2022-08-15T16:06:37Z</time>
      </trkpt>
      <trkpt lat="43.58961" lon="6.30161">
        <ele>632.043</ele>
        <time>2022-08-15T16:06:41Z</time>
      </trkpt>
      <trkpt lat="43.58958" lon="6.3016">
        <ele>632.132</ele>
        <time>2022-08-15T16:06:42Z</time>
      </trkpt>
      <trkpt lat="43.58957" lon="6.30159">
        <ele>632.055</ele>
        <time>2022-08-15T16:06:43Z</time>
      </trkpt>
      <trkpt lat="43.58954" lon="6.30161">
        <ele>631.41</ele>
        <time>2022-08-15T16:06:47Z</time>
      </trkpt>
      <trkpt lat="43.58954" lon="6.30168">
        <ele>633.064</ele>
        <time>2022-08-15T16:06:52Z</time>
      </trkpt>
      <trkpt lat="43.58954" lon="6.30168">
        <ele>633.246</ele>
        <time>2022-08-15T16:06:53Z</time>
      </trkpt>
      <trkpt lat="43.58953" lon="6.30168">
        <ele>633.185</ele>
        <time>2022-08-15T16:06:54Z</time>
      </trkpt>
      <trkpt lat="43.58952" lon="6.30168">
        <ele>633.03</ele>
        <time>2022-08-15T16:06:55Z</time>
      </trkpt>
      <trkpt lat="43.58952" lon="6.3017">
        <ele>632.706</ele>
        <time>2022-08-15T16:06:57Z</time>
      </trkpt>
      <trkpt lat="43.58952" lon="6.3017">
        <ele>632.706</ele>
        <time>2022-08-15T16:06:57Z</time>
      </trkpt>
      <trkpt lat="43.58952" lon="6.30171">
        <ele>633.379</ele>
        <time>2022-08-15T16:06:58Z</time>
      </trkpt>
      <trkpt lat="43.58954" lon="6.30178">
        <ele>632.665</ele>
        <time>2022-08-15T16:07:01Z</time>
      </trkpt>
      <trkpt lat="43.58955" lon="6.30182">
        <ele>631.801</ele>
        <time>2022-08-15T16:07:04Z</time>
      </trkpt>
      <trkpt lat="43.58955" lon="6.30185">
        <ele>631.408</ele>
        <time>2022-08-15T16:07:07Z</time>
      </trkpt>
      <trkpt lat="43.58957" lon="6.30187">
        <ele>632.198</ele>
        <time>2022-08-15T16:07:13Z</time>
      </trkpt>
      <trkpt lat="43.58958" lon="6.30188">
        <ele>632.444</ele>
        <time>2022-08-15T16:07:14Z</time>
      </trkpt>
      <trkpt lat="43.58959" lon="6.30188">
        <ele>632.326</ele>
        <time>2022-08-15T16:07:16Z</time>
      </trkpt>
      <trkpt lat="43.58959" lon="6.30188">
        <ele>631.997</ele>
        <time>2022-08-15T16:07:17Z</time>
      </trkpt>
      <trkpt lat="43.58963" lon="6.30186">
        <ele>632.371</ele>
        <time>2022-08-15T16:07:23Z</time>
      </trkpt>
      <trkpt lat="43.58966" lon="6.30188">
        <ele>632.449</ele>
        <time>2022-08-15T16:07:29Z</time>
      </trkpt>
      <trkpt lat="43.58967" lon="6.30189">
        <ele>632.194</ele>
        <time>2022-08-15T16:07:33Z</time>
      </trkpt>
      <trkpt lat="43.58967" lon="6.30189">
        <ele>632.194</ele>
        <time>2022-08-15T16:07:33Z</time>
      </trkpt>
      <trkpt lat="43.58967" lon="6.3019">
        <ele>632.073</ele>
        <time>2022-08-15T16:07:34Z</time>
      </trkpt>
      <trkpt lat="43.5897" lon="6.30192">
        <ele>632.822</ele>
        <time>2022-08-15T16:07:38Z</time>
      </trkpt>
      <trkpt lat="43.58972" lon="6.30192">
        <ele>632.938</ele>
        <time>2022-08-15T16:07:42Z</time>
      </trkpt>
      <trkpt lat="43.58973" lon="6.30194">
        <ele>632.355</ele>
        <time>2022-08-15T16:07:44Z</time>
      </trkpt>
      <trkpt lat="43.58975" lon="6.30195">
        <ele>633.389</ele>
        <time>2022-08-15T16:07:47Z</time>
      </trkpt>
      <trkpt lat="43.58976" lon="6.30193">
        <ele>634.948</ele>
        <time>2022-08-15T16:07:49Z</time>
      </trkpt>
      <trkpt lat="43.58983" lon="6.3019">
        <ele>641.801</ele>
        <time>2022-08-15T16:07:54Z</time>
      </trkpt>
      <trkpt lat="43.58985" lon="6.30192">
        <ele>635.728</ele>
        <time>2022-08-15T16:07:56Z</time>
      </trkpt>
      <trkpt lat="43.58988" lon="6.30193">
        <ele>635.322</ele>
        <time>2022-08-15T16:08:00Z</time>
      </trkpt>
      <trkpt lat="43.5899" lon="6.3019">
        <ele>635.341</ele>
        <time>2022-08-15T16:08:02Z</time>
      </trkpt>
      <trkpt lat="43.58991" lon="6.30188">
        <ele>634.386</ele>
        <time>2022-08-15T16:08:04Z</time>
      </trkpt>
      <trkpt lat="43.58991" lon="6.30188">
        <ele>632.721</ele>
        <time>2022-08-15T16:08:05Z</time>
      </trkpt>
      <trkpt lat="43.58991" lon="6.30188">
        <ele>633.146</ele>
        <time>2022-08-15T16:08:07Z</time>
      </trkpt>
      <trkpt lat="43.58987" lon="6.30195">
        <ele>633.722</ele>
        <time>2022-08-15T16:08:08Z</time>
      </trkpt>
      <trkpt lat="43.58986" lon="6.30197">
        <ele>633.873</ele>
        <time>2022-08-15T16:08:09Z</time>
      </trkpt>
      <trkpt lat="43.58985" lon="6.30202">
        <ele>634.028</ele>
        <time>2022-08-15T16:08:11Z</time>
      </trkpt>
      <trkpt lat="43.58984" lon="6.30205">
        <ele>633.992</ele>
        <time>2022-08-15T16:08:12Z</time>
      </trkpt>
      <trkpt lat="43.58986" lon="6.30207">
        <ele>633.491</ele>
        <time>2022-08-15T16:08:16Z</time>
      </trkpt>
      <trkpt lat="43.58986" lon="6.30207">
        <ele>633.491</ele>
        <time>2022-08-15T16:08:16Z</time>
      </trkpt>
      <trkpt lat="43.58987" lon="6.30206">
        <ele>632.92</ele>
        <time>2022-08-15T16:08:17Z</time>
      </trkpt>
      <trkpt lat="43.58988" lon="6.30206">
        <ele>632.668</ele>
        <time>2022-08-15T16:08:18Z</time>
      </trkpt>
      <trkpt lat="43.58993" lon="6.30203">
        <ele>628.217</ele>
        <time>2022-08-15T16:08:22Z</time>
      </trkpt>
      <trkpt lat="43.58996" lon="6.302">
        <ele>622.074</ele>
        <time>2022-08-15T16:08:24Z</time>
      </trkpt>
      <trkpt lat="43.58999" lon="6.30198">
        <ele>626.327</ele>
        <time>2022-08-15T16:08:26Z</time>
      </trkpt>
      <trkpt lat="43.59002" lon="6.30198">
        <ele>630.068</ele>
        <time>2022-08-15T16:08:28Z</time>
      </trkpt>
      <trkpt lat="43.59005" lon="6.30196">
        <ele>628.075</ele>
        <time>2022-08-15T16:08:31Z</time>
      </trkpt>
      <trkpt lat="43.5901" lon="6.30193">
        <ele>628.125</ele>
        <time>2022-08-15T16:08:35Z</time>
      </trkpt>
      <trkpt lat="43.59012" lon="6.3019">
        <ele>629.158</ele>
        <time>2022-08-15T16:08:38Z</time>
      </trkpt>
      <trkpt lat="43.59014" lon="6.30188">
        <ele>629.245</ele>
        <time>2022-08-15T16:08:42Z</time>
      </trkpt>
      <trkpt lat="43.59013" lon="6.30187">
        <ele>629.891</ele>
        <time>2022-08-15T16:08:44Z</time>
      </trkpt>
      <trkpt lat="43.59013" lon="6.30187">
        <ele>629.891</ele>
        <time>2022-08-15T16:08:44Z</time>
      </trkpt>
      <trkpt lat="43.59013" lon="6.30187">
        <ele>630.89</ele>
        <time>2022-08-15T16:08:45Z</time>
      </trkpt>
      <trkpt lat="43.59014" lon="6.30185">
        <ele>631.267</ele>
        <time>2022-08-15T16:08:47Z</time>
      </trkpt>
      <trkpt lat="43.59017" lon="6.30179">
        <ele>633.667</ele>
        <time>2022-08-15T16:08:53Z</time>
      </trkpt>
      <trkpt lat="43.59019" lon="6.30174">
        <ele>633.447</ele>
        <time>2022-08-15T16:08:59Z</time>
      </trkpt>
      <trkpt lat="43.5902" lon="6.30174">
        <ele>633.721</ele>
        <time>2022-08-15T16:09:00Z</time>
      </trkpt>
      <trkpt lat="43.59022" lon="6.30173">
        <ele>633.223</ele>
        <time>2022-08-15T16:09:03Z</time>
      </trkpt>
      <trkpt lat="43.59022" lon="6.30173">
        <ele>633.565</ele>
        <time>2022-08-15T16:09:04Z</time>
      </trkpt>
      <trkpt lat="43.59022" lon="6.30173">
        <ele>634.148</ele>
        <time>2022-08-15T16:09:05Z</time>
      </trkpt>
      <trkpt lat="43.59022" lon="6.30173">
        <ele>633.41</ele>
        <time>2022-08-15T16:09:08Z</time>
      </trkpt>
      <trkpt lat="43.59021" lon="6.30176">
        <ele>633.422</ele>
        <time>2022-08-15T16:09:09Z</time>
      </trkpt>
      <trkpt lat="43.59021" lon="6.30176">
        <ele>633.258</ele>
        <time>2022-08-15T16:09:10Z</time>
      </trkpt>
      <trkpt lat="43.59021" lon="6.30176">
        <ele>633.258</ele>
        <time>2022-08-15T16:09:10Z</time>
      </trkpt>
      <trkpt lat="43.59021" lon="6.30178">
        <ele>633.458</ele>
        <time>2022-08-15T16:09:11Z</time>
      </trkpt>
      <trkpt lat="43.59021" lon="6.30178">
        <ele>633.569</ele>
        <time>2022-08-15T16:09:12Z</time>
      </trkpt>
      <trkpt lat="43.59022" lon="6.30176">
        <ele>633.234</ele>
        <time>2022-08-15T16:09:13Z</time>
      </trkpt>
      <trkpt lat="43.59022" lon="6.30172">
        <ele>633.494</ele>
        <time>2022-08-15T16:09:16Z</time>
      </trkpt>
      <trkpt lat="43.59022" lon="6.30169">
        <ele>635.472</ele>
        <time>2022-08-15T16:09:19Z</time>
      </trkpt>
      <trkpt lat="43.59024" lon="6.30166">
        <ele>636.461</ele>
        <time>2022-08-15T16:09:23Z</time>
      </trkpt>
      <trkpt lat="43.59027" lon="6.30163">
        <ele>638.647</ele>
        <time>2022-08-15T16:09:28Z</time>
      </trkpt>
      <trkpt lat="43.5903" lon="6.30162">
        <ele>637.99</ele>
        <time>2022-08-15T16:09:31Z</time>
      </trkpt>
      <trkpt lat="43.59032" lon="6.30158">
        <ele>638.197</ele>
        <time>2022-08-15T16:09:35Z</time>
      </trkpt>
      <trkpt lat="43.59034" lon="6.30154">
        <ele>638.997</ele>
        <time>2022-08-15T16:09:40Z</time>
      </trkpt>
      <trkpt lat="43.59035" lon="6.30152">
        <ele>639.38</ele>
        <time>2022-08-15T16:09:45Z</time>
      </trkpt>
      <trkpt lat="43.59035" lon="6.30152">
        <ele>639.38</ele>
        <time>2022-08-15T16:09:45Z</time>
      </trkpt>
      <trkpt lat="43.59035" lon="6.30152">
        <ele>639.436</ele>
        <time>2022-08-15T16:09:46Z</time>
      </trkpt>
      <trkpt lat="43.59036" lon="6.30153">
        <ele>638.962</ele>
        <time>2022-08-15T16:09:48Z</time>
      </trkpt>
      <trkpt lat="43.59036" lon="6.30153">
        <ele>638.289</ele>
        <time>2022-08-15T16:09:50Z</time>
      </trkpt>
      <trkpt lat="43.59036" lon="6.30153">
        <ele>638.205</ele>
        <time>2022-08-15T16:09:51Z</time>
      </trkpt>
      <trkpt lat="43.59036" lon="6.30153">
        <ele>638.435</ele>
        <time>2022-08-15T16:09:53Z</time>
      </trkpt>
      <trkpt lat="43.59036" lon="6.30152">
        <ele>638.34</ele>
        <time>2022-08-15T16:09:54Z</time>
      </trkpt>
      <trkpt lat="43.59035" lon="6.30151">
        <ele>637.821</ele>
        <time>2022-08-15T16:09:55Z</time>
      </trkpt>
      <trkpt lat="43.59034" lon="6.30151">
        <ele>638.271</ele>
        <time>2022-08-15T16:09:57Z</time>
      </trkpt>
      <trkpt lat="43.59034" lon="6.30151">
        <ele>638.271</ele>
        <time>2022-08-15T16:09:57Z</time>
      </trkpt>
      <trkpt lat="43.59034" lon="6.30151">
        <ele>638.348</ele>
        <time>2022-08-15T16:09:58Z</time>
      </trkpt>
      <trkpt lat="43.59035" lon="6.30151">
        <ele>638.596</ele>
        <time>2022-08-15T16:10:01Z</time>
      </trkpt>
      <trkpt lat="43.59035" lon="6.30151">
        <ele>638.218</ele>
        <time>2022-08-15T16:10:03Z</time>
      </trkpt>
      <trkpt lat="43.59036" lon="6.30152">
        <ele>638.411</ele>
        <time>2022-08-15T16:10:04Z</time>
      </trkpt>
      <trkpt lat="43.59036" lon="6.30152">
        <ele>638.604</ele>
        <time>2022-08-15T16:10:05Z</time>
      </trkpt>
      <trkpt lat="43.59038" lon="6.3015">
        <ele>638.619</ele>
        <time>2022-08-15T16:10:09Z</time>
      </trkpt>
      <trkpt lat="43.59038" lon="6.3015">
        <ele>638.498</ele>
        <time>2022-08-15T16:10:11Z</time>
      </trkpt>
      <trkpt lat="43.59037" lon="6.30151">
        <ele>638.288</ele>
        <time>2022-08-15T16:10:17Z</time>
      </trkpt>
      <trkpt lat="43.59039" lon="6.30155">
        <ele>638.18</ele>
        <time>2022-08-15T16:10:21Z</time>
      </trkpt>
      <trkpt lat="43.5904" lon="6.30154">
        <ele>638.17</ele>
        <time>2022-08-15T16:10:24Z</time>
      </trkpt>
      <trkpt lat="43.5904" lon="6.30151">
        <ele>638.247</ele>
        <time>2022-08-15T16:10:30Z</time>
      </trkpt>
      <trkpt lat="43.5904" lon="6.30151">
        <ele>638.247</ele>
        <time>2022-08-15T16:10:30Z</time>
      </trkpt>
      <trkpt lat="43.5904" lon="6.30151">
        <ele>638.108</ele>
        <time>2022-08-15T16:10:31Z</time>
      </trkpt>
      <trkpt lat="43.59039" lon="6.30151">
        <ele>638.47</ele>
        <time>2022-08-15T16:10:34Z</time>
      </trkpt>
      <trkpt lat="43.59039" lon="6.30151">
        <ele>638.47</ele>
        <time>2022-08-15T16:10:34Z</time>
      </trkpt>
      <trkpt lat="43.5904" lon="6.30151">
        <ele>638.51</ele>
        <time>2022-08-15T16:10:35Z</time>
      </trkpt>
      <trkpt lat="43.59041" lon="6.30151">
        <ele>638.605</ele>
        <time>2022-08-15T16:10:38Z</time>
      </trkpt>
      <trkpt lat="43.59041" lon="6.30151">
        <ele>638.605</ele>
        <time>2022-08-15T16:10:38Z</time>
      </trkpt>
      <trkpt lat="43.59041" lon="6.30152">
        <ele>638.771</ele>
        <time>2022-08-15T16:10:39Z</time>
      </trkpt>
      <trkpt lat="43.59042" lon="6.30153">
        <ele>638.916</ele>
        <time>2022-08-15T16:10:41Z</time>
      </trkpt>
      <trkpt lat="43.59042" lon="6.30153">
        <ele>638.761</ele>
        <time>2022-08-15T16:10:43Z</time>
      </trkpt>
      <trkpt lat="43.59043" lon="6.3015">
        <ele>638.461</ele>
        <time>2022-08-15T16:10:44Z</time>
      </trkpt>
      <trkpt lat="43.59044" lon="6.30149">
        <ele>638.5</ele>
        <time>2022-08-15T16:10:48Z</time>
      </trkpt>
      <trkpt lat="43.59044" lon="6.30149">
        <ele>638.308</ele>
        <time>2022-08-15T16:10:49Z</time>
      </trkpt>
      <trkpt lat="43.59044" lon="6.30149">
        <ele>638.308</ele>
        <time>2022-08-15T16:10:49Z</time>
      </trkpt>
      <trkpt lat="43.59044" lon="6.30149">
        <ele>638.086</ele>
        <time>2022-08-15T16:10:50Z</time>
      </trkpt>
      <trkpt lat="43.59044" lon="6.30149">
        <ele>638.086</ele>
        <time>2022-08-15T16:10:50Z</time>
      </trkpt>
      <trkpt lat="43.59044" lon="6.30148">
        <ele>637.961</ele>
        <time>2022-08-15T16:10:51Z</time>
      </trkpt>
      <trkpt lat="43.59044" lon="6.30148">
        <ele>637.961</ele>
        <time>2022-08-15T16:10:51Z</time>
      </trkpt>
      <trkpt lat="43.59043" lon="6.30148">
        <ele>637.94</ele>
        <time>2022-08-15T16:10:52Z</time>
      </trkpt>
      <trkpt lat="43.59043" lon="6.30149">
        <ele>637.711</ele>
        <time>2022-08-15T16:10:54Z</time>
      </trkpt>
      <trkpt lat="43.59043" lon="6.30149">
        <ele>638.097</ele>
        <time>2022-08-15T16:10:55Z</time>
      </trkpt>
      <trkpt lat="43.59043" lon="6.30149">
        <ele>638.573</ele>
        <time>2022-08-15T16:10:58Z</time>
      </trkpt>
      <trkpt lat="43.59043" lon="6.30149">
        <ele>638.573</ele>
        <time>2022-08-15T16:10:58Z</time>
      </trkpt>
      <trkpt lat="43.59043" lon="6.3015">
        <ele>638.705</ele>
        <time>2022-08-15T16:10:59Z</time>
      </trkpt>
      <trkpt lat="43.59042" lon="6.3015">
        <ele>639.076</ele>
        <time>2022-08-15T16:11:02Z</time>
      </trkpt>
      <trkpt lat="43.5904" lon="6.30147">
        <ele>638.605</ele>
        <time>2022-08-15T16:11:07Z</time>
      </trkpt>
      <trkpt lat="43.5904" lon="6.30147">
        <ele>638.149</ele>
        <time>2022-08-15T16:11:09Z</time>
      </trkpt>
      <trkpt lat="43.59042" lon="6.30146">
        <ele>638.925</ele>
        <time>2022-08-15T16:11:14Z</time>
      </trkpt>
      <trkpt lat="43.59042" lon="6.30145">
        <ele>638.922</ele>
        <time>2022-08-15T16:11:16Z</time>
      </trkpt>
      <trkpt lat="43.59042" lon="6.30145">
        <ele>639.069</ele>
        <time>2022-08-15T16:11:20Z</time>
      </trkpt>
      <trkpt lat="43.59043" lon="6.30145">
        <ele>639.176</ele>
        <time>2022-08-15T16:11:21Z</time>
      </trkpt>
      <trkpt lat="43.59044" lon="6.30145">
        <ele>639.265</ele>
        <time>2022-08-15T16:11:22Z</time>
      </trkpt>
      <trkpt lat="43.59044" lon="6.30145">
        <ele>639.314</ele>
        <time>2022-08-15T16:11:23Z</time>
      </trkpt>
      <trkpt lat="43.59044" lon="6.30145">
        <ele>639.075</ele>
        <time>2022-08-15T16:11:24Z</time>
      </trkpt>
      <trkpt lat="43.59043" lon="6.30146">
        <ele>639.06</ele>
        <time>2022-08-15T16:11:25Z</time>
      </trkpt>
      <trkpt lat="43.59041" lon="6.30149">
        <ele>639.568</ele>
        <time>2022-08-15T16:11:27Z</time>
      </trkpt>
      <trkpt lat="43.59038" lon="6.30156">
        <ele>639.103</ele>
        <time>2022-08-15T16:11:30Z</time>
      </trkpt>
      <trkpt lat="43.59036" lon="6.30159">
        <ele>639.121</ele>
        <time>2022-08-15T16:11:33Z</time>
      </trkpt>
      <trkpt lat="43.59034" lon="6.30163">
        <ele>640.239</ele>
        <time>2022-08-15T16:11:40Z</time>
      </trkpt>
      <trkpt lat="43.59027" lon="6.30165">
        <ele>640.026</ele>
        <time>2022-08-15T16:11:47Z</time>
      </trkpt>
      <trkpt lat="43.59027" lon="6.30165">
        <ele>639.525</ele>
        <time>2022-08-15T16:11:48Z</time>
      </trkpt>
      <trkpt lat="43.59027" lon="6.30165">
        <ele>639.525</ele>
        <time>2022-08-15T16:11:48Z</time>
      </trkpt>
      <trkpt lat="43.59027" lon="6.30164">
        <ele>640.253</ele>
        <time>2022-08-15T16:11:49Z</time>
      </trkpt>
      <trkpt lat="43.59027" lon="6.30163">
        <ele>640.178</ele>
        <time>2022-08-15T16:11:50Z</time>
      </trkpt>
      <trkpt lat="43.59027" lon="6.30162">
        <ele>639.357</ele>
        <time>2022-08-15T16:11:51Z</time>
      </trkpt>
      <trkpt lat="43.59027" lon="6.30162">
        <ele>639.097</ele>
        <time>2022-08-15T16:11:52Z</time>
      </trkpt>
      <trkpt lat="43.59027" lon="6.30162">
        <ele>639.097</ele>
        <time>2022-08-15T16:11:52Z</time>
      </trkpt>
      <trkpt lat="43.59027" lon="6.30161">
        <ele>639.485</ele>
        <time>2022-08-15T16:11:53Z</time>
      </trkpt>
      <trkpt lat="43.59027" lon="6.30161">
        <ele>640.257</ele>
        <time>2022-08-15T16:11:54Z</time>
      </trkpt>
      <trkpt lat="43.59026" lon="6.30162">
        <ele>639.98</ele>
        <time>2022-08-15T16:11:58Z</time>
      </trkpt>
      <trkpt lat="43.59026" lon="6.30162">
        <ele>638.034</ele>
        <time>2022-08-15T16:12:00Z</time>
      </trkpt>
      <trkpt lat="43.59026" lon="6.30161">
        <ele>638.661</ele>
        <time>2022-08-15T16:12:01Z</time>
      </trkpt>
      <trkpt lat="43.59026" lon="6.30161">
        <ele>638.106</ele>
        <time>2022-08-15T16:12:02Z</time>
      </trkpt>
      <trkpt lat="43.59026" lon="6.30161">
        <ele>638.745</ele>
        <time>2022-08-15T16:12:06Z</time>
      </trkpt>
      <trkpt lat="43.59027" lon="6.30162">
        <ele>639.24</ele>
        <time>2022-08-15T16:12:07Z</time>
      </trkpt>
      <trkpt lat="43.59025" lon="6.30164">
        <ele>640.047</ele>
        <time>2022-08-15T16:12:09Z</time>
      </trkpt>
      <trkpt lat="43.59019" lon="6.30171">
        <ele>638.087</ele>
        <time>2022-08-15T16:12:14Z</time>
      </trkpt>
      <trkpt lat="43.59015" lon="6.30174">
        <ele>638.478</ele>
        <time>2022-08-15T16:12:19Z</time>
      </trkpt>
      <trkpt lat="43.59012" lon="6.30174">
        <ele>638.128</ele>
        <time>2022-08-15T16:12:22Z</time>
      </trkpt>
      <trkpt lat="43.59011" lon="6.30177">
        <ele>636.377</ele>
        <time>2022-08-15T16:12:26Z</time>
      </trkpt>
      <trkpt lat="43.59011" lon="6.30178">
        <ele>636.23</ele>
        <time>2022-08-15T16:12:28Z</time>
      </trkpt>
      <trkpt lat="43.59011" lon="6.30179">
        <ele>635.654</ele>
        <time>2022-08-15T16:12:30Z</time>
      </trkpt>
      <trkpt lat="43.59011" lon="6.30179">
        <ele>635.128</ele>
        <time>2022-08-15T16:12:31Z</time>
      </trkpt>
      <trkpt lat="43.5901" lon="6.3018">
        <ele>635.851</ele>
        <time>2022-08-15T16:12:32Z</time>
      </trkpt>
      <trkpt lat="43.5901" lon="6.30183">
        <ele>635.501</ele>
        <time>2022-08-15T16:12:34Z</time>
      </trkpt>
      <trkpt lat="43.5901" lon="6.30183">
        <ele>635.294</ele>
        <time>2022-08-15T16:12:35Z</time>
      </trkpt>
      <trkpt lat="43.5901" lon="6.30183">
        <ele>635.294</ele>
        <time>2022-08-15T16:12:35Z</time>
      </trkpt>
      <trkpt lat="43.59011" lon="6.30185">
        <ele>635.26</ele>
        <time>2022-08-15T16:12:36Z</time>
      </trkpt>
      <trkpt lat="43.59011" lon="6.30185">
        <ele>634.771</ele>
        <time>2022-08-15T16:12:37Z</time>
      </trkpt>
      <trkpt lat="43.59011" lon="6.30185">
        <ele>635.511</ele>
        <time>2022-08-15T16:12:38Z</time>
      </trkpt>
      <trkpt lat="43.59011" lon="6.30185">
        <ele>635.511</ele>
        <time>2022-08-15T16:12:38Z</time>
      </trkpt>
      <trkpt lat="43.59011" lon="6.30186">
        <ele>634.745</ele>
        <time>2022-08-15T16:12:39Z</time>
      </trkpt>
      <trkpt lat="43.5901" lon="6.3019">
        <ele>634.052</ele>
        <time>2022-08-15T16:12:42Z</time>
      </trkpt>
      <trkpt lat="43.59008" lon="6.30194">
        <ele>635.027</ele>
        <time>2022-08-15T16:12:46Z</time>
      </trkpt>
      <trkpt lat="43.59005" lon="6.30197">
        <ele>633.949</ele>
        <time>2022-08-15T16:12:50Z</time>
      </trkpt>
      <trkpt lat="43.59005" lon="6.30197">
        <ele>634.052</ele>
        <time>2022-08-15T16:12:51Z</time>
      </trkpt>
      <trkpt lat="43.59005" lon="6.30197">
        <ele>632.159</ele>
        <time>2022-08-15T16:12:53Z</time>
      </trkpt>
      <trkpt lat="43.59005" lon="6.30197">
        <ele>632.159</ele>
        <time>2022-08-15T16:12:53Z</time>
      </trkpt>
      <trkpt lat="43.59005" lon="6.30198">
        <ele>632.098</ele>
        <time>2022-08-15T16:12:54Z</time>
      </trkpt>
      <trkpt lat="43.59005" lon="6.30198">
        <ele>632.098</ele>
        <time>2022-08-15T16:12:54Z</time>
      </trkpt>
      <trkpt lat="43.59005" lon="6.30197">
        <ele>631.229</ele>
        <time>2022-08-15T16:12:55Z</time>
      </trkpt>
      <trkpt lat="43.59004" lon="6.30197">
        <ele>631.658</ele>
        <time>2022-08-15T16:12:56Z</time>
      </trkpt>
      <trkpt lat="43.59004" lon="6.30197">
        <ele>630.349</ele>
        <time>2022-08-15T16:12:57Z</time>
      </trkpt>
      <trkpt lat="43.59004" lon="6.30197">
        <ele>630.349</ele>
        <time>2022-08-15T16:12:57Z</time>
      </trkpt>
      <trkpt lat="43.59003" lon="6.30197">
        <ele>630.379</ele>
        <time>2022-08-15T16:12:58Z</time>
      </trkpt>
      <trkpt lat="43.59003" lon="6.30197">
        <ele>631.087</ele>
        <time>2022-08-15T16:12:59Z</time>
      </trkpt>
      <trkpt lat="43.59" lon="6.30196">
        <ele>628.836</ele>
        <time>2022-08-15T16:13:03Z</time>
      </trkpt>
      <trkpt lat="43.58998" lon="6.302">
        <ele>628.435</ele>
        <time>2022-08-15T16:13:09Z</time>
      </trkpt>
      <trkpt lat="43.58997" lon="6.30201">
        <ele>628.731</ele>
        <time>2022-08-15T16:13:11Z</time>
      </trkpt>
      <trkpt lat="43.58997" lon="6.30201">
        <ele>628.369</ele>
        <time>2022-08-15T16:13:13Z</time>
      </trkpt>
      <trkpt lat="43.58998" lon="6.30197">
        <ele>628.882</ele>
        <time>2022-08-15T16:13:16Z</time>
      </trkpt>
      <trkpt lat="43.58998" lon="6.30196">
        <ele>628.827</ele>
        <time>2022-08-15T16:13:18Z</time>
      </trkpt>
      <trkpt lat="43.58998" lon="6.30196">
        <ele>628.871</ele>
        <time>2022-08-15T16:13:19Z</time>
      </trkpt>
      <trkpt lat="43.58996" lon="6.30196">
        <ele>628.732</ele>
        <time>2022-08-15T16:13:21Z</time>
      </trkpt>
      <trkpt lat="43.58994" lon="6.30198">
        <ele>628.732</ele>
        <time>2022-08-15T16:13:23Z</time>
      </trkpt>
      <trkpt lat="43.58993" lon="6.30198">
        <ele>629.042</ele>
        <time>2022-08-15T16:13:25Z</time>
      </trkpt>
      <trkpt lat="43.58992" lon="6.30198">
        <ele>628.959</ele>
        <time>2022-08-15T16:13:27Z</time>
      </trkpt>
      <trkpt lat="43.58992" lon="6.30201">
        <ele>629.044</ele>
        <time>2022-08-15T16:13:29Z</time>
      </trkpt>
      <trkpt lat="43.58992" lon="6.30201">
        <ele>629.275</ele>
        <time>2022-08-15T16:13:30Z</time>
      </trkpt>
      <trkpt lat="43.58993" lon="6.30201">
        <ele>630.34</ele>
        <time>2022-08-15T16:13:33Z</time>
      </trkpt>
      <trkpt lat="43.58993" lon="6.30201">
        <ele>630.34</ele>
        <time>2022-08-15T16:13:33Z</time>
      </trkpt>
      <trkpt lat="43.58992" lon="6.302">
        <ele>630.394</ele>
        <time>2022-08-15T16:13:34Z</time>
      </trkpt>
      <trkpt lat="43.58993" lon="6.30196">
        <ele>630.555</ele>
        <time>2022-08-15T16:13:38Z</time>
      </trkpt>
      <trkpt lat="43.58992" lon="6.30193">
        <ele>630.389</ele>
        <time>2022-08-15T16:13:40Z</time>
      </trkpt>
      <trkpt lat="43.58994" lon="6.30189">
        <ele>630.593</ele>
        <time>2022-08-15T16:13:42Z</time>
      </trkpt>
      <trkpt lat="43.58997" lon="6.30187">
        <ele>630.675</ele>
        <time>2022-08-15T16:13:45Z</time>
      </trkpt>
      <trkpt lat="43.58997" lon="6.30187">
        <ele>630.67</ele>
        <time>2022-08-15T16:14:45Z</time>
      </trkpt>
      <trkpt lat="43.58997" lon="6.30192">
        <ele>631.041</ele>
        <time>2022-08-15T16:14:46Z</time>
      </trkpt>
      <trkpt lat="43.58998" lon="6.30192">
        <ele>631.189</ele>
        <time>2022-08-15T16:14:48Z</time>
      </trkpt>
      <trkpt lat="43.58998" lon="6.30192">
        <ele>631.21</ele>
        <time>2022-08-15T16:14:57Z</time>
      </trkpt>
      <trkpt lat="43.58997" lon="6.30192">
        <ele>631.39</ele>
        <time>2022-08-15T16:14:58Z</time>
      </trkpt>
      <trkpt lat="43.58996" lon="6.30193">
        <ele>631.331</ele>
        <time>2022-08-15T16:14:59Z</time>
      </trkpt>
      <trkpt lat="43.58992" lon="6.30198">
        <ele>632.895</ele>
        <time>2022-08-15T16:15:02Z</time>
      </trkpt>
      <trkpt lat="43.58992" lon="6.30198">
        <ele>632.743</ele>
        <time>2022-08-15T16:15:03Z</time>
      </trkpt>
      <trkpt lat="43.58992" lon="6.30198">
        <ele>632.743</ele>
        <time>2022-08-15T16:15:03Z</time>
      </trkpt>
      <trkpt lat="43.5899" lon="6.30199">
        <ele>632.666</ele>
        <time>2022-08-15T16:15:04Z</time>
      </trkpt>
      <trkpt lat="43.5899" lon="6.30198">
        <ele>632.951</ele>
        <time>2022-08-15T16:15:06Z</time>
      </trkpt>
      <trkpt lat="43.58991" lon="6.30198">
        <ele>633.815</ele>
        <time>2022-08-15T16:15:08Z</time>
      </trkpt>
      <trkpt lat="43.5899" lon="6.30195">
        <ele>634.017</ele>
        <time>2022-08-15T16:15:13Z</time>
      </trkpt>
      <trkpt lat="43.5899" lon="6.30195">
        <ele>634.817</ele>
        <time>2022-08-15T16:15:14Z</time>
      </trkpt>
      <trkpt lat="43.5899" lon="6.30195">
        <ele>635.602</ele>
        <time>2022-08-15T16:15:25Z</time>
      </trkpt>
      <trkpt lat="43.58989" lon="6.30197">
        <ele>636.43</ele>
        <time>2022-08-15T16:15:26Z</time>
      </trkpt>
      <trkpt lat="43.58989" lon="6.30197">
        <ele>636.43</ele>
        <time>2022-08-15T16:15:26Z</time>
      </trkpt>
      <trkpt lat="43.58989" lon="6.30197">
        <ele>636.981</ele>
        <time>2022-08-15T16:15:27Z</time>
      </trkpt>
      <trkpt lat="43.58989" lon="6.30197">
        <ele>635.985</ele>
        <time>2022-08-15T16:15:28Z</time>
      </trkpt>
      <trkpt lat="43.58989" lon="6.30199">
        <ele>636.75</ele>
        <time>2022-08-15T16:15:29Z</time>
      </trkpt>
      <trkpt lat="43.58989" lon="6.30199">
        <ele>637.318</ele>
        <time>2022-08-15T16:15:30Z</time>
      </trkpt>
      <trkpt lat="43.58989" lon="6.302">
        <ele>636.928</ele>
        <time>2022-08-15T16:15:31Z</time>
      </trkpt>
      <trkpt lat="43.58988" lon="6.30201">
        <ele>637.366</ele>
        <time>2022-08-15T16:15:32Z</time>
      </trkpt>
      <trkpt lat="43.58985" lon="6.30204">
        <ele>638.461</ele>
        <time>2022-08-15T16:15:35Z</time>
      </trkpt>
      <trkpt lat="43.58982" lon="6.30205">
        <ele>638.92</ele>
        <time>2022-08-15T16:15:38Z</time>
      </trkpt>
      <trkpt lat="43.58982" lon="6.30209">
        <ele>638.771</ele>
        <time>2022-08-15T16:15:43Z</time>
      </trkpt>
      <trkpt lat="43.58985" lon="6.30214">
        <ele>638.724</ele>
        <time>2022-08-15T16:15:45Z</time>
      </trkpt>
      <trkpt lat="43.58991" lon="6.30222">
        <ele>638.761</ele>
        <time>2022-08-15T16:15:51Z</time>
      </trkpt>
      <trkpt lat="43.58986" lon="6.30222">
        <ele>638.71</ele>
        <time>2022-08-15T16:15:53Z</time>
      </trkpt>
      <trkpt lat="43.58979" lon="6.30221">
        <ele>639.01</ele>
        <time>2022-08-15T16:15:58Z</time>
      </trkpt>
      <trkpt lat="43.58978" lon="6.30217">
        <ele>639.505</ele>
        <time>2022-08-15T16:16:05Z</time>
      </trkpt>
      <trkpt lat="43.58975" lon="6.30212">
        <ele>640.564</ele>
        <time>2022-08-15T16:16:09Z</time>
      </trkpt>
      <trkpt lat="43.58942" lon="6.30181">
        <ele>637.865</ele>
        <time>2022-08-15T16:16:13Z</time>
      </trkpt>
      <trkpt lat="43.5897" lon="6.30226">
        <ele>636.633</ele>
        <time>2022-08-15T16:16:14Z</time>
      </trkpt>
      <trkpt lat="43.5897" lon="6.30226">
        <ele>639.219</ele>
        <time>2022-08-15T16:16:15Z</time>
      </trkpt>
      <trkpt lat="43.5897" lon="6.30226">
        <ele>639.219</ele>
        <time>2022-08-15T16:16:15Z</time>
      </trkpt>
      <trkpt lat="43.58971" lon="6.30223">
        <ele>643.371</ele>
        <time>2022-08-15T16:16:16Z</time>
      </trkpt>
      <trkpt lat="43.58969" lon="6.30218">
        <ele>638.364</ele>
        <time>2022-08-15T16:16:18Z</time>
      </trkpt>
      <trkpt lat="43.58969" lon="6.30218">
        <ele>635.438</ele>
        <time>2022-08-15T16:16:20Z</time>
      </trkpt>
      <trkpt lat="43.58969" lon="6.30217">
        <ele>631.078</ele>
        <time>2022-08-15T16:16:22Z</time>
      </trkpt>
      <trkpt lat="43.58969" lon="6.30217">
        <ele>624.295</ele>
        <time>2022-08-15T16:16:25Z</time>
      </trkpt>
      <trkpt lat="43.58972" lon="6.30218">
        <ele>624.6</ele>
        <time>2022-08-15T16:16:26Z</time>
      </trkpt>
      <trkpt lat="43.58972" lon="6.30219">
        <ele>628.347</ele>
        <time>2022-08-15T16:16:30Z</time>
      </trkpt>
      <trkpt lat="43.58972" lon="6.30219">
        <ele>628.036</ele>
        <time>2022-08-15T16:16:31Z</time>
      </trkpt>
      <trkpt lat="43.58972" lon="6.30219">
        <ele>628.127</ele>
        <time>2022-08-15T16:16:47Z</time>
      </trkpt>
      <trkpt lat="43.58972" lon="6.3022">
        <ele>625.413</ele>
        <time>2022-08-15T16:16:48Z</time>
      </trkpt>
      <trkpt lat="43.58973" lon="6.30218">
        <ele>628.144</ele>
        <time>2022-08-15T16:16:51Z</time>
      </trkpt>
      <trkpt lat="43.58973" lon="6.30218">
        <ele>628.24</ele>
        <time>2022-08-15T16:16:58Z</time>
      </trkpt>
      <trkpt lat="43.58976" lon="6.30217">
        <ele>630.858</ele>
        <time>2022-08-15T16:16:59Z</time>
      </trkpt>
      <trkpt lat="43.58979" lon="6.30218">
        <ele>631.562</ele>
        <time>2022-08-15T16:17:03Z</time>
      </trkpt>
      <trkpt lat="43.58979" lon="6.30218">
        <ele>631.562</ele>
        <time>2022-08-15T16:17:03Z</time>
      </trkpt>
      <trkpt lat="43.58979" lon="6.30218">
        <ele>631.749</ele>
        <time>2022-08-15T16:17:04Z</time>
      </trkpt>
      <trkpt lat="43.58979" lon="6.30218">
        <ele>628.47</ele>
        <time>2022-08-15T16:17:07Z</time>
      </trkpt>
      <trkpt lat="43.5898" lon="6.30218">
        <ele>627.728</ele>
        <time>2022-08-15T16:17:08Z</time>
      </trkpt>
      <trkpt lat="43.58981" lon="6.30218">
        <ele>624.981</ele>
        <time>2022-08-15T16:17:10Z</time>
      </trkpt>
      <trkpt lat="43.5898" lon="6.30219">
        <ele>623.694</ele>
        <time>2022-08-15T16:17:14Z</time>
      </trkpt>
      <trkpt lat="43.58979" lon="6.3022">
        <ele>628.032</ele>
        <time>2022-08-15T16:17:19Z</time>
      </trkpt>
      <trkpt lat="43.58979" lon="6.3022">
        <ele>628.597</ele>
        <time>2022-08-15T16:17:20Z</time>
      </trkpt>
      <trkpt lat="43.5898" lon="6.3022">
        <ele>628.027</ele>
        <time>2022-08-15T16:17:21Z</time>
      </trkpt>
      <trkpt lat="43.5898" lon="6.30219">
        <ele>629.565</ele>
        <time>2022-08-15T16:17:24Z</time>
      </trkpt>
      <trkpt lat="43.5898" lon="6.30219">
        <ele>629.332</ele>
        <time>2022-08-15T16:17:25Z</time>
      </trkpt>
      <trkpt lat="43.58981" lon="6.30219">
        <ele>629.657</ele>
        <time>2022-08-15T16:17:26Z</time>
      </trkpt>
      <trkpt lat="43.5898" lon="6.30219">
        <ele>630.498</ele>
        <time>2022-08-15T16:17:27Z</time>
      </trkpt>
      <trkpt lat="43.58979" lon="6.3022">
        <ele>631.186</ele>
        <time>2022-08-15T16:17:28Z</time>
      </trkpt>
      <trkpt lat="43.58976" lon="6.3022">
        <ele>632.831</ele>
        <time>2022-08-15T16:17:31Z</time>
      </trkpt>
      <trkpt lat="43.58976" lon="6.3022">
        <ele>632.831</ele>
        <time>2022-08-15T16:17:31Z</time>
      </trkpt>
      <trkpt lat="43.58976" lon="6.3022">
        <ele>630.909</ele>
        <time>2022-08-15T16:17:32Z</time>
      </trkpt>
      <trkpt lat="43.58976" lon="6.3022">
        <ele>630.909</ele>
        <time>2022-08-15T16:17:32Z</time>
      </trkpt>
      <trkpt lat="43.58976" lon="6.3022">
        <ele>630.955</ele>
        <time>2022-08-15T16:17:33Z</time>
      </trkpt>
      <trkpt lat="43.58976" lon="6.3022">
        <ele>630.955</ele>
        <time>2022-08-15T16:17:33Z</time>
      </trkpt>
      <trkpt lat="43.58976" lon="6.3022">
        <ele>631.52</ele>
        <time>2022-08-15T16:17:34Z</time>
      </trkpt>
      <trkpt lat="43.58976" lon="6.3022">
        <ele>632.187</ele>
        <time>2022-08-15T16:17:35Z</time>
      </trkpt>
      <trkpt lat="43.58976" lon="6.30219">
        <ele>632.82</ele>
        <time>2022-08-15T16:17:36Z</time>
      </trkpt>
      <trkpt lat="43.58975" lon="6.30218">
        <ele>633.421</ele>
        <time>2022-08-15T16:17:38Z</time>
      </trkpt>
      <trkpt lat="43.58974" lon="6.30218">
        <ele>632.702</ele>
        <time>2022-08-15T16:17:39Z</time>
      </trkpt>
      <trkpt lat="43.58973" lon="6.3022">
        <ele>632.102</ele>
        <time>2022-08-15T16:17:42Z</time>
      </trkpt>
      <trkpt lat="43.58973" lon="6.30221">
        <ele>632.063</ele>
        <time>2022-08-15T16:17:43Z</time>
      </trkpt>
      <trkpt lat="43.58971" lon="6.30223">
        <ele>633.07</ele>
        <time>2022-08-15T16:17:46Z</time>
      </trkpt>
      <trkpt lat="43.5897" lon="6.30223">
        <ele>632.204</ele>
        <time>2022-08-15T16:17:47Z</time>
      </trkpt>
      <trkpt lat="43.5897" lon="6.30224">
        <ele>631.536</ele>
        <time>2022-08-15T16:17:48Z</time>
      </trkpt>
      <trkpt lat="43.58971" lon="6.30224">
        <ele>630.941</ele>
        <time>2022-08-15T16:17:50Z</time>
      </trkpt>
      <trkpt lat="43.58971" lon="6.30224">
        <ele>630.941</ele>
        <time>2022-08-15T16:17:50Z</time>
      </trkpt>
      <trkpt lat="43.58971" lon="6.30224">
        <ele>631.114</ele>
        <time>2022-08-15T16:17:51Z</time>
      </trkpt>
      <trkpt lat="43.58971" lon="6.30224">
        <ele>630.284</ele>
        <time>2022-08-15T16:17:52Z</time>
      </trkpt>
      <trkpt lat="43.58972" lon="6.30225">
        <ele>630.726</ele>
        <time>2022-08-15T16:17:53Z</time>
      </trkpt>
      <trkpt lat="43.58973" lon="6.30225">
        <ele>629.559</ele>
        <time>2022-08-15T16:17:55Z</time>
      </trkpt>
      <trkpt lat="43.58973" lon="6.30225">
        <ele>629.743</ele>
        <time>2022-08-15T16:17:56Z</time>
      </trkpt>
      <trkpt lat="43.58973" lon="6.30225">
        <ele>634.17</ele>
        <time>2022-08-15T16:18:00Z</time>
      </trkpt>
      <trkpt lat="43.58973" lon="6.30223">
        <ele>631.938</ele>
        <time>2022-08-15T16:18:01Z</time>
      </trkpt>
      <trkpt lat="43.58973" lon="6.30222">
        <ele>632.062</ele>
        <time>2022-08-15T16:18:03Z</time>
      </trkpt>
      <trkpt lat="43.58973" lon="6.30222">
        <ele>632.062</ele>
        <time>2022-08-15T16:18:03Z</time>
      </trkpt>
      <trkpt lat="43.58973" lon="6.30222">
        <ele>631.85</ele>
        <time>2022-08-15T16:18:04Z</time>
      </trkpt>
      <trkpt lat="43.58973" lon="6.30222">
        <ele>633.61</ele>
        <time>2022-08-15T16:18:07Z</time>
      </trkpt>
      <trkpt lat="43.58973" lon="6.30223">
        <ele>633.42</ele>
        <time>2022-08-15T16:18:08Z</time>
      </trkpt>
      <trkpt lat="43.58972" lon="6.30224">
        <ele>633.339</ele>
        <time>2022-08-15T16:18:13Z</time>
      </trkpt>
      <trkpt lat="43.58971" lon="6.30224">
        <ele>633.511</ele>
        <time>2022-08-15T16:18:14Z</time>
      </trkpt>
      <trkpt lat="43.58967" lon="6.30222">
        <ele>633.309</ele>
        <time>2022-08-15T16:18:17Z</time>
      </trkpt>
      <trkpt lat="43.58965" lon="6.3022">
        <ele>630.316</ele>
        <time>2022-08-15T16:18:19Z</time>
      </trkpt>
      <trkpt lat="43.58961" lon="6.30218">
        <ele>630.38</ele>
        <time>2022-08-15T16:18:22Z</time>
      </trkpt>
      <trkpt lat="43.58959" lon="6.30219">
        <ele>631.87</ele>
        <time>2022-08-15T16:18:23Z</time>
      </trkpt>
      <trkpt lat="43.58958" lon="6.3022">
        <ele>632.377</ele>
        <time>2022-08-15T16:18:25Z</time>
      </trkpt>
      <trkpt lat="43.58956" lon="6.30221">
        <ele>632.72</ele>
        <time>2022-08-15T16:18:27Z</time>
      </trkpt>
      <trkpt lat="43.58954" lon="6.30222">
        <ele>633.453</ele>
        <time>2022-08-15T16:18:28Z</time>
      </trkpt>
      <trkpt lat="43.58952" lon="6.30225">
        <ele>631.905</ele>
        <time>2022-08-15T16:18:30Z</time>
      </trkpt>
      <trkpt lat="43.58951" lon="6.30227">
        <ele>632.375</ele>
        <time>2022-08-15T16:18:32Z</time>
      </trkpt>
      <trkpt lat="43.5895" lon="6.3023">
        <ele>630.303</ele>
        <time>2022-08-15T16:18:35Z</time>
      </trkpt>
      <trkpt lat="43.5895" lon="6.3023">
        <ele>630.862</ele>
        <time>2022-08-15T16:18:37Z</time>
      </trkpt>
      <trkpt lat="43.58951" lon="6.30232">
        <ele>630.219</ele>
        <time>2022-08-15T16:18:38Z</time>
      </trkpt>
      <trkpt lat="43.58951" lon="6.30232">
        <ele>630.842</ele>
        <time>2022-08-15T16:18:39Z</time>
      </trkpt>
      <trkpt lat="43.58953" lon="6.30227">
        <ele>630.536</ele>
        <time>2022-08-15T16:18:41Z</time>
      </trkpt>
      <trkpt lat="43.58954" lon="6.30223">
        <ele>627.975</ele>
        <time>2022-08-15T16:18:43Z</time>
      </trkpt>
      <trkpt lat="43.58953" lon="6.3022">
        <ele>628.047</ele>
        <time>2022-08-15T16:18:45Z</time>
      </trkpt>
      <trkpt lat="43.58951" lon="6.30214">
        <ele>629.01</ele>
        <time>2022-08-15T16:18:48Z</time>
      </trkpt>
      <trkpt lat="43.58948" lon="6.30203">
        <ele>629.302</ele>
        <time>2022-08-15T16:18:52Z</time>
      </trkpt>
      <trkpt lat="43.58952" lon="6.30193">
        <ele>628.564</ele>
        <time>2022-08-15T16:18:58Z</time>
      </trkpt>
      <trkpt lat="43.58952" lon="6.30188">
        <ele>628.995</ele>
        <time>2022-08-15T16:19:02Z</time>
      </trkpt>
      <trkpt lat="43.58952" lon="6.30187">
        <ele>629.389</ele>
        <time>2022-08-15T16:19:03Z</time>
      </trkpt>
      <trkpt lat="43.58953" lon="6.30187">
        <ele>629.671</ele>
        <time>2022-08-15T16:19:04Z</time>
      </trkpt>
      <trkpt lat="43.58953" lon="6.30187">
        <ele>629.671</ele>
        <time>2022-08-15T16:19:04Z</time>
      </trkpt>
      <trkpt lat="43.58953" lon="6.30187">
        <ele>630.01</ele>
        <time>2022-08-15T16:19:05Z</time>
      </trkpt>
      <trkpt lat="43.58953" lon="6.30187">
        <ele>630.01</ele>
        <time>2022-08-15T16:19:05Z</time>
      </trkpt>
      <trkpt lat="43.58953" lon="6.30186">
        <ele>630.214</ele>
        <time>2022-08-15T16:19:06Z</time>
      </trkpt>
      <trkpt lat="43.58953" lon="6.30186">
        <ele>630.214</ele>
        <time>2022-08-15T16:19:06Z</time>
      </trkpt>
      <trkpt lat="43.58953" lon="6.30186">
        <ele>630.726</ele>
        <time>2022-08-15T16:19:07Z</time>
      </trkpt>
      <trkpt lat="43.58953" lon="6.30186">
        <ele>631.201</ele>
        <time>2022-08-15T16:19:08Z</time>
      </trkpt>
      <trkpt lat="43.58953" lon="6.30186">
        <ele>631.201</ele>
        <time>2022-08-15T16:19:08Z</time>
      </trkpt>
      <trkpt lat="43.58953" lon="6.30185">
        <ele>631.829</ele>
        <time>2022-08-15T16:19:09Z</time>
      </trkpt>
      <trkpt lat="43.58953" lon="6.30185">
        <ele>632.074</ele>
        <time>2022-08-15T16:19:10Z</time>
      </trkpt>
      <trkpt lat="43.58955" lon="6.30183">
        <ele>632.994</ele>
        <time>2022-08-15T16:19:13Z</time>
      </trkpt>
      <trkpt lat="43.58956" lon="6.30183">
        <ele>633.174</ele>
        <time>2022-08-15T16:19:16Z</time>
      </trkpt>
      <trkpt lat="43.58956" lon="6.30183">
        <ele>633.174</ele>
        <time>2022-08-15T16:19:16Z</time>
      </trkpt>
      <trkpt lat="43.58956" lon="6.30183">
        <ele>632.255</ele>
        <time>2022-08-15T16:19:17Z</time>
      </trkpt>
      <trkpt lat="43.58956" lon="6.30183">
        <ele>631.753</ele>
        <time>2022-08-15T16:19:18Z</time>
      </trkpt>
      <trkpt lat="43.58956" lon="6.30183">
        <ele>631.753</ele>
        <time>2022-08-15T16:19:18Z</time>
      </trkpt>
      <trkpt lat="43.58955" lon="6.30182">
        <ele>631.894</ele>
        <time>2022-08-15T16:19:19Z</time>
      </trkpt>
      <trkpt lat="43.58955" lon="6.30182">
        <ele>631.8</ele>
        <time>2022-08-15T16:19:20Z</time>
      </trkpt>
      <trkpt lat="43.58954" lon="6.30183">
        <ele>632.205</ele>
        <time>2022-08-15T16:19:21Z</time>
      </trkpt>
      <trkpt lat="43.58951" lon="6.30184">
        <ele>632.772</ele>
        <time>2022-08-15T16:19:23Z</time>
      </trkpt>
      <trkpt lat="43.5895" lon="6.30185">
        <ele>633.774</ele>
        <time>2022-08-15T16:19:25Z</time>
      </trkpt>
      <trkpt lat="43.5895" lon="6.30185">
        <ele>633.774</ele>
        <time>2022-08-15T16:19:25Z</time>
      </trkpt>
      <trkpt lat="43.58951" lon="6.30184">
        <ele>634.521</ele>
        <time>2022-08-15T16:19:26Z</time>
      </trkpt>
      <trkpt lat="43.58951" lon="6.30184">
        <ele>634.521</ele>
        <time>2022-08-15T16:19:26Z</time>
      </trkpt>
      <trkpt lat="43.58951" lon="6.30184">
        <ele>635.086</ele>
        <time>2022-08-15T16:19:27Z</time>
      </trkpt>
      <trkpt lat="43.58951" lon="6.30184">
        <ele>635.086</ele>
        <time>2022-08-15T16:19:27Z</time>
      </trkpt>
      <trkpt lat="43.58951" lon="6.30184">
        <ele>635.728</ele>
        <time>2022-08-15T16:19:28Z</time>
      </trkpt>
      <trkpt lat="43.58951" lon="6.30185">
        <ele>635.516</ele>
        <time>2022-08-15T16:19:29Z</time>
      </trkpt>
      <trkpt lat="43.58949" lon="6.30185">
        <ele>636.514</ele>
        <time>2022-08-15T16:19:36Z</time>
      </trkpt>
      <trkpt lat="43.58948" lon="6.30182">
        <ele>636.665</ele>
        <time>2022-08-15T16:19:38Z</time>
      </trkpt>
      <trkpt lat="43.58949" lon="6.30181">
        <ele>637.735</ele>
        <time>2022-08-15T16:19:39Z</time>
      </trkpt>
      <trkpt lat="43.58953" lon="6.3018">
        <ele>635.637</ele>
        <time>2022-08-15T16:19:42Z</time>
      </trkpt>
      <trkpt lat="43.58956" lon="6.30182">
        <ele>637.13</ele>
        <time>2022-08-15T16:19:45Z</time>
      </trkpt>
      <trkpt lat="43.58957" lon="6.30183">
        <ele>636.881</ele>
        <time>2022-08-15T16:19:46Z</time>
      </trkpt>
      <trkpt lat="43.58959" lon="6.30185">
        <ele>637.001</ele>
        <time>2022-08-15T16:19:48Z</time>
      </trkpt>
      <trkpt lat="43.58963" lon="6.30184">
        <ele>637.585</ele>
        <time>2022-08-15T16:19:53Z</time>
      </trkpt>
      <trkpt lat="43.58965" lon="6.30186">
        <ele>635.897</ele>
        <time>2022-08-15T16:19:55Z</time>
      </trkpt>
      <trkpt lat="43.58965" lon="6.30186">
        <ele>635.897</ele>
        <time>2022-08-15T16:19:55Z</time>
      </trkpt>
      <trkpt lat="43.58966" lon="6.30186">
        <ele>635.535</ele>
        <time>2022-08-15T16:19:56Z</time>
      </trkpt>
      <trkpt lat="43.58967" lon="6.30182">
        <ele>634.697</ele>
        <time>2022-08-15T16:19:59Z</time>
      </trkpt>
      <trkpt lat="43.58965" lon="6.30178">
        <ele>633.122</ele>
        <time>2022-08-15T16:20:02Z</time>
      </trkpt>
      <trkpt lat="43.58961" lon="6.30181">
        <ele>632.223</ele>
        <time>2022-08-15T16:20:08Z</time>
      </trkpt>
      <trkpt lat="43.5896" lon="6.30185">
        <ele>633.082</ele>
        <time>2022-08-15T16:20:10Z</time>
      </trkpt>
      <trkpt lat="43.5896" lon="6.30185">
        <ele>633.513</ele>
        <time>2022-08-15T16:20:11Z</time>
      </trkpt>
      <trkpt lat="43.5896" lon="6.30185">
        <ele>632.976</ele>
        <time>2022-08-15T16:20:13Z</time>
      </trkpt>
      <trkpt lat="43.5896" lon="6.30181">
        <ele>632.574</ele>
        <time>2022-08-15T16:20:14Z</time>
      </trkpt>
      <trkpt lat="43.58965" lon="6.30164">
        <ele>631.936</ele>
        <time>2022-08-15T16:20:20Z</time>
      </trkpt>
      <trkpt lat="43.58967" lon="6.30161">
        <ele>632.744</ele>
        <time>2022-08-15T16:20:21Z</time>
      </trkpt>
      <trkpt lat="43.5897" lon="6.30159">
        <ele>632.645</ele>
        <time>2022-08-15T16:20:22Z</time>
      </trkpt>
      <trkpt lat="43.58975" lon="6.30154">
        <ele>630.232</ele>
        <time>2022-08-15T16:20:24Z</time>
      </trkpt>
      <trkpt lat="43.58977" lon="6.30151">
        <ele>628.595</ele>
        <time>2022-08-15T16:20:25Z</time>
      </trkpt>
      <trkpt lat="43.58978" lon="6.30147">
        <ele>629.268</ele>
        <time>2022-08-15T16:20:27Z</time>
      </trkpt>
      <trkpt lat="43.58978" lon="6.30147">
        <ele>626.173</ele>
        <time>2022-08-15T16:20:28Z</time>
      </trkpt>
      <trkpt lat="43.58978" lon="6.30147">
        <ele>625.485</ele>
        <time>2022-08-15T16:20:36Z</time>
      </trkpt>
      <trkpt lat="43.58974" lon="6.30149">
        <ele>627.433</ele>
        <time>2022-08-15T16:20:37Z</time>
      </trkpt>
      <trkpt lat="43.58971" lon="6.3015">
        <ele>631.679</ele>
        <time>2022-08-15T16:20:39Z</time>
      </trkpt>
      <trkpt lat="43.58969" lon="6.30151">
        <ele>632.415</ele>
        <time>2022-08-15T16:20:42Z</time>
      </trkpt>
      <trkpt lat="43.58967" lon="6.30155">
        <ele>631.876</ele>
        <time>2022-08-15T16:20:44Z</time>
      </trkpt>
      <trkpt lat="43.58966" lon="6.30159">
        <ele>631.208</ele>
        <time>2022-08-15T16:20:45Z</time>
      </trkpt>
      <trkpt lat="43.58958" lon="6.30172">
        <ele>629.178</ele>
        <time>2022-08-15T16:20:50Z</time>
      </trkpt>
      <trkpt lat="43.58956" lon="6.30174">
        <ele>629.22</ele>
        <time>2022-08-15T16:20:52Z</time>
      </trkpt>
      <trkpt lat="43.58956" lon="6.30174">
        <ele>628.787</ele>
        <time>2022-08-15T16:20:53Z</time>
      </trkpt>
      <trkpt lat="43.58956" lon="6.30174">
        <ele>629.022</ele>
        <time>2022-08-15T16:20:54Z</time>
      </trkpt>
      <trkpt lat="43.58955" lon="6.30175">
        <ele>629.503</ele>
        <time>2022-08-15T16:20:55Z</time>
      </trkpt>
      <trkpt lat="43.58955" lon="6.30175">
        <ele>629.503</ele>
        <time>2022-08-15T16:20:55Z</time>
      </trkpt>
      <trkpt lat="43.58955" lon="6.30175">
        <ele>631.139</ele>
        <time>2022-08-15T16:20:56Z</time>
      </trkpt>
      <trkpt lat="43.58955" lon="6.30175">
        <ele>631.139</ele>
        <time>2022-08-15T16:20:56Z</time>
      </trkpt>
      <trkpt lat="43.58954" lon="6.30175">
        <ele>631.994</ele>
        <time>2022-08-15T16:20:57Z</time>
      </trkpt>
      <trkpt lat="43.58954" lon="6.30174">
        <ele>631.399</ele>
        <time>2022-08-15T16:20:58Z</time>
      </trkpt>
      <trkpt lat="43.58954" lon="6.30173">
        <ele>630.099</ele>
        <time>2022-08-15T16:21:00Z</time>
      </trkpt>
      <trkpt lat="43.58954" lon="6.30173">
        <ele>630.099</ele>
        <time>2022-08-15T16:21:00Z</time>
      </trkpt>
      <trkpt lat="43.58953" lon="6.30174">
        <ele>631.458</ele>
        <time>2022-08-15T16:21:01Z</time>
      </trkpt>
      <trkpt lat="43.58952" lon="6.30175">
        <ele>626.711</ele>
        <time>2022-08-15T16:21:08Z</time>
      </trkpt>
      <trkpt lat="43.58952" lon="6.30175">
        <ele>627.167</ele>
        <time>2022-08-15T16:21:09Z</time>
      </trkpt>
      <trkpt lat="43.58952" lon="6.30175">
        <ele>628.948</ele>
        <time>2022-08-15T16:21:10Z</time>
      </trkpt>
      <trkpt lat="43.58951" lon="6.30173">
        <ele>628.68</ele>
        <time>2022-08-15T16:21:11Z</time>
      </trkpt>
      <trkpt lat="43.58948" lon="6.30175">
        <ele>630.971</ele>
        <time>2022-08-15T16:21:13Z</time>
      </trkpt>
      <trkpt lat="43.58944" lon="6.3018">
        <ele>630.545</ele>
        <time>2022-08-15T16:21:15Z</time>
      </trkpt>
      <trkpt lat="43.58942" lon="6.30182">
        <ele>628.613</ele>
        <time>2022-08-15T16:21:17Z</time>
      </trkpt>
      <trkpt lat="43.58941" lon="6.30181">
        <ele>627.669</ele>
        <time>2022-08-15T16:21:20Z</time>
      </trkpt>
      <trkpt lat="43.58941" lon="6.30181">
        <ele>628.141</ele>
        <time>2022-08-15T16:21:21Z</time>
      </trkpt>
      <trkpt lat="43.58941" lon="6.30181">
        <ele>628.159</ele>
        <time>2022-08-15T16:21:22Z</time>
      </trkpt>
      <trkpt lat="43.58941" lon="6.30181">
        <ele>628.159</ele>
        <time>2022-08-15T16:21:22Z</time>
      </trkpt>
      <trkpt lat="43.5894" lon="6.30181">
        <ele>627.617</ele>
        <time>2022-08-15T16:21:23Z</time>
      </trkpt>
      <trkpt lat="43.5894" lon="6.30182">
        <ele>627.446</ele>
        <time>2022-08-15T16:21:24Z</time>
      </trkpt>
      <trkpt lat="43.5894" lon="6.30182">
        <ele>627.469</ele>
        <time>2022-08-15T16:21:25Z</time>
      </trkpt>
      <trkpt lat="43.5894" lon="6.30182">
        <ele>627.469</ele>
        <time>2022-08-15T16:21:25Z</time>
      </trkpt>
      <trkpt lat="43.5894" lon="6.30183">
        <ele>628.272</ele>
        <time>2022-08-15T16:21:26Z</time>
      </trkpt>
      <trkpt lat="43.5894" lon="6.30184">
        <ele>628.867</ele>
        <time>2022-08-15T16:21:27Z</time>
      </trkpt>
      <trkpt lat="43.5894" lon="6.30184">
        <ele>628.312</ele>
        <time>2022-08-15T16:21:28Z</time>
      </trkpt>
      <trkpt lat="43.5894" lon="6.30184">
        <ele>628.828</ele>
        <time>2022-08-15T16:21:29Z</time>
      </trkpt>
      <trkpt lat="43.58941" lon="6.30184">
        <ele>628.329</ele>
        <time>2022-08-15T16:21:30Z</time>
      </trkpt>
      <trkpt lat="43.58941" lon="6.30183">
        <ele>628.33</ele>
        <time>2022-08-15T16:21:31Z</time>
      </trkpt>
      <trkpt lat="43.5894" lon="6.30183">
        <ele>628.258</ele>
        <time>2022-08-15T16:21:34Z</time>
      </trkpt>
      <trkpt lat="43.5894" lon="6.30183">
        <ele>629.807</ele>
        <time>2022-08-15T16:21:35Z</time>
      </trkpt>
      <trkpt lat="43.5894" lon="6.30183">
        <ele>629.807</ele>
        <time>2022-08-15T16:21:35Z</time>
      </trkpt>
      <trkpt lat="43.58939" lon="6.30183">
        <ele>628.355</ele>
        <time>2022-08-15T16:21:36Z</time>
      </trkpt>
      <trkpt lat="43.5894" lon="6.30182">
        <ele>628.802</ele>
        <time>2022-08-15T16:21:38Z</time>
      </trkpt>
      <trkpt lat="43.5894" lon="6.30181">
        <ele>628.953</ele>
        <time>2022-08-15T16:21:39Z</time>
      </trkpt>
      <trkpt lat="43.58939" lon="6.30178">
        <ele>626.524</ele>
        <time>2022-08-15T16:21:47Z</time>
      </trkpt>
      <trkpt lat="43.58938" lon="6.30178">
        <ele>626.442</ele>
        <time>2022-08-15T16:21:48Z</time>
      </trkpt>
      <trkpt lat="43.58937" lon="6.30177">
        <ele>625.626</ele>
        <time>2022-08-15T16:21:49Z</time>
      </trkpt>
      <trkpt lat="43.58937" lon="6.30177">
        <ele>624.829</ele>
        <time>2022-08-15T16:21:50Z</time>
      </trkpt>
      <trkpt lat="43.58937" lon="6.30176">
        <ele>623.134</ele>
        <time>2022-08-15T16:21:52Z</time>
      </trkpt>
      <trkpt lat="43.58935" lon="6.30174">
        <ele>621.366</ele>
        <time>2022-08-15T16:21:54Z</time>
      </trkpt>
      <trkpt lat="43.58934" lon="6.3017">
        <ele>621.62</ele>
        <time>2022-08-15T16:21:57Z</time>
      </trkpt>
      <trkpt lat="43.58934" lon="6.30168">
        <ele>622.785</ele>
        <time>2022-08-15T16:21:59Z</time>
      </trkpt>
      <trkpt lat="43.58933" lon="6.30167">
        <ele>623.89</ele>
        <time>2022-08-15T16:22:00Z</time>
      </trkpt>
      <trkpt lat="43.58933" lon="6.30167">
        <ele>623.89</ele>
        <time>2022-08-15T16:22:00Z</time>
      </trkpt>
      <trkpt lat="43.58933" lon="6.30167">
        <ele>623.765</ele>
        <time>2022-08-15T16:22:01Z</time>
      </trkpt>
      <trkpt lat="43.58933" lon="6.30167">
        <ele>623.765</ele>
        <time>2022-08-15T16:22:01Z</time>
      </trkpt>
      <trkpt lat="43.58933" lon="6.30167">
        <ele>625.131</ele>
        <time>2022-08-15T16:22:02Z</time>
      </trkpt>
      <trkpt lat="43.58933" lon="6.30167">
        <ele>625.46</ele>
        <time>2022-08-15T16:22:03Z</time>
      </trkpt>
      <trkpt lat="43.58933" lon="6.30167">
        <ele>626.315</ele>
        <time>2022-08-15T16:22:05Z</time>
      </trkpt>
      <trkpt lat="43.58932" lon="6.30168">
        <ele>626.385</ele>
        <time>2022-08-15T16:22:06Z</time>
      </trkpt>
      <trkpt lat="43.58932" lon="6.30168">
        <ele>626.385</ele>
        <time>2022-08-15T16:22:06Z</time>
      </trkpt>
      <trkpt lat="43.58932" lon="6.30168">
        <ele>625.879</ele>
        <time>2022-08-15T16:22:07Z</time>
      </trkpt>
      <trkpt lat="43.58932" lon="6.30168">
        <ele>625.879</ele>
        <time>2022-08-15T16:22:07Z</time>
      </trkpt>
      <trkpt lat="43.58932" lon="6.30167">
        <ele>625.713</ele>
        <time>2022-08-15T16:22:08Z</time>
      </trkpt>
      <trkpt lat="43.58932" lon="6.30167">
        <ele>626.275</ele>
        <time>2022-08-15T16:22:09Z</time>
      </trkpt>
      <trkpt lat="43.58932" lon="6.30167">
        <ele>626.275</ele>
        <time>2022-08-15T16:22:09Z</time>
      </trkpt>
      <trkpt lat="43.58932" lon="6.30167">
        <ele>625.948</ele>
        <time>2022-08-15T16:22:10Z</time>
      </trkpt>
      <trkpt lat="43.58933" lon="6.30167">
        <ele>626.584</ele>
        <time>2022-08-15T16:22:12Z</time>
      </trkpt>
      <trkpt lat="43.58933" lon="6.30167">
        <ele>625.795</ele>
        <time>2022-08-15T16:22:13Z</time>
      </trkpt>
      <trkpt lat="43.58933" lon="6.30167">
        <ele>625.677</ele>
        <time>2022-08-15T16:22:17Z</time>
      </trkpt>
      <trkpt lat="43.58931" lon="6.30168">
        <ele>625.82</ele>
        <time>2022-08-15T16:22:18Z</time>
      </trkpt>
      <trkpt lat="43.58931" lon="6.30168">
        <ele>626.285</ele>
        <time>2022-08-15T16:22:20Z</time>
      </trkpt>
      <trkpt lat="43.58931" lon="6.30168">
        <ele>625.576</ele>
        <time>2022-08-15T16:22:25Z</time>
      </trkpt>
      <trkpt lat="43.5893" lon="6.30169">
        <ele>626.778</ele>
        <time>2022-08-15T16:22:26Z</time>
      </trkpt>
      <trkpt lat="43.5893" lon="6.30169">
        <ele>626.778</ele>
        <time>2022-08-15T16:22:26Z</time>
      </trkpt>
      <trkpt lat="43.5893" lon="6.30169">
        <ele>627.659</ele>
        <time>2022-08-15T16:22:27Z</time>
      </trkpt>
      <trkpt lat="43.5893" lon="6.30169">
        <ele>628.044</ele>
        <time>2022-08-15T16:22:46Z</time>
      </trkpt>
      <trkpt lat="43.58931" lon="6.30167">
        <ele>627.577</ele>
        <time>2022-08-15T16:22:47Z</time>
      </trkpt>
      <trkpt lat="43.5893" lon="6.30163">
        <ele>627.249</ele>
        <time>2022-08-15T16:22:52Z</time>
      </trkpt>
      <trkpt lat="43.58927" lon="6.30159">
        <ele>626.495</ele>
        <time>2022-08-15T16:23:00Z</time>
      </trkpt>
      <trkpt lat="43.58928" lon="6.30165">
        <ele>627.929</ele>
        <time>2022-08-15T16:23:02Z</time>
      </trkpt>
      <trkpt lat="43.58926" lon="6.30171">
        <ele>632.021</ele>
        <time>2022-08-15T16:23:04Z</time>
      </trkpt>
      <trkpt lat="43.58922" lon="6.30174">
        <ele>627.742</ele>
        <time>2022-08-15T16:23:06Z</time>
      </trkpt>
      <trkpt lat="43.58919" lon="6.30175">
        <ele>621.708</ele>
        <time>2022-08-15T16:23:09Z</time>
      </trkpt>
      <trkpt lat="43.58916" lon="6.30174">
        <ele>628.191</ele>
        <time>2022-08-15T16:23:15Z</time>
      </trkpt>
      <trkpt lat="43.58914" lon="6.30172">
        <ele>630.669</ele>
        <time>2022-08-15T16:23:19Z</time>
      </trkpt>
      <trkpt lat="43.58914" lon="6.30171">
        <ele>631.801</ele>
        <time>2022-08-15T16:23:21Z</time>
      </trkpt>
      <trkpt lat="43.58915" lon="6.30164">
        <ele>632.213</ele>
        <time>2022-08-15T16:23:30Z</time>
      </trkpt>
      <trkpt lat="43.58916" lon="6.30161">
        <ele>629.503</ele>
        <time>2022-08-15T16:23:34Z</time>
      </trkpt>
      <trkpt lat="43.58916" lon="6.30161">
        <ele>629.599</ele>
        <time>2022-08-15T16:23:38Z</time>
      </trkpt>
      <trkpt lat="43.58916" lon="6.30161">
        <ele>629.502</ele>
        <time>2022-08-15T16:23:39Z</time>
      </trkpt>
      <trkpt lat="43.58916" lon="6.30161">
        <ele>629.736</ele>
        <time>2022-08-15T16:23:40Z</time>
      </trkpt>
      <trkpt lat="43.58916" lon="6.30161">
        <ele>629.82</ele>
        <time>2022-08-15T16:23:46Z</time>
      </trkpt>
      <trkpt lat="43.58917" lon="6.30161">
        <ele>630.736</ele>
        <time>2022-08-15T16:23:47Z</time>
      </trkpt>
      <trkpt lat="43.58917" lon="6.3016">
        <ele>629.926</ele>
        <time>2022-08-15T16:23:48Z</time>
      </trkpt>
      <trkpt lat="43.58917" lon="6.30158">
        <ele>628.364</ele>
        <time>2022-08-15T16:23:50Z</time>
      </trkpt>
      <trkpt lat="43.5892" lon="6.30155">
        <ele>627.781</ele>
        <time>2022-08-15T16:23:55Z</time>
      </trkpt>
      <trkpt lat="43.58921" lon="6.30155">
        <ele>627.674</ele>
        <time>2022-08-15T16:23:58Z</time>
      </trkpt>
      <trkpt lat="43.58921" lon="6.30155">
        <ele>627.947</ele>
        <time>2022-08-15T16:23:59Z</time>
      </trkpt>
      <trkpt lat="43.58921" lon="6.30155">
        <ele>628.799</ele>
        <time>2022-08-15T16:24:09Z</time>
      </trkpt>
      <trkpt lat="43.58922" lon="6.30156">
        <ele>628.761</ele>
        <time>2022-08-15T16:24:10Z</time>
      </trkpt>
      <trkpt lat="43.58922" lon="6.30156">
        <ele>628.987</ele>
        <time>2022-08-15T16:24:11Z</time>
      </trkpt>
      <trkpt lat="43.5892" lon="6.30156">
        <ele>629.56</ele>
        <time>2022-08-15T16:24:15Z</time>
      </trkpt>
      <trkpt lat="43.58919" lon="6.30154">
        <ele>628.931</ele>
        <time>2022-08-15T16:24:18Z</time>
      </trkpt>
      <trkpt lat="43.58919" lon="6.30154">
        <ele>628.916</ele>
        <time>2022-08-15T16:24:19Z</time>
      </trkpt>
      <trkpt lat="43.58919" lon="6.30154">
        <ele>627.886</ele>
        <time>2022-08-15T16:24:26Z</time>
      </trkpt>
      <trkpt lat="43.58919" lon="6.30154">
        <ele>627.748</ele>
        <time>2022-08-15T16:24:27Z</time>
      </trkpt>
      <trkpt lat="43.58919" lon="6.30153">
        <ele>627.499</ele>
        <time>2022-08-15T16:24:28Z</time>
      </trkpt>
      <trkpt lat="43.58919" lon="6.30153">
        <ele>627.075</ele>
        <time>2022-08-15T16:24:29Z</time>
      </trkpt>
      <trkpt lat="43.58919" lon="6.30153">
        <ele>626.414</ele>
        <time>2022-08-15T16:24:30Z</time>
      </trkpt>
      <trkpt lat="43.58919" lon="6.30153">
        <ele>626.402</ele>
        <time>2022-08-15T16:24:31Z</time>
      </trkpt>
      <trkpt lat="43.58919" lon="6.30154">
        <ele>625.825</ele>
        <time>2022-08-15T16:24:32Z</time>
      </trkpt>
      <trkpt lat="43.58919" lon="6.30154">
        <ele>625.825</ele>
        <time>2022-08-15T16:24:32Z</time>
      </trkpt>
      <trkpt lat="43.58919" lon="6.30154">
        <ele>625.984</ele>
        <time>2022-08-15T16:24:33Z</time>
      </trkpt>
      <trkpt lat="43.58919" lon="6.30154">
        <ele>626.573</ele>
        <time>2022-08-15T16:24:42Z</time>
      </trkpt>
      <trkpt lat="43.58919" lon="6.30153">
        <ele>626.227</ele>
        <time>2022-08-15T16:24:43Z</time>
      </trkpt>
      <trkpt lat="43.58919" lon="6.30153">
        <ele>626.083</ele>
        <time>2022-08-15T16:24:44Z</time>
      </trkpt>
      <trkpt lat="43.58919" lon="6.30153">
        <ele>625.611</ele>
        <time>2022-08-15T16:24:50Z</time>
      </trkpt>
      <trkpt lat="43.5892" lon="6.30151">
        <ele>625.419</ele>
        <time>2022-08-15T16:24:51Z</time>
      </trkpt>
      <trkpt lat="43.5892" lon="6.3015">
        <ele>625.494</ele>
        <time>2022-08-15T16:24:53Z</time>
      </trkpt>
      <trkpt lat="43.58919" lon="6.3015">
        <ele>624.948</ele>
        <time>2022-08-15T16:24:57Z</time>
      </trkpt>
      <trkpt lat="43.58919" lon="6.3015">
        <ele>625.453</ele>
        <time>2022-08-15T16:25:17Z</time>
      </trkpt>
      <trkpt lat="43.58919" lon="6.30152">
        <ele>624.957</ele>
        <time>2022-08-15T16:25:18Z</time>
      </trkpt>
      <trkpt lat="43.5892" lon="6.30152">
        <ele>625.494</ele>
        <time>2022-08-15T16:25:20Z</time>
      </trkpt>
      <trkpt lat="43.58921" lon="6.30155">
        <ele>624.963</ele>
        <time>2022-08-15T16:25:23Z</time>
      </trkpt>
      <trkpt lat="43.58922" lon="6.30156">
        <ele>625.215</ele>
        <time>2022-08-15T16:25:26Z</time>
      </trkpt>
      <trkpt lat="43.58922" lon="6.30156">
        <ele>625.215</ele>
        <time>2022-08-15T16:25:26Z</time>
      </trkpt>
      <trkpt lat="43.58922" lon="6.30153">
        <ele>625.295</ele>
        <time>2022-08-15T16:25:27Z</time>
      </trkpt>
      <trkpt lat="43.58922" lon="6.30151">
        <ele>624.697</ele>
        <time>2022-08-15T16:25:33Z</time>
      </trkpt>
      <trkpt lat="43.58922" lon="6.30151">
        <ele>624.96</ele>
        <time>2022-08-15T16:25:50Z</time>
      </trkpt>
      <trkpt lat="43.58922" lon="6.30151">
        <ele>624.924</ele>
        <time>2022-08-15T16:25:51Z</time>
      </trkpt>
      <trkpt lat="43.58922" lon="6.30151">
        <ele>625.034</ele>
        <time>2022-08-15T16:25:52Z</time>
      </trkpt>
      <trkpt lat="43.58922" lon="6.30153">
        <ele>624.558</ele>
        <time>2022-08-15T16:25:55Z</time>
      </trkpt>
      <trkpt lat="43.58922" lon="6.30154">
        <ele>624.223</ele>
        <time>2022-08-15T16:25:57Z</time>
      </trkpt>
      <trkpt lat="43.58922" lon="6.30153">
        <ele>623.774</ele>
        <time>2022-08-15T16:26:00Z</time>
      </trkpt>
      <trkpt lat="43.58922" lon="6.30153">
        <ele>623.774</ele>
        <time>2022-08-15T16:26:00Z</time>
      </trkpt>
      <trkpt lat="43.58921" lon="6.30153">
        <ele>624.174</ele>
        <time>2022-08-15T16:26:01Z</time>
      </trkpt>
      <trkpt lat="43.5892" lon="6.30154">
        <ele>623.942</ele>
        <time>2022-08-15T16:26:04Z</time>
      </trkpt>
      <trkpt lat="43.5892" lon="6.30154">
        <ele>623.778</ele>
        <time>2022-08-15T16:26:05Z</time>
      </trkpt>
      <trkpt lat="43.58921" lon="6.30155">
        <ele>623.698</ele>
        <time>2022-08-15T16:26:06Z</time>
      </trkpt>
      <trkpt lat="43.58922" lon="6.30157">
        <ele>623.753</ele>
        <time>2022-08-15T16:26:07Z</time>
      </trkpt>
      <trkpt lat="43.58922" lon="6.30158">
        <ele>624.032</ele>
        <time>2022-08-15T16:26:08Z</time>
      </trkpt>
      <trkpt lat="43.58922" lon="6.30158">
        <ele>623.075</ele>
        <time>2022-08-15T16:26:10Z</time>
      </trkpt>
      <trkpt lat="43.58922" lon="6.30158">
        <ele>623.075</ele>
        <time>2022-08-15T16:26:10Z</time>
      </trkpt>
      <trkpt lat="43.58921" lon="6.30156">
        <ele>622.443</ele>
        <time>2022-08-15T16:26:11Z</time>
      </trkpt>
      <trkpt lat="43.58921" lon="6.30153">
        <ele>622.958</ele>
        <time>2022-08-15T16:26:15Z</time>
      </trkpt>
      <trkpt lat="43.58921" lon="6.30152">
        <ele>623.03</ele>
        <time>2022-08-15T16:26:18Z</time>
      </trkpt>
      <trkpt lat="43.58921" lon="6.30152">
        <ele>623.244</ele>
        <time>2022-08-15T16:26:19Z</time>
      </trkpt>
      <trkpt lat="43.58922" lon="6.30153">
        <ele>623.337</ele>
        <time>2022-08-15T16:26:21Z</time>
      </trkpt>
      <trkpt lat="43.58929" lon="6.30153">
        <ele>621.689</ele>
        <time>2022-08-15T16:26:26Z</time>
      </trkpt>
      <trkpt lat="43.58929" lon="6.30154">
        <ele>620.515</ele>
        <time>2022-08-15T16:26:27Z</time>
      </trkpt>
      <trkpt lat="43.5893" lon="6.30154">
        <ele>619.957</ele>
        <time>2022-08-15T16:26:28Z</time>
      </trkpt>
      <trkpt lat="43.58931" lon="6.30152">
        <ele>618.694</ele>
        <time>2022-08-15T16:26:30Z</time>
      </trkpt>
      <trkpt lat="43.58931" lon="6.30152">
        <ele>623.12</ele>
        <time>2022-08-15T16:27:34Z</time>
      </trkpt>
      <trkpt lat="43.58928" lon="6.30152">
        <ele>623.232</ele>
        <time>2022-08-15T16:27:35Z</time>
      </trkpt>
      <trkpt lat="43.58926" lon="6.30154">
        <ele>622.811</ele>
        <time>2022-08-15T16:27:38Z</time>
      </trkpt>
      <trkpt lat="43.58926" lon="6.30154">
        <ele>622.231</ele>
        <time>2022-08-15T16:27:39Z</time>
      </trkpt>
      <trkpt lat="43.58923" lon="6.30155">
        <ele>620.74</ele>
        <time>2022-08-15T16:27:40Z</time>
      </trkpt>
      <trkpt lat="43.58922" lon="6.30155">
        <ele>622.195</ele>
        <time>2022-08-15T16:27:41Z</time>
      </trkpt>
      <trkpt lat="43.5892" lon="6.30157">
        <ele>622.195</ele>
        <time>2022-08-15T16:27:44Z</time>
      </trkpt>
      <trkpt lat="43.58919" lon="6.30157">
        <ele>620.677</ele>
        <time>2022-08-15T16:27:46Z</time>
      </trkpt>
      <trkpt lat="43.58919" lon="6.30157">
        <ele>616.794</ele>
        <time>2022-08-15T16:27:48Z</time>
      </trkpt>
      <trkpt lat="43.58919" lon="6.30158">
        <ele>615.072</ele>
        <time>2022-08-15T16:27:51Z</time>
      </trkpt>
      <trkpt lat="43.5892" lon="6.30163">
        <ele>614.347</ele>
        <time>2022-08-15T16:27:55Z</time>
      </trkpt>
      <trkpt lat="43.58918" lon="6.30171">
        <ele>613.07</ele>
        <time>2022-08-15T16:28:02Z</time>
      </trkpt>
      <trkpt lat="43.58919" lon="6.30174">
        <ele>614.155</ele>
        <time>2022-08-15T16:28:05Z</time>
      </trkpt>
      <trkpt lat="43.58919" lon="6.30174">
        <ele>615.018</ele>
        <time>2022-08-15T16:28:13Z</time>
      </trkpt>
      <trkpt lat="43.58918" lon="6.30175">
        <ele>616.014</ele>
        <time>2022-08-15T16:28:14Z</time>
      </trkpt>
      <trkpt lat="43.58918" lon="6.30179">
        <ele>613.733</ele>
        <time>2022-08-15T16:28:18Z</time>
      </trkpt>
      <trkpt lat="43.58919" lon="6.30183">
        <ele>614.291</ele>
        <time>2022-08-15T16:28:21Z</time>
      </trkpt>
      <trkpt lat="43.58919" lon="6.30184">
        <ele>617.223</ele>
        <time>2022-08-15T16:28:22Z</time>
      </trkpt>
      <trkpt lat="43.58914" lon="6.30187">
        <ele>620.233</ele>
        <time>2022-08-15T16:28:25Z</time>
      </trkpt>
      <trkpt lat="43.58911" lon="6.3019">
        <ele>621.633</ele>
        <time>2022-08-15T16:28:28Z</time>
      </trkpt>
      <trkpt lat="43.58913" lon="6.30196">
        <ele>621.522</ele>
        <time>2022-08-15T16:28:33Z</time>
      </trkpt>
      <trkpt lat="43.58916" lon="6.30198">
        <ele>622.417</ele>
        <time>2022-08-15T16:28:36Z</time>
      </trkpt>
      <trkpt lat="43.58919" lon="6.30198">
        <ele>622.922</ele>
        <time>2022-08-15T16:28:38Z</time>
      </trkpt>
      <trkpt lat="43.58922" lon="6.30199">
        <ele>623.375</ele>
        <time>2022-08-15T16:28:41Z</time>
      </trkpt>
      <trkpt lat="43.58923" lon="6.30205">
        <ele>622.277</ele>
        <time>2022-08-15T16:28:44Z</time>
      </trkpt>
      <trkpt lat="43.58925" lon="6.30216">
        <ele>621.319</ele>
        <time>2022-08-15T16:28:51Z</time>
      </trkpt>
      <trkpt lat="43.58927" lon="6.30223">
        <ele>622.009</ele>
        <time>2022-08-15T16:28:57Z</time>
      </trkpt>
      <trkpt lat="43.58926" lon="6.30229">
        <ele>621.535</ele>
        <time>2022-08-15T16:29:02Z</time>
      </trkpt>
      <trkpt lat="43.58926" lon="6.3023">
        <ele>621.58</ele>
        <time>2022-08-15T16:29:03Z</time>
      </trkpt>
      <trkpt lat="43.58926" lon="6.30232">
        <ele>621.358</ele>
        <time>2022-08-15T16:29:04Z</time>
      </trkpt>
      <trkpt lat="43.58927" lon="6.3024">
        <ele>622.718</ele>
        <time>2022-08-15T16:29:10Z</time>
      </trkpt>
      <trkpt lat="43.58927" lon="6.3024">
        <ele>623.222</ele>
        <time>2022-08-15T16:29:11Z</time>
      </trkpt>
      <trkpt lat="43.58927" lon="6.3024">
        <ele>623.263</ele>
        <time>2022-08-15T16:29:15Z</time>
      </trkpt>
      <trkpt lat="43.58929" lon="6.3024">
        <ele>623.766</ele>
        <time>2022-08-15T16:29:16Z</time>
      </trkpt>
      <trkpt lat="43.58929" lon="6.30241">
        <ele>623.463</ele>
        <time>2022-08-15T16:29:17Z</time>
      </trkpt>
      <trkpt lat="43.58929" lon="6.30241">
        <ele>623.463</ele>
        <time>2022-08-15T16:29:17Z</time>
      </trkpt>
      <trkpt lat="43.58929" lon="6.30241">
        <ele>624.133</ele>
        <time>2022-08-15T16:29:18Z</time>
      </trkpt>
      <trkpt lat="43.58929" lon="6.30241">
        <ele>624.144</ele>
        <time>2022-08-15T16:29:22Z</time>
      </trkpt>
      <trkpt lat="43.5893" lon="6.30243">
        <ele>624.442</ele>
        <time>2022-08-15T16:29:23Z</time>
      </trkpt>
      <trkpt lat="43.5893" lon="6.30243">
        <ele>624.46</ele>
        <time>2022-08-15T16:29:24Z</time>
      </trkpt>
      <trkpt lat="43.5893" lon="6.30243">
        <ele>624.449</ele>
        <time>2022-08-15T16:29:32Z</time>
      </trkpt>
      <trkpt lat="43.58929" lon="6.30242">
        <ele>624.645</ele>
        <time>2022-08-15T16:29:33Z</time>
      </trkpt>
      <trkpt lat="43.58926" lon="6.30243">
        <ele>623.498</ele>
        <time>2022-08-15T16:29:38Z</time>
      </trkpt>
      <trkpt lat="43.58926" lon="6.30243">
        <ele>624.4</ele>
        <time>2022-08-15T16:29:39Z</time>
      </trkpt>
      <trkpt lat="43.58926" lon="6.30243">
        <ele>624.41</ele>
        <time>2022-08-15T16:29:41Z</time>
      </trkpt>
      <trkpt lat="43.58927" lon="6.30242">
        <ele>624.621</ele>
        <time>2022-08-15T16:29:42Z</time>
      </trkpt>
      <trkpt lat="43.58927" lon="6.30242">
        <ele>624.715</ele>
        <time>2022-08-15T16:29:43Z</time>
      </trkpt>
      <trkpt lat="43.58927" lon="6.30242">
        <ele>624.715</ele>
        <time>2022-08-15T16:29:43Z</time>
      </trkpt>
      <trkpt lat="43.58927" lon="6.30243">
        <ele>625.601</ele>
        <time>2022-08-15T16:29:44Z</time>
      </trkpt>
      <trkpt lat="43.58927" lon="6.30243">
        <ele>624.872</ele>
        <time>2022-08-15T16:29:45Z</time>
      </trkpt>
      <trkpt lat="43.58927" lon="6.30243">
        <ele>624.673</ele>
        <time>2022-08-15T16:29:49Z</time>
      </trkpt>
      <trkpt lat="43.58928" lon="6.30244">
        <ele>623.584</ele>
        <time>2022-08-15T16:29:50Z</time>
      </trkpt>
      <trkpt lat="43.58928" lon="6.30244">
        <ele>623.9</ele>
        <time>2022-08-15T16:29:51Z</time>
      </trkpt>
      <trkpt lat="43.58928" lon="6.30244">
        <ele>623.9</ele>
        <time>2022-08-15T16:29:51Z</time>
      </trkpt>
      <trkpt lat="43.58928" lon="6.30243">
        <ele>623.728</ele>
        <time>2022-08-15T16:29:52Z</time>
      </trkpt>
      <trkpt lat="43.58928" lon="6.30243">
        <ele>624.8</ele>
        <time>2022-08-15T16:29:53Z</time>
      </trkpt>
      <trkpt lat="43.58928" lon="6.30243">
        <ele>626.602</ele>
        <time>2022-08-15T16:29:56Z</time>
      </trkpt>
      <trkpt lat="43.58929" lon="6.30242">
        <ele>627.052</ele>
        <time>2022-08-15T16:29:57Z</time>
      </trkpt>
      <trkpt lat="43.58929" lon="6.30242">
        <ele>627.46</ele>
        <time>2022-08-15T16:29:58Z</time>
      </trkpt>
      <trkpt lat="43.58929" lon="6.30242">
        <ele>627.46</ele>
        <time>2022-08-15T16:29:58Z</time>
      </trkpt>
      <trkpt lat="43.5893" lon="6.30242">
        <ele>626.883</ele>
        <time>2022-08-15T16:29:59Z</time>
      </trkpt>
      <trkpt lat="43.5893" lon="6.30242">
        <ele>626.883</ele>
        <time>2022-08-15T16:29:59Z</time>
      </trkpt>
      <trkpt lat="43.5893" lon="6.30242">
        <ele>626.295</ele>
        <time>2022-08-15T16:30:00Z</time>
      </trkpt>
      <trkpt lat="43.5893" lon="6.30243">
        <ele>626.016</ele>
        <time>2022-08-15T16:30:01Z</time>
      </trkpt>
      <trkpt lat="43.5893" lon="6.30244">
        <ele>626.413</ele>
        <time>2022-08-15T16:30:03Z</time>
      </trkpt>
      <trkpt lat="43.5893" lon="6.30244">
        <ele>626.682</ele>
        <time>2022-08-15T16:30:04Z</time>
      </trkpt>
      <trkpt lat="43.5893" lon="6.30244">
        <ele>627.414</ele>
        <time>2022-08-15T16:30:06Z</time>
      </trkpt>
      <trkpt lat="43.5893" lon="6.30244">
        <ele>627.389</ele>
        <time>2022-08-15T16:30:09Z</time>
      </trkpt>
      <trkpt lat="43.58931" lon="6.30244">
        <ele>628.192</ele>
        <time>2022-08-15T16:30:10Z</time>
      </trkpt>
      <trkpt lat="43.58931" lon="6.30244">
        <ele>629.219</ele>
        <time>2022-08-15T16:30:11Z</time>
      </trkpt>
      <trkpt lat="43.58931" lon="6.30244">
        <ele>629.243</ele>
        <time>2022-08-15T16:30:43Z</time>
      </trkpt>
      <trkpt lat="43.58929" lon="6.30244">
        <ele>629.389</ele>
        <time>2022-08-15T16:30:44Z</time>
      </trkpt>
      <trkpt lat="43.58929" lon="6.30244">
        <ele>629.109</ele>
        <time>2022-08-15T16:30:46Z</time>
      </trkpt>
      <trkpt lat="43.58928" lon="6.30246">
        <ele>630.18</ele>
        <time>2022-08-15T16:30:50Z</time>
      </trkpt>
      <trkpt lat="43.58928" lon="6.30246">
        <ele>630.18</ele>
        <time>2022-08-15T16:30:50Z</time>
      </trkpt>
      <trkpt lat="43.58927" lon="6.30245">
        <ele>630.4</ele>
        <time>2022-08-15T16:30:51Z</time>
      </trkpt>
      <trkpt lat="43.58926" lon="6.30246">
        <ele>630.3</ele>
        <time>2022-08-15T16:30:54Z</time>
      </trkpt>
      <trkpt lat="43.58924" lon="6.30249">
        <ele>628.433</ele>
        <time>2022-08-15T16:31:00Z</time>
      </trkpt>
      <trkpt lat="43.58924" lon="6.30248">
        <ele>628.41</ele>
        <time>2022-08-15T16:31:03Z</time>
      </trkpt>
      <trkpt lat="43.58924" lon="6.30248">
        <ele>628.41</ele>
        <time>2022-08-15T16:31:03Z</time>
      </trkpt>
      <trkpt lat="43.58923" lon="6.30247">
        <ele>627.88</ele>
        <time>2022-08-15T16:31:04Z</time>
      </trkpt>
      <trkpt lat="43.58923" lon="6.30249">
        <ele>627.1</ele>
        <time>2022-08-15T16:31:06Z</time>
      </trkpt>
      <trkpt lat="43.58922" lon="6.30251">
        <ele>626.994</ele>
        <time>2022-08-15T16:31:09Z</time>
      </trkpt>
      <trkpt lat="43.5892" lon="6.30253">
        <ele>627.69</ele>
        <time>2022-08-15T16:31:14Z</time>
      </trkpt>
      <trkpt lat="43.58915" lon="6.3026">
        <ele>625.014</ele>
        <time>2022-08-15T16:31:22Z</time>
      </trkpt>
      <trkpt lat="43.58913" lon="6.30262">
        <ele>625.5</ele>
        <time>2022-08-15T16:31:25Z</time>
      </trkpt>
      <trkpt lat="43.58911" lon="6.30264">
        <ele>622.58</ele>
        <time>2022-08-15T16:31:31Z</time>
      </trkpt>
      <trkpt lat="43.5891" lon="6.30263">
        <ele>622.395</ele>
        <time>2022-08-15T16:31:33Z</time>
      </trkpt>
      <trkpt lat="43.5891" lon="6.30263">
        <ele>622.395</ele>
        <time>2022-08-15T16:31:33Z</time>
      </trkpt>
      <trkpt lat="43.5891" lon="6.30263">
        <ele>622.42</ele>
        <time>2022-08-15T16:31:34Z</time>
      </trkpt>
      <trkpt lat="43.5891" lon="6.30263">
        <ele>622.417</ele>
        <time>2022-08-15T16:31:42Z</time>
      </trkpt>
      <trkpt lat="43.58911" lon="6.30262">
        <ele>622.183</ele>
        <time>2022-08-15T16:31:43Z</time>
      </trkpt>
      <trkpt lat="43.58912" lon="6.30262">
        <ele>622.522</ele>
        <time>2022-08-15T16:31:46Z</time>
      </trkpt>
      <trkpt lat="43.58912" lon="6.30262">
        <ele>622.487</ele>
        <time>2022-08-15T16:31:47Z</time>
      </trkpt>
      <trkpt lat="43.58912" lon="6.30262">
        <ele>622.48</ele>
        <time>2022-08-15T16:31:49Z</time>
      </trkpt>
      <trkpt lat="43.58912" lon="6.30264">
        <ele>621.939</ele>
        <time>2022-08-15T16:31:50Z</time>
      </trkpt>
      <trkpt lat="43.58911" lon="6.30264">
        <ele>621.155</ele>
        <time>2022-08-15T16:31:52Z</time>
      </trkpt>
      <trkpt lat="43.58911" lon="6.30264">
        <ele>621.263</ele>
        <time>2022-08-15T16:31:53Z</time>
      </trkpt>
      <trkpt lat="43.58911" lon="6.30264">
        <ele>621.25</ele>
        <time>2022-08-15T16:31:54Z</time>
      </trkpt>
      <trkpt lat="43.58911" lon="6.30265">
        <ele>621.307</ele>
        <time>2022-08-15T16:31:55Z</time>
      </trkpt>
      <trkpt lat="43.58911" lon="6.30265">
        <ele>621.306</ele>
        <time>2022-08-15T16:31:56Z</time>
      </trkpt>
      <trkpt lat="43.58911" lon="6.30265">
        <ele>621.381</ele>
        <time>2022-08-15T16:32:29Z</time>
      </trkpt>
      <trkpt lat="43.58911" lon="6.30266">
        <ele>621.79</ele>
        <time>2022-08-15T16:32:30Z</time>
      </trkpt>
      <trkpt lat="43.58911" lon="6.30267">
        <ele>621.961</ele>
        <time>2022-08-15T16:32:32Z</time>
      </trkpt>
      <trkpt lat="43.5891" lon="6.30267">
        <ele>623.678</ele>
        <time>2022-08-15T16:32:34Z</time>
      </trkpt>
      <trkpt lat="43.5891" lon="6.30267">
        <ele>623.678</ele>
        <time>2022-08-15T16:32:34Z</time>
      </trkpt>
      <trkpt lat="43.5891" lon="6.30267">
        <ele>623.212</ele>
        <time>2022-08-15T16:32:35Z</time>
      </trkpt>
      <trkpt lat="43.5891" lon="6.30267">
        <ele>623.187</ele>
        <time>2022-08-15T16:32:36Z</time>
      </trkpt>
      <trkpt lat="43.5891" lon="6.30267">
        <ele>623.192</ele>
        <time>2022-08-15T16:32:41Z</time>
      </trkpt>
      <trkpt lat="43.5891" lon="6.30266">
        <ele>623.411</ele>
        <time>2022-08-15T16:32:42Z</time>
      </trkpt>
      <trkpt lat="43.58904" lon="6.30273">
        <ele>625.622</ele>
        <time>2022-08-15T16:32:51Z</time>
      </trkpt>
      <trkpt lat="43.58903" lon="6.30276">
        <ele>625.162</ele>
        <time>2022-08-15T16:32:55Z</time>
      </trkpt>
      <trkpt lat="43.58903" lon="6.30276">
        <ele>625.162</ele>
        <time>2022-08-15T16:32:55Z</time>
      </trkpt>
      <trkpt lat="43.58903" lon="6.30276">
        <ele>624.723</ele>
        <time>2022-08-15T16:32:56Z</time>
      </trkpt>
      <trkpt lat="43.58903" lon="6.30276">
        <ele>624.39</ele>
        <time>2022-08-15T16:33:25Z</time>
      </trkpt>
      <trkpt lat="43.58902" lon="6.30277">
        <ele>623.982</ele>
        <time>2022-08-15T16:33:26Z</time>
      </trkpt>
      <trkpt lat="43.58902" lon="6.30277">
        <ele>623.965</ele>
        <time>2022-08-15T16:33:27Z</time>
      </trkpt>
      <trkpt lat="43.58902" lon="6.30277">
        <ele>624.082</ele>
        <time>2022-08-15T16:33:29Z</time>
      </trkpt>
      <trkpt lat="43.58901" lon="6.30277">
        <ele>624.115</ele>
        <time>2022-08-15T16:33:30Z</time>
      </trkpt>
      <trkpt lat="43.58901" lon="6.30277">
        <ele>624.098</ele>
        <time>2022-08-15T16:33:31Z</time>
      </trkpt>
      <trkpt lat="43.58901" lon="6.30277">
        <ele>624.099</ele>
        <time>2022-08-15T16:33:33Z</time>
      </trkpt>
      <trkpt lat="43.58901" lon="6.30278">
        <ele>624.108</ele>
        <time>2022-08-15T16:33:34Z</time>
      </trkpt>
      <trkpt lat="43.58902" lon="6.30282">
        <ele>625.178</ele>
        <time>2022-08-15T16:33:39Z</time>
      </trkpt>
      <trkpt lat="43.58902" lon="6.30282">
        <ele>625.178</ele>
        <time>2022-08-15T16:33:39Z</time>
      </trkpt>
      <trkpt lat="43.58901" lon="6.30282">
        <ele>625.008</ele>
        <time>2022-08-15T16:33:40Z</time>
      </trkpt>
      <trkpt lat="43.58901" lon="6.30282">
        <ele>624.763</ele>
        <time>2022-08-15T16:33:43Z</time>
      </trkpt>
      <trkpt lat="43.58901" lon="6.30282">
        <ele>626.252</ele>
        <time>2022-08-15T16:33:49Z</time>
      </trkpt>
      <trkpt lat="43.58899" lon="6.30281">
        <ele>626.738</ele>
        <time>2022-08-15T16:33:50Z</time>
      </trkpt>
      <trkpt lat="43.58898" lon="6.30279">
        <ele>628.762</ele>
        <time>2022-08-15T16:33:55Z</time>
      </trkpt>
      <trkpt lat="43.58898" lon="6.30279">
        <ele>628.916</ele>
        <time>2022-08-15T16:34:11Z</time>
      </trkpt>
      <trkpt lat="43.58897" lon="6.30279">
        <ele>629.032</ele>
        <time>2022-08-15T16:34:12Z</time>
      </trkpt>
      <trkpt lat="43.58897" lon="6.30279">
        <ele>629.416</ele>
        <time>2022-08-15T16:34:14Z</time>
      </trkpt>
      <trkpt lat="43.58897" lon="6.3028">
        <ele>629.156</ele>
        <time>2022-08-15T16:34:15Z</time>
      </trkpt>
      <trkpt lat="43.58897" lon="6.30281">
        <ele>628.689</ele>
        <time>2022-08-15T16:34:16Z</time>
      </trkpt>
      <trkpt lat="43.58896" lon="6.30286">
        <ele>629.225</ele>
        <time>2022-08-15T16:34:20Z</time>
      </trkpt>
      <trkpt lat="43.58895" lon="6.30289">
        <ele>630.635</ele>
        <time>2022-08-15T16:34:23Z</time>
      </trkpt>
      <trkpt lat="43.58893" lon="6.30294">
        <ele>631.959</ele>
        <time>2022-08-15T16:34:29Z</time>
      </trkpt>
      <trkpt lat="43.58893" lon="6.30294">
        <ele>631.104</ele>
        <time>2022-08-15T16:34:30Z</time>
      </trkpt>
      <trkpt lat="43.58893" lon="6.30294">
        <ele>629.479</ele>
        <time>2022-08-15T16:34:33Z</time>
      </trkpt>
      <trkpt lat="43.58893" lon="6.30294">
        <ele>629.453</ele>
        <time>2022-08-15T16:34:42Z</time>
      </trkpt>
      <trkpt lat="43.58894" lon="6.30293">
        <ele>628.853</ele>
        <time>2022-08-15T16:34:43Z</time>
      </trkpt>
      <trkpt lat="43.58894" lon="6.30292">
        <ele>628.917</ele>
        <time>2022-08-15T16:34:49Z</time>
      </trkpt>
      <trkpt lat="43.58894" lon="6.30292">
        <ele>628.918</ele>
        <time>2022-08-15T16:34:56Z</time>
      </trkpt>
      <trkpt lat="43.58895" lon="6.30292">
        <ele>628.667</ele>
        <time>2022-08-15T16:34:57Z</time>
      </trkpt>
      <trkpt lat="43.58895" lon="6.30291">
        <ele>627.625</ele>
        <time>2022-08-15T16:35:00Z</time>
      </trkpt>
      <trkpt lat="43.58895" lon="6.30291">
        <ele>626.596</ele>
        <time>2022-08-15T16:35:01Z</time>
      </trkpt>
      <trkpt lat="43.58895" lon="6.30291">
        <ele>626.647</ele>
        <time>2022-08-15T16:35:02Z</time>
      </trkpt>
      <trkpt lat="43.58895" lon="6.30291">
        <ele>626.66</ele>
        <time>2022-08-15T16:35:35Z</time>
      </trkpt>
      <trkpt lat="43.58896" lon="6.30292">
        <ele>627.084</ele>
        <time>2022-08-15T16:35:36Z</time>
      </trkpt>
      <trkpt lat="43.58896" lon="6.30292">
        <ele>626.295</ele>
        <time>2022-08-15T16:35:37Z</time>
      </trkpt>
      <trkpt lat="43.58896" lon="6.30292">
        <ele>626.295</ele>
        <time>2022-08-15T16:35:37Z</time>
      </trkpt>
      <trkpt lat="43.58896" lon="6.30291">
        <ele>626.188</ele>
        <time>2022-08-15T16:35:38Z</time>
      </trkpt>
      <trkpt lat="43.58897" lon="6.30291">
        <ele>625.489</ele>
        <time>2022-08-15T16:35:41Z</time>
      </trkpt>
      <trkpt lat="43.58898" lon="6.30291">
        <ele>624.14</ele>
        <time>2022-08-15T16:35:43Z</time>
      </trkpt>
      <trkpt lat="43.58899" lon="6.30292">
        <ele>625.761</ele>
        <time>2022-08-15T16:35:46Z</time>
      </trkpt>
      <trkpt lat="43.58899" lon="6.30292">
        <ele>625.749</ele>
        <time>2022-08-15T16:35:47Z</time>
      </trkpt>
      <trkpt lat="43.58899" lon="6.30292">
        <ele>626.545</ele>
        <time>2022-08-15T16:35:49Z</time>
      </trkpt>
      <trkpt lat="43.58899" lon="6.30295">
        <ele>626.455</ele>
        <time>2022-08-15T16:35:50Z</time>
      </trkpt>
      <trkpt lat="43.58897" lon="6.303">
        <ele>626.497</ele>
        <time>2022-08-15T16:35:55Z</time>
      </trkpt>
      <trkpt lat="43.58876" lon="6.30314">
        <ele>627.03</ele>
        <time>2022-08-15T16:36:03Z</time>
      </trkpt>
      <trkpt lat="43.58872" lon="6.30315">
        <ele>626.998</ele>
        <time>2022-08-15T16:36:05Z</time>
      </trkpt>
      <trkpt lat="43.58869" lon="6.30315">
        <ele>626.896</ele>
        <time>2022-08-15T16:36:07Z</time>
      </trkpt>
      <trkpt lat="43.58868" lon="6.30312">
        <ele>627.465</ele>
        <time>2022-08-15T16:36:10Z</time>
      </trkpt>
      <trkpt lat="43.58872" lon="6.30312">
        <ele>625.303</ele>
        <time>2022-08-15T16:36:14Z</time>
      </trkpt>
      <trkpt lat="43.58872" lon="6.30307">
        <ele>623.998</ele>
        <time>2022-08-15T16:36:23Z</time>
      </trkpt>
      <trkpt lat="43.5887" lon="6.30312">
        <ele>624.07</ele>
        <time>2022-08-15T16:36:25Z</time>
      </trkpt>
      <trkpt lat="43.58869" lon="6.30313">
        <ele>624</ele>
        <time>2022-08-15T16:36:27Z</time>
      </trkpt>
      <trkpt lat="43.58869" lon="6.30313">
        <ele>625.52</ele>
        <time>2022-08-15T16:36:28Z</time>
      </trkpt>
      <trkpt lat="43.58873" lon="6.30311">
        <ele>625.032</ele>
        <time>2022-08-15T16:36:29Z</time>
      </trkpt>
      <trkpt lat="43.58874" lon="6.3031">
        <ele>624.129</ele>
        <time>2022-08-15T16:36:30Z</time>
      </trkpt>
      <trkpt lat="43.58876" lon="6.3031">
        <ele>622.75</ele>
        <time>2022-08-15T16:36:31Z</time>
      </trkpt>
      <trkpt lat="43.5888" lon="6.30307">
        <ele>623.708</ele>
        <time>2022-08-15T16:36:33Z</time>
      </trkpt>
      <trkpt lat="43.58882" lon="6.30305">
        <ele>623.958</ele>
        <time>2022-08-15T16:36:34Z</time>
      </trkpt>
      <trkpt lat="43.58883" lon="6.30302">
        <ele>624.364</ele>
        <time>2022-08-15T16:36:37Z</time>
      </trkpt>
      <trkpt lat="43.58883" lon="6.30308">
        <ele>627.906</ele>
        <time>2022-08-15T16:36:40Z</time>
      </trkpt>
      <trkpt lat="43.58878" lon="6.30317">
        <ele>625.295</ele>
        <time>2022-08-15T16:36:42Z</time>
      </trkpt>
      <trkpt lat="43.58869" lon="6.30335">
        <ele>623.113</ele>
        <time>2022-08-15T16:36:48Z</time>
      </trkpt>
      <trkpt lat="43.58866" lon="6.30342">
        <ele>622.246</ele>
        <time>2022-08-15T16:36:52Z</time>
      </trkpt>
      <trkpt lat="43.58864" lon="6.30345">
        <ele>623.086</ele>
        <time>2022-08-15T16:36:55Z</time>
      </trkpt>
      <trkpt lat="43.58865" lon="6.30352">
        <ele>622.896</ele>
        <time>2022-08-15T16:37:00Z</time>
      </trkpt>
      <trkpt lat="43.58861" lon="6.30361">
        <ele>624.356</ele>
        <time>2022-08-15T16:37:08Z</time>
      </trkpt>
      <trkpt lat="43.58859" lon="6.30362">
        <ele>625.112</ele>
        <time>2022-08-15T16:37:09Z</time>
      </trkpt>
      <trkpt lat="43.58854" lon="6.30363">
        <ele>625.834</ele>
        <time>2022-08-15T16:37:13Z</time>
      </trkpt>
      <trkpt lat="43.58854" lon="6.30363">
        <ele>625.834</ele>
        <time>2022-08-15T16:37:13Z</time>
      </trkpt>
      <trkpt lat="43.58859" lon="6.3036">
        <ele>626.409</ele>
        <time>2022-08-15T16:37:14Z</time>
      </trkpt>
      <trkpt lat="43.58864" lon="6.3036">
        <ele>624.993</ele>
        <time>2022-08-15T16:37:16Z</time>
      </trkpt>
      <trkpt lat="43.58866" lon="6.3036">
        <ele>625.881</ele>
        <time>2022-08-15T16:37:17Z</time>
      </trkpt>
      <trkpt lat="43.58868" lon="6.3036">
        <ele>626.328</ele>
        <time>2022-08-15T16:37:18Z</time>
      </trkpt>
      <trkpt lat="43.5887" lon="6.30361">
        <ele>626.884</ele>
        <time>2022-08-15T16:37:19Z</time>
      </trkpt>
      <trkpt lat="43.58868" lon="6.30364">
        <ele>622.218</ele>
        <time>2022-08-15T16:37:23Z</time>
      </trkpt>
      <trkpt lat="43.58866" lon="6.30367">
        <ele>620.745</ele>
        <time>2022-08-15T16:37:26Z</time>
      </trkpt>
      <trkpt lat="43.58864" lon="6.30371">
        <ele>623.096</ele>
        <time>2022-08-15T16:37:29Z</time>
      </trkpt>
      <trkpt lat="43.58861" lon="6.30374">
        <ele>627.407</ele>
        <time>2022-08-15T16:37:32Z</time>
      </trkpt>
      <trkpt lat="43.58861" lon="6.30374">
        <ele>626.827</ele>
        <time>2022-08-15T16:37:33Z</time>
      </trkpt>
      <trkpt lat="43.58859" lon="6.30377">
        <ele>628.241</ele>
        <time>2022-08-15T16:37:35Z</time>
      </trkpt>
      <trkpt lat="43.58853" lon="6.3038">
        <ele>631.074</ele>
        <time>2022-08-15T16:37:39Z</time>
      </trkpt>
      <trkpt lat="43.58849" lon="6.30383">
        <ele>634.745</ele>
        <time>2022-08-15T16:37:42Z</time>
      </trkpt>
      <trkpt lat="43.58847" lon="6.30383">
        <ele>637.617</ele>
        <time>2022-08-15T16:37:44Z</time>
      </trkpt>
      <trkpt lat="43.58847" lon="6.30384">
        <ele>636.212</ele>
        <time>2022-08-15T16:37:46Z</time>
      </trkpt>
      <trkpt lat="43.58844" lon="6.30385">
        <ele>636.827</ele>
        <time>2022-08-15T16:37:51Z</time>
      </trkpt>
      <trkpt lat="43.58841" lon="6.30388">
        <ele>639.53</ele>
        <time>2022-08-15T16:37:54Z</time>
      </trkpt>
      <trkpt lat="43.58839" lon="6.30392">
        <ele>637.711</ele>
        <time>2022-08-15T16:37:59Z</time>
      </trkpt>
      <trkpt lat="43.58838" lon="6.30394">
        <ele>637.707</ele>
        <time>2022-08-15T16:38:01Z</time>
      </trkpt>
      <trkpt lat="43.5883" lon="6.30412">
        <ele>635.403</ele>
        <time>2022-08-15T16:38:15Z</time>
      </trkpt>
      <trkpt lat="43.58819" lon="6.30434">
        <ele>637.638</ele>
        <time>2022-08-15T16:38:39Z</time>
      </trkpt>
      <trkpt lat="43.58819" lon="6.30434">
        <ele>638.364</ele>
        <time>2022-08-15T16:38:42Z</time>
      </trkpt>
      <trkpt lat="43.58822" lon="6.30427">
        <ele>637.968</ele>
        <time>2022-08-15T16:38:49Z</time>
      </trkpt>
      <trkpt lat="43.58822" lon="6.30427">
        <ele>637.981</ele>
        <time>2022-08-15T16:39:00Z</time>
      </trkpt>
      <trkpt lat="43.58822" lon="6.30427">
        <ele>638.031</ele>
        <time>2022-08-15T16:39:01Z</time>
      </trkpt>
      <trkpt lat="43.58822" lon="6.30427">
        <ele>638.031</ele>
        <time>2022-08-15T16:39:01Z</time>
      </trkpt>
      <trkpt lat="43.58822" lon="6.30428">
        <ele>638.303</ele>
        <time>2022-08-15T16:39:02Z</time>
      </trkpt>
      <trkpt lat="43.58821" lon="6.30427">
        <ele>637.875</ele>
        <time>2022-08-15T16:39:04Z</time>
      </trkpt>
      <trkpt lat="43.58821" lon="6.30426">
        <ele>638.795</ele>
        <time>2022-08-15T16:39:05Z</time>
      </trkpt>
      <trkpt lat="43.5882" lon="6.30426">
        <ele>639.815</ele>
        <time>2022-08-15T16:39:08Z</time>
      </trkpt>
      <trkpt lat="43.5882" lon="6.30426">
        <ele>640.638</ele>
        <time>2022-08-15T16:39:10Z</time>
      </trkpt>
      <trkpt lat="43.5882" lon="6.30426">
        <ele>641.115</ele>
        <time>2022-08-15T16:39:19Z</time>
      </trkpt>
      <trkpt lat="43.5882" lon="6.30427">
        <ele>641.59</ele>
        <time>2022-08-15T16:39:20Z</time>
      </trkpt>
      <trkpt lat="43.58819" lon="6.30427">
        <ele>642.444</ele>
        <time>2022-08-15T16:39:21Z</time>
      </trkpt>
      <trkpt lat="43.58816" lon="6.30428">
        <ele>643.774</ele>
        <time>2022-08-15T16:39:23Z</time>
      </trkpt>
      <trkpt lat="43.58802" lon="6.30442">
        <ele>643.373</ele>
        <time>2022-08-15T16:39:36Z</time>
      </trkpt>
      <trkpt lat="43.58799" lon="6.30446">
        <ele>643.059</ele>
        <time>2022-08-15T16:39:43Z</time>
      </trkpt>
      <trkpt lat="43.58797" lon="6.30449">
        <ele>643.408</ele>
        <time>2022-08-15T16:39:45Z</time>
      </trkpt>
      <trkpt lat="43.58794" lon="6.30453">
        <ele>643.103</ele>
        <time>2022-08-15T16:39:48Z</time>
      </trkpt>
      <trkpt lat="43.58788" lon="6.30457">
        <ele>643.651</ele>
        <time>2022-08-15T16:39:56Z</time>
      </trkpt>
      <trkpt lat="43.58788" lon="6.30457">
        <ele>643.651</ele>
        <time>2022-08-15T16:39:56Z</time>
      </trkpt>
      <trkpt lat="43.58788" lon="6.30457">
        <ele>643.158</ele>
        <time>2022-08-15T16:39:57Z</time>
      </trkpt>
      <trkpt lat="43.58788" lon="6.30456">
        <ele>643.204</ele>
        <time>2022-08-15T16:40:02Z</time>
      </trkpt>
      <trkpt lat="43.58788" lon="6.30455">
        <ele>643.059</ele>
        <time>2022-08-15T16:40:03Z</time>
      </trkpt>
      <trkpt lat="43.58788" lon="6.30455">
        <ele>643.657</ele>
        <time>2022-08-15T16:40:05Z</time>
      </trkpt>
      <trkpt lat="43.58788" lon="6.30455">
        <ele>643.657</ele>
        <time>2022-08-15T16:40:05Z</time>
      </trkpt>
      <trkpt lat="43.58788" lon="6.30454">
        <ele>643.462</ele>
        <time>2022-08-15T16:40:06Z</time>
      </trkpt>
      <trkpt lat="43.58788" lon="6.30454">
        <ele>643.227</ele>
        <time>2022-08-15T16:40:07Z</time>
      </trkpt>
      <trkpt lat="43.58788" lon="6.30454">
        <ele>643.393</ele>
        <time>2022-08-15T16:40:08Z</time>
      </trkpt>
      <trkpt lat="43.58788" lon="6.30454">
        <ele>643.407</ele>
        <time>2022-08-15T16:40:20Z</time>
      </trkpt>
      <trkpt lat="43.58787" lon="6.30456">
        <ele>643.142</ele>
        <time>2022-08-15T16:40:21Z</time>
      </trkpt>
      <trkpt lat="43.58787" lon="6.30455">
        <ele>642.372</ele>
        <time>2022-08-15T16:40:26Z</time>
      </trkpt>
      <trkpt lat="43.58787" lon="6.30455">
        <ele>642.377</ele>
        <time>2022-08-15T16:40:27Z</time>
      </trkpt>
      <trkpt lat="43.58788" lon="6.30455">
        <ele>642.51</ele>
        <time>2022-08-15T16:40:28Z</time>
      </trkpt>
      <trkpt lat="43.58788" lon="6.30455">
        <ele>642.513</ele>
        <time>2022-08-15T16:40:29Z</time>
      </trkpt>
      <trkpt lat="43.58788" lon="6.30455">
        <ele>642.551</ele>
        <time>2022-08-15T16:40:35Z</time>
      </trkpt>
      <trkpt lat="43.58788" lon="6.30455">
        <ele>642.544</ele>
        <time>2022-08-15T16:40:36Z</time>
      </trkpt>
      <trkpt lat="43.58788" lon="6.30454">
        <ele>642.346</ele>
        <time>2022-08-15T16:40:37Z</time>
      </trkpt>
      <trkpt lat="43.5879" lon="6.30451">
        <ele>642.735</ele>
        <time>2022-08-15T16:40:40Z</time>
      </trkpt>
      <trkpt lat="43.58795" lon="6.3044">
        <ele>642.844</ele>
        <time>2022-08-15T16:40:49Z</time>
      </trkpt>
      <trkpt lat="43.58795" lon="6.3044">
        <ele>642.795</ele>
        <time>2022-08-15T16:40:50Z</time>
      </trkpt>
      <trkpt lat="43.58795" lon="6.3044">
        <ele>642.644</ele>
        <time>2022-08-15T16:40:55Z</time>
      </trkpt>
      <trkpt lat="43.58795" lon="6.30439">
        <ele>642.87</ele>
        <time>2022-08-15T16:40:56Z</time>
      </trkpt>
      <trkpt lat="43.58795" lon="6.30438">
        <ele>642.995</ele>
        <time>2022-08-15T16:40:57Z</time>
      </trkpt>
      <trkpt lat="43.58795" lon="6.30437">
        <ele>642.467</ele>
        <time>2022-08-15T16:41:00Z</time>
      </trkpt>
      <trkpt lat="43.58795" lon="6.30437">
        <ele>642.416</ele>
        <time>2022-08-15T16:41:01Z</time>
      </trkpt>
      <trkpt lat="43.58795" lon="6.30437">
        <ele>642.506</ele>
        <time>2022-08-15T16:41:02Z</time>
      </trkpt>
      <trkpt lat="43.58795" lon="6.30437">
        <ele>642.455</ele>
        <time>2022-08-15T16:41:04Z</time>
      </trkpt>
      <trkpt lat="43.58795" lon="6.30438">
        <ele>642.706</ele>
        <time>2022-08-15T16:41:05Z</time>
      </trkpt>
      <trkpt lat="43.58795" lon="6.30438">
        <ele>642.977</ele>
        <time>2022-08-15T16:41:07Z</time>
      </trkpt>
      <trkpt lat="43.58795" lon="6.30438">
        <ele>642.994</ele>
        <time>2022-08-15T16:41:12Z</time>
      </trkpt>
      <trkpt lat="43.58795" lon="6.30437">
        <ele>643.048</ele>
        <time>2022-08-15T16:41:13Z</time>
      </trkpt>
      <trkpt lat="43.58795" lon="6.30437">
        <ele>643.053</ele>
        <time>2022-08-15T16:41:14Z</time>
      </trkpt>
      <trkpt lat="43.58795" lon="6.30437">
        <ele>643.054</ele>
        <time>2022-08-15T16:41:16Z</time>
      </trkpt>
      <trkpt lat="43.58795" lon="6.30437">
        <ele>643.016</ele>
        <time>2022-08-15T16:41:17Z</time>
      </trkpt>
      <trkpt lat="43.58795" lon="6.30437">
        <ele>643.013</ele>
        <time>2022-08-15T16:41:18Z</time>
      </trkpt>
      <trkpt lat="43.58795" lon="6.30437">
        <ele>643.022</ele>
        <time>2022-08-15T16:41:23Z</time>
      </trkpt>
      <trkpt lat="43.58795" lon="6.30438">
        <ele>643.43</ele>
        <time>2022-08-15T16:41:24Z</time>
      </trkpt>
      <trkpt lat="43.58795" lon="6.30438">
        <ele>643.444</ele>
        <time>2022-08-15T16:41:25Z</time>
      </trkpt>
      <trkpt lat="43.58795" lon="6.30438">
        <ele>643.532</ele>
        <time>2022-08-15T16:41:45Z</time>
      </trkpt>
      <trkpt lat="43.58795" lon="6.3044">
        <ele>644.601</ele>
        <time>2022-08-15T16:41:46Z</time>
      </trkpt>
      <trkpt lat="43.58795" lon="6.3044">
        <ele>644.759</ele>
        <time>2022-08-15T16:41:47Z</time>
      </trkpt>
      <trkpt lat="43.58795" lon="6.3044">
        <ele>644.58</ele>
        <time>2022-08-15T16:41:49Z</time>
      </trkpt>
      <trkpt lat="43.58795" lon="6.3044">
        <ele>644.581</ele>
        <time>2022-08-15T16:41:52Z</time>
      </trkpt>
      <trkpt lat="43.58795" lon="6.3044">
        <ele>644.878</ele>
        <time>2022-08-15T16:41:53Z</time>
      </trkpt>
      <trkpt lat="43.58795" lon="6.3044">
        <ele>644.878</ele>
        <time>2022-08-15T16:41:53Z</time>
      </trkpt>
      <trkpt lat="43.58795" lon="6.3044">
        <ele>644.876</ele>
        <time>2022-08-15T16:41:54Z</time>
      </trkpt>
      <trkpt lat="43.58795" lon="6.3044">
        <ele>644.833</ele>
        <time>2022-08-15T16:42:16Z</time>
      </trkpt>
      <trkpt lat="43.58795" lon="6.3044">
        <ele>644.542</ele>
        <time>2022-08-15T16:42:17Z</time>
      </trkpt>
      <trkpt lat="43.58795" lon="6.3044">
        <ele>644.459</ele>
        <time>2022-08-15T16:42:18Z</time>
      </trkpt>
      <trkpt lat="43.58795" lon="6.3044">
        <ele>644.461</ele>
        <time>2022-08-15T16:42:19Z</time>
      </trkpt>
      <trkpt lat="43.58795" lon="6.3044">
        <ele>644.926</ele>
        <time>2022-08-15T16:42:22Z</time>
      </trkpt>
      <trkpt lat="43.58795" lon="6.3044">
        <ele>645.039</ele>
        <time>2022-08-15T16:42:23Z</time>
      </trkpt>
      <trkpt lat="43.58798" lon="6.30439">
        <ele>643.43</ele>
        <time>2022-08-15T16:42:30Z</time>
      </trkpt>
      <trkpt lat="43.58798" lon="6.30439">
        <ele>643.43</ele>
        <time>2022-08-15T16:42:30Z</time>
      </trkpt>
      <trkpt lat="43.58798" lon="6.30439">
        <ele>643.399</ele>
        <time>2022-08-15T16:42:31Z</time>
      </trkpt>
      <trkpt lat="43.58798" lon="6.30439">
        <ele>644.276</ele>
        <time>2022-08-15T16:42:43Z</time>
      </trkpt>
      <trkpt lat="43.58798" lon="6.30439">
        <ele>643.942</ele>
        <time>2022-08-15T16:42:44Z</time>
      </trkpt>
      <trkpt lat="43.58798" lon="6.30439">
        <ele>643.947</ele>
        <time>2022-08-15T16:42:45Z</time>
      </trkpt>
      <trkpt lat="43.58798" lon="6.30439">
        <ele>643.74</ele>
        <time>2022-08-15T16:42:47Z</time>
      </trkpt>
      <trkpt lat="43.58799" lon="6.3044">
        <ele>643.82</ele>
        <time>2022-08-15T16:42:48Z</time>
      </trkpt>
      <trkpt lat="43.58799" lon="6.3044">
        <ele>643.488</ele>
        <time>2022-08-15T16:42:49Z</time>
      </trkpt>
      <trkpt lat="43.58799" lon="6.3044">
        <ele>643.488</ele>
        <time>2022-08-15T16:42:49Z</time>
      </trkpt>
      <trkpt lat="43.58799" lon="6.30441">
        <ele>642.333</ele>
        <time>2022-08-15T16:42:50Z</time>
      </trkpt>
      <trkpt lat="43.58799" lon="6.30441">
        <ele>642.524</ele>
        <time>2022-08-15T16:42:52Z</time>
      </trkpt>
      <trkpt lat="43.58799" lon="6.30441">
        <ele>642.518</ele>
        <time>2022-08-15T16:43:25Z</time>
      </trkpt>
      <trkpt lat="43.58799" lon="6.30441">
        <ele>642.479</ele>
        <time>2022-08-15T16:43:26Z</time>
      </trkpt>
      <trkpt lat="43.58799" lon="6.30441">
        <ele>642.873</ele>
        <time>2022-08-15T16:43:28Z</time>
      </trkpt>
      <trkpt lat="43.58799" lon="6.30441">
        <ele>643.097</ele>
        <time>2022-08-15T16:43:53Z</time>
      </trkpt>
      <trkpt lat="43.58799" lon="6.30441">
        <ele>643.057</ele>
        <time>2022-08-15T16:43:54Z</time>
      </trkpt>
      <trkpt lat="43.58796" lon="6.30443">
        <ele>644.078</ele>
        <time>2022-08-15T16:43:58Z</time>
      </trkpt>
      <trkpt lat="43.58794" lon="6.30448">
        <ele>645.271</ele>
        <time>2022-08-15T16:44:02Z</time>
      </trkpt>
      <trkpt lat="43.58791" lon="6.30451">
        <ele>645.716</ele>
        <time>2022-08-15T16:44:06Z</time>
      </trkpt>
      <trkpt lat="43.58792" lon="6.3045">
        <ele>646.418</ele>
        <time>2022-08-15T16:44:09Z</time>
      </trkpt>
      <trkpt lat="43.58794" lon="6.30448">
        <ele>647.424</ele>
        <time>2022-08-15T16:44:11Z</time>
      </trkpt>
      <trkpt lat="43.58796" lon="6.30445">
        <ele>647.586</ele>
        <time>2022-08-15T16:44:13Z</time>
      </trkpt>
      <trkpt lat="43.58805" lon="6.3044">
        <ele>649.221</ele>
        <time>2022-08-15T16:44:22Z</time>
      </trkpt>
      <trkpt lat="43.58809" lon="6.3044">
        <ele>648.76</ele>
        <time>2022-08-15T16:44:25Z</time>
      </trkpt>
      <trkpt lat="43.58815" lon="6.3044">
        <ele>649.169</ele>
        <time>2022-08-15T16:44:32Z</time>
      </trkpt>
      <trkpt lat="43.58819" lon="6.30437">
        <ele>650.879</ele>
        <time>2022-08-15T16:44:36Z</time>
      </trkpt>
      <trkpt lat="43.58822" lon="6.30433">
        <ele>652.49</ele>
        <time>2022-08-15T16:44:41Z</time>
      </trkpt>
      <trkpt lat="43.58822" lon="6.30433">
        <ele>652.519</ele>
        <time>2022-08-15T16:44:42Z</time>
      </trkpt>
      <trkpt lat="43.58822" lon="6.30433">
        <ele>652.965</ele>
        <time>2022-08-15T16:44:44Z</time>
      </trkpt>
      <trkpt lat="43.58823" lon="6.30432">
        <ele>653.065</ele>
        <time>2022-08-15T16:44:45Z</time>
      </trkpt>
      <trkpt lat="43.58823" lon="6.30432">
        <ele>653.297</ele>
        <time>2022-08-15T16:44:46Z</time>
      </trkpt>
      <trkpt lat="43.58824" lon="6.30431">
        <ele>653.846</ele>
        <time>2022-08-15T16:44:48Z</time>
      </trkpt>
      <trkpt lat="43.58825" lon="6.30431">
        <ele>654.037</ele>
        <time>2022-08-15T16:44:50Z</time>
      </trkpt>
      <trkpt lat="43.58825" lon="6.30431">
        <ele>654.037</ele>
        <time>2022-08-15T16:44:50Z</time>
      </trkpt>
      <trkpt lat="43.58825" lon="6.30431">
        <ele>654.292</ele>
        <time>2022-08-15T16:44:51Z</time>
      </trkpt>
      <trkpt lat="43.58825" lon="6.3043">
        <ele>654.043</ele>
        <time>2022-08-15T16:44:54Z</time>
      </trkpt>
      <trkpt lat="43.58826" lon="6.30429">
        <ele>653.698</ele>
        <time>2022-08-15T16:44:58Z</time>
      </trkpt>
      <trkpt lat="43.58826" lon="6.30428">
        <ele>653.402</ele>
        <time>2022-08-15T16:44:59Z</time>
      </trkpt>
      <trkpt lat="43.58828" lon="6.30424">
        <ele>653.928</ele>
        <time>2022-08-15T16:45:05Z</time>
      </trkpt>
      <trkpt lat="43.58828" lon="6.30423">
        <ele>654.403</ele>
        <time>2022-08-15T16:45:07Z</time>
      </trkpt>
      <trkpt lat="43.58829" lon="6.30419">
        <ele>654.833</ele>
        <time>2022-08-15T16:45:11Z</time>
      </trkpt>
      <trkpt lat="43.58831" lon="6.30416">
        <ele>655.069</ele>
        <time>2022-08-15T16:45:14Z</time>
      </trkpt>
      <trkpt lat="43.58833" lon="6.30414">
        <ele>655.084</ele>
        <time>2022-08-15T16:45:17Z</time>
      </trkpt>
      <trkpt lat="43.58837" lon="6.30404">
        <ele>654.521</ele>
        <time>2022-08-15T16:45:26Z</time>
      </trkpt>
      <trkpt lat="43.58838" lon="6.30401">
        <ele>654.603</ele>
        <time>2022-08-15T16:45:29Z</time>
      </trkpt>
      <trkpt lat="43.58841" lon="6.30396">
        <ele>654.313</ele>
        <time>2022-08-15T16:45:34Z</time>
      </trkpt>
      <trkpt lat="43.58841" lon="6.30395">
        <ele>654.146</ele>
        <time>2022-08-15T16:45:37Z</time>
      </trkpt>
      <trkpt lat="43.58841" lon="6.30395">
        <ele>654.146</ele>
        <time>2022-08-15T16:45:37Z</time>
      </trkpt>
      <trkpt lat="43.58842" lon="6.30394">
        <ele>654.038</ele>
        <time>2022-08-15T16:45:38Z</time>
      </trkpt>
      <trkpt lat="43.58842" lon="6.30392">
        <ele>654.063</ele>
        <time>2022-08-15T16:45:41Z</time>
      </trkpt>
      <trkpt lat="43.58843" lon="6.30392">
        <ele>654.034</ele>
        <time>2022-08-15T16:45:43Z</time>
      </trkpt>
      <trkpt lat="43.58844" lon="6.30389">
        <ele>654.245</ele>
        <time>2022-08-15T16:45:46Z</time>
      </trkpt>
      <trkpt lat="43.58848" lon="6.3038">
        <ele>653.618</ele>
        <time>2022-08-15T16:45:56Z</time>
      </trkpt>
      <trkpt lat="43.5885" lon="6.30375">
        <ele>653.239</ele>
        <time>2022-08-15T16:46:02Z</time>
      </trkpt>
      <trkpt lat="43.58851" lon="6.30374">
        <ele>652.829</ele>
        <time>2022-08-15T16:46:03Z</time>
      </trkpt>
      <trkpt lat="43.5886" lon="6.30357">
        <ele>651.083</ele>
        <time>2022-08-15T16:46:21Z</time>
      </trkpt>
      <trkpt lat="43.58863" lon="6.30354">
        <ele>650.259</ele>
        <time>2022-08-15T16:46:26Z</time>
      </trkpt>
      <trkpt lat="43.58864" lon="6.30352">
        <ele>649.014</ele>
        <time>2022-08-15T16:46:30Z</time>
      </trkpt>
      <trkpt lat="43.58867" lon="6.30351">
        <ele>648.134</ele>
        <time>2022-08-15T16:46:34Z</time>
      </trkpt>
      <trkpt lat="43.58867" lon="6.30351">
        <ele>647.131</ele>
        <time>2022-08-15T16:46:36Z</time>
      </trkpt>
      <trkpt lat="43.58867" lon="6.3035">
        <ele>646.518</ele>
        <time>2022-08-15T16:46:38Z</time>
      </trkpt>
      <trkpt lat="43.58867" lon="6.30348">
        <ele>645.938</ele>
        <time>2022-08-15T16:46:42Z</time>
      </trkpt>
      <trkpt lat="43.58867" lon="6.30347">
        <ele>645.704</ele>
        <time>2022-08-15T16:46:43Z</time>
      </trkpt>
      <trkpt lat="43.58866" lon="6.30344">
        <ele>644.626</ele>
        <time>2022-08-15T16:46:46Z</time>
      </trkpt>
      <trkpt lat="43.58866" lon="6.30344">
        <ele>644.354</ele>
        <time>2022-08-15T16:46:47Z</time>
      </trkpt>
      <trkpt lat="43.58867" lon="6.30342">
        <ele>643.894</ele>
        <time>2022-08-15T16:46:49Z</time>
      </trkpt>
      <trkpt lat="43.58869" lon="6.30339">
        <ele>644.062</ele>
        <time>2022-08-15T16:46:53Z</time>
      </trkpt>
      <trkpt lat="43.58871" lon="6.30336">
        <ele>643.109</ele>
        <time>2022-08-15T16:46:58Z</time>
      </trkpt>
      <trkpt lat="43.58872" lon="6.30332">
        <ele>642.74</ele>
        <time>2022-08-15T16:47:02Z</time>
      </trkpt>
      <trkpt lat="43.58872" lon="6.30332">
        <ele>642.832</ele>
        <time>2022-08-15T16:47:03Z</time>
      </trkpt>
      <trkpt lat="43.58875" lon="6.30325">
        <ele>641.596</ele>
        <time>2022-08-15T16:47:11Z</time>
      </trkpt>
      <trkpt lat="43.58875" lon="6.30325">
        <ele>641.517</ele>
        <time>2022-08-15T16:47:12Z</time>
      </trkpt>
      <trkpt lat="43.58875" lon="6.30325">
        <ele>641.517</ele>
        <time>2022-08-15T16:47:12Z</time>
      </trkpt>
      <trkpt lat="43.58875" lon="6.30324">
        <ele>641.403</ele>
        <time>2022-08-15T16:47:13Z</time>
      </trkpt>
      <trkpt lat="43.58875" lon="6.30323">
        <ele>641.233</ele>
        <time>2022-08-15T16:47:15Z</time>
      </trkpt>
      <trkpt lat="43.58876" lon="6.3032">
        <ele>641.264</ele>
        <time>2022-08-15T16:47:18Z</time>
      </trkpt>
      <trkpt lat="43.58876" lon="6.3032">
        <ele>641.075</ele>
        <time>2022-08-15T16:47:19Z</time>
      </trkpt>
      <trkpt lat="43.5888" lon="6.30313">
        <ele>640.942</ele>
        <time>2022-08-15T16:47:26Z</time>
      </trkpt>
      <trkpt lat="43.5888" lon="6.30313">
        <ele>641.014</ele>
        <time>2022-08-15T16:47:27Z</time>
      </trkpt>
      <trkpt lat="43.58881" lon="6.30314">
        <ele>641.049</ele>
        <time>2022-08-15T16:47:28Z</time>
      </trkpt>
      <trkpt lat="43.58881" lon="6.30314">
        <ele>641.104</ele>
        <time>2022-08-15T16:47:29Z</time>
      </trkpt>
      <trkpt lat="43.58881" lon="6.30314">
        <ele>641.104</ele>
        <time>2022-08-15T16:47:29Z</time>
      </trkpt>
      <trkpt lat="43.58881" lon="6.30314">
        <ele>641.163</ele>
        <time>2022-08-15T16:47:30Z</time>
      </trkpt>
      <trkpt lat="43.58882" lon="6.30314">
        <ele>641.108</ele>
        <time>2022-08-15T16:47:31Z</time>
      </trkpt>
      <trkpt lat="43.58884" lon="6.30312">
        <ele>641.31</ele>
        <time>2022-08-15T16:47:34Z</time>
      </trkpt>
      <trkpt lat="43.58884" lon="6.30313">
        <ele>640.561</ele>
        <time>2022-08-15T16:47:35Z</time>
      </trkpt>
      <trkpt lat="43.58885" lon="6.30315">
        <ele>640.176</ele>
        <time>2022-08-15T16:47:37Z</time>
      </trkpt>
      <trkpt lat="43.58885" lon="6.30315">
        <ele>640.109</ele>
        <time>2022-08-15T16:47:38Z</time>
      </trkpt>
      <trkpt lat="43.58885" lon="6.30315">
        <ele>640.183</ele>
        <time>2022-08-15T16:47:42Z</time>
      </trkpt>
      <trkpt lat="43.58885" lon="6.30318">
        <ele>640.381</ele>
        <time>2022-08-15T16:47:43Z</time>
      </trkpt>
      <trkpt lat="43.58885" lon="6.30318">
        <ele>640.564</ele>
        <time>2022-08-15T16:47:44Z</time>
      </trkpt>
      <trkpt lat="43.58886" lon="6.30319">
        <ele>640.379</ele>
        <time>2022-08-15T16:47:45Z</time>
      </trkpt>
      <trkpt lat="43.58887" lon="6.30319">
        <ele>640.532</ele>
        <time>2022-08-15T16:47:46Z</time>
      </trkpt>
      <trkpt lat="43.58891" lon="6.30319">
        <ele>640.208</ele>
        <time>2022-08-15T16:47:50Z</time>
      </trkpt>
      <trkpt lat="43.58894" lon="6.30315">
        <ele>639.081</ele>
        <time>2022-08-15T16:47:54Z</time>
      </trkpt>
      <trkpt lat="43.58893" lon="6.30313">
        <ele>638.803</ele>
        <time>2022-08-15T16:47:56Z</time>
      </trkpt>
      <trkpt lat="43.58893" lon="6.30313">
        <ele>638.975</ele>
        <time>2022-08-15T16:47:58Z</time>
      </trkpt>
      <trkpt lat="43.58893" lon="6.30313">
        <ele>638.979</ele>
        <time>2022-08-15T16:47:59Z</time>
      </trkpt>
      <trkpt lat="43.58893" lon="6.30313">
        <ele>638.962</ele>
        <time>2022-08-15T16:48:09Z</time>
      </trkpt>
      <trkpt lat="43.58892" lon="6.30314">
        <ele>638.649</ele>
        <time>2022-08-15T16:48:10Z</time>
      </trkpt>
      <trkpt lat="43.58892" lon="6.30314">
        <ele>638.258</ele>
        <time>2022-08-15T16:48:11Z</time>
      </trkpt>
      <trkpt lat="43.58894" lon="6.30314">
        <ele>637.676</ele>
        <time>2022-08-15T16:48:14Z</time>
      </trkpt>
      <trkpt lat="43.58894" lon="6.30314">
        <ele>637.822</ele>
        <time>2022-08-15T16:48:16Z</time>
      </trkpt>
      <trkpt lat="43.58893" lon="6.30315">
        <ele>637.892</ele>
        <time>2022-08-15T16:48:17Z</time>
      </trkpt>
      <trkpt lat="43.58893" lon="6.30315">
        <ele>637.892</ele>
        <time>2022-08-15T16:48:17Z</time>
      </trkpt>
      <trkpt lat="43.58893" lon="6.30315">
        <ele>637.886</ele>
        <time>2022-08-15T16:48:18Z</time>
      </trkpt>
      <trkpt lat="43.58893" lon="6.30315">
        <ele>637.706</ele>
        <time>2022-08-15T16:48:25Z</time>
      </trkpt>
      <trkpt lat="43.58893" lon="6.30316">
        <ele>637.691</ele>
        <time>2022-08-15T16:48:26Z</time>
      </trkpt>
      <trkpt lat="43.58892" lon="6.30318">
        <ele>637.412</ele>
        <time>2022-08-15T16:48:29Z</time>
      </trkpt>
      <trkpt lat="43.58892" lon="6.30318">
        <ele>637.552</ele>
        <time>2022-08-15T16:48:30Z</time>
      </trkpt>
      <trkpt lat="43.58892" lon="6.30318">
        <ele>637.08</ele>
        <time>2022-08-15T16:48:32Z</time>
      </trkpt>
      <trkpt lat="43.58892" lon="6.30318">
        <ele>637.11</ele>
        <time>2022-08-15T16:48:33Z</time>
      </trkpt>
      <trkpt lat="43.58892" lon="6.30317">
        <ele>637.652</ele>
        <time>2022-08-15T16:48:34Z</time>
      </trkpt>
      <trkpt lat="43.58892" lon="6.30317">
        <ele>637.552</ele>
        <time>2022-08-15T16:48:35Z</time>
      </trkpt>
      <trkpt lat="43.58893" lon="6.30317">
        <ele>637.591</ele>
        <time>2022-08-15T16:48:37Z</time>
      </trkpt>
      <trkpt lat="43.58893" lon="6.30317">
        <ele>637.571</ele>
        <time>2022-08-15T16:48:38Z</time>
      </trkpt>
      <trkpt lat="43.58894" lon="6.30318">
        <ele>637.702</ele>
        <time>2022-08-15T16:48:41Z</time>
      </trkpt>
      <trkpt lat="43.58894" lon="6.30318">
        <ele>637.806</ele>
        <time>2022-08-15T16:48:42Z</time>
      </trkpt>
      <trkpt lat="43.58893" lon="6.30317">
        <ele>637.993</ele>
        <time>2022-08-15T16:48:43Z</time>
      </trkpt>
      <trkpt lat="43.58893" lon="6.30317">
        <ele>638.217</ele>
        <time>2022-08-15T16:48:44Z</time>
      </trkpt>
      <trkpt lat="43.58893" lon="6.30317">
        <ele>638.217</ele>
        <time>2022-08-15T16:48:44Z</time>
      </trkpt>
      <trkpt lat="43.58893" lon="6.30315">
        <ele>638.034</ele>
        <time>2022-08-15T16:48:45Z</time>
      </trkpt>
      <trkpt lat="43.58893" lon="6.30315">
        <ele>638.27</ele>
        <time>2022-08-15T16:48:46Z</time>
      </trkpt>
      <trkpt lat="43.58893" lon="6.30315">
        <ele>638.285</ele>
        <time>2022-08-15T16:48:47Z</time>
      </trkpt>
      <trkpt lat="43.58893" lon="6.30315">
        <ele>637.895</ele>
        <time>2022-08-15T16:48:49Z</time>
      </trkpt>
      <trkpt lat="43.58892" lon="6.30316">
        <ele>637.983</ele>
        <time>2022-08-15T16:48:50Z</time>
      </trkpt>
      <trkpt lat="43.58892" lon="6.30316">
        <ele>637.959</ele>
        <time>2022-08-15T16:48:51Z</time>
      </trkpt>
      <trkpt lat="43.58892" lon="6.30316">
        <ele>637.959</ele>
        <time>2022-08-15T16:48:51Z</time>
      </trkpt>
      <trkpt lat="43.58891" lon="6.30316">
        <ele>637.399</ele>
        <time>2022-08-15T16:48:52Z</time>
      </trkpt>
      <trkpt lat="43.58891" lon="6.30316">
        <ele>637.379</ele>
        <time>2022-08-15T16:48:53Z</time>
      </trkpt>
      <trkpt lat="43.58891" lon="6.30316">
        <ele>637.63</ele>
        <time>2022-08-15T16:48:54Z</time>
      </trkpt>
      <trkpt lat="43.58891" lon="6.30316">
        <ele>638.161</ele>
        <time>2022-08-15T16:48:57Z</time>
      </trkpt>
      <trkpt lat="43.58892" lon="6.30317">
        <ele>638.152</ele>
        <time>2022-08-15T16:48:58Z</time>
      </trkpt>
      <trkpt lat="43.58892" lon="6.30316">
        <ele>638.327</ele>
        <time>2022-08-15T16:48:59Z</time>
      </trkpt>
      <trkpt lat="43.58891" lon="6.30313">
        <ele>638.631</ele>
        <time>2022-08-15T16:49:03Z</time>
      </trkpt>
      <trkpt lat="43.5889" lon="6.30313">
        <ele>638.69</ele>
        <time>2022-08-15T16:49:06Z</time>
      </trkpt>
      <trkpt lat="43.58889" lon="6.30313">
        <ele>638.27</ele>
        <time>2022-08-15T16:49:07Z</time>
      </trkpt>
      <trkpt lat="43.58886" lon="6.30312">
        <ele>636.457</ele>
        <time>2022-08-15T16:49:11Z</time>
      </trkpt>
      <trkpt lat="43.58881" lon="6.30306">
        <ele>638.273</ele>
        <time>2022-08-15T16:49:20Z</time>
      </trkpt>
      <trkpt lat="43.5888" lon="6.30304">
        <ele>639.388</ele>
        <time>2022-08-15T16:49:23Z</time>
      </trkpt>
      <trkpt lat="43.58879" lon="6.30304">
        <ele>639.891</ele>
        <time>2022-08-15T16:49:25Z</time>
      </trkpt>
      <trkpt lat="43.58879" lon="6.30301">
        <ele>639.912</ele>
        <time>2022-08-15T16:49:28Z</time>
      </trkpt>
      <trkpt lat="43.58878" lon="6.30297">
        <ele>640.326</ele>
        <time>2022-08-15T16:49:31Z</time>
      </trkpt>
      <trkpt lat="43.58876" lon="6.30293">
        <ele>639.637</ele>
        <time>2022-08-15T16:49:37Z</time>
      </trkpt>
      <trkpt lat="43.58875" lon="6.30293">
        <ele>640.1</ele>
        <time>2022-08-15T16:49:38Z</time>
      </trkpt>
      <trkpt lat="43.58875" lon="6.30293">
        <ele>639.5</ele>
        <time>2022-08-15T16:49:39Z</time>
      </trkpt>
      <trkpt lat="43.58875" lon="6.30293">
        <ele>639.318</ele>
        <time>2022-08-15T16:49:40Z</time>
      </trkpt>
      <trkpt lat="43.58875" lon="6.30292">
        <ele>639.299</ele>
        <time>2022-08-15T16:49:41Z</time>
      </trkpt>
      <trkpt lat="43.58875" lon="6.30292">
        <ele>638.881</ele>
        <time>2022-08-15T16:49:42Z</time>
      </trkpt>
      <trkpt lat="43.58875" lon="6.30293">
        <ele>638.702</ele>
        <time>2022-08-15T16:49:43Z</time>
      </trkpt>
      <trkpt lat="43.58876" lon="6.30297">
        <ele>638.548</ele>
        <time>2022-08-15T16:49:45Z</time>
      </trkpt>
      <trkpt lat="43.58873" lon="6.303">
        <ele>638.329</ele>
        <time>2022-08-15T16:49:48Z</time>
      </trkpt>
      <trkpt lat="43.58872" lon="6.303">
        <ele>637.896</ele>
        <time>2022-08-15T16:49:50Z</time>
      </trkpt>
      <trkpt lat="43.58872" lon="6.303">
        <ele>637.896</ele>
        <time>2022-08-15T16:49:50Z</time>
      </trkpt>
      <trkpt lat="43.58873" lon="6.30298">
        <ele>637.379</ele>
        <time>2022-08-15T16:49:51Z</time>
      </trkpt>
      <trkpt lat="43.58873" lon="6.30295">
        <ele>638.724</ele>
        <time>2022-08-15T16:49:53Z</time>
      </trkpt>
      <trkpt lat="43.58872" lon="6.30292">
        <ele>636.127</ele>
        <time>2022-08-15T16:49:55Z</time>
      </trkpt>
      <trkpt lat="43.58871" lon="6.30288">
        <ele>636.779</ele>
        <time>2022-08-15T16:49:58Z</time>
      </trkpt>
      <trkpt lat="43.58871" lon="6.30287">
        <ele>637.095</ele>
        <time>2022-08-15T16:49:59Z</time>
      </trkpt>
      <trkpt lat="43.58869" lon="6.30284">
        <ele>639.06</ele>
        <time>2022-08-15T16:50:03Z</time>
      </trkpt>
      <trkpt lat="43.58868" lon="6.30284">
        <ele>641.068</ele>
        <time>2022-08-15T16:50:06Z</time>
      </trkpt>
      <trkpt lat="43.58868" lon="6.30284">
        <ele>641.572</ele>
        <time>2022-08-15T16:50:08Z</time>
      </trkpt>
      <trkpt lat="43.58868" lon="6.30284">
        <ele>641.572</ele>
        <time>2022-08-15T16:50:08Z</time>
      </trkpt>
      <trkpt lat="43.58869" lon="6.30285">
        <ele>642.351</ele>
        <time>2022-08-15T16:50:09Z</time>
      </trkpt>
      <trkpt lat="43.58871" lon="6.30286">
        <ele>641.702</ele>
        <time>2022-08-15T16:50:10Z</time>
      </trkpt>
      <trkpt lat="43.58873" lon="6.30286">
        <ele>642.005</ele>
        <time>2022-08-15T16:50:12Z</time>
      </trkpt>
      <trkpt lat="43.58872" lon="6.30285">
        <ele>641.81</ele>
        <time>2022-08-15T16:50:13Z</time>
      </trkpt>
      <trkpt lat="43.58872" lon="6.30285">
        <ele>641.163</ele>
        <time>2022-08-15T16:50:14Z</time>
      </trkpt>
      <trkpt lat="43.58872" lon="6.30285">
        <ele>641.163</ele>
        <time>2022-08-15T16:50:14Z</time>
      </trkpt>
      <trkpt lat="43.58871" lon="6.30283">
        <ele>641.996</ele>
        <time>2022-08-15T16:50:15Z</time>
      </trkpt>
      <trkpt lat="43.58869" lon="6.30283">
        <ele>642.238</ele>
        <time>2022-08-15T16:50:17Z</time>
      </trkpt>
      <trkpt lat="43.5887" lon="6.30283">
        <ele>641.469</ele>
        <time>2022-08-15T16:50:20Z</time>
      </trkpt>
      <trkpt lat="43.5887" lon="6.30283">
        <ele>641.469</ele>
        <time>2022-08-15T16:50:20Z</time>
      </trkpt>
      <trkpt lat="43.5887" lon="6.30283">
        <ele>641.722</ele>
        <time>2022-08-15T16:50:21Z</time>
      </trkpt>
      <trkpt lat="43.5887" lon="6.30283">
        <ele>641.463</ele>
        <time>2022-08-15T16:50:33Z</time>
      </trkpt>
      <trkpt lat="43.58867" lon="6.30283">
        <ele>641.177</ele>
        <time>2022-08-15T16:50:34Z</time>
      </trkpt>
      <trkpt lat="43.58862" lon="6.30285">
        <ele>637.284</ele>
        <time>2022-08-15T16:50:39Z</time>
      </trkpt>
      <trkpt lat="43.5886" lon="6.30287">
        <ele>638.377</ele>
        <time>2022-08-15T16:50:42Z</time>
      </trkpt>
      <trkpt lat="43.5886" lon="6.30287">
        <ele>638.472</ele>
        <time>2022-08-15T16:50:43Z</time>
      </trkpt>
      <trkpt lat="43.5886" lon="6.30287">
        <ele>636.336</ele>
        <time>2022-08-15T16:50:44Z</time>
      </trkpt>
      <trkpt lat="43.5886" lon="6.30287">
        <ele>635.477</ele>
        <time>2022-08-15T16:50:46Z</time>
      </trkpt>
      <trkpt lat="43.58859" lon="6.30289">
        <ele>635.674</ele>
        <time>2022-08-15T16:50:47Z</time>
      </trkpt>
      <trkpt lat="43.58859" lon="6.30289">
        <ele>635.933</ele>
        <time>2022-08-15T16:50:48Z</time>
      </trkpt>
      <trkpt lat="43.58859" lon="6.30289">
        <ele>635.933</ele>
        <time>2022-08-15T16:50:48Z</time>
      </trkpt>
      <trkpt lat="43.58859" lon="6.30289">
        <ele>636.053</ele>
        <time>2022-08-15T16:50:49Z</time>
      </trkpt>
      <trkpt lat="43.58859" lon="6.30289">
        <ele>636.053</ele>
        <time>2022-08-15T16:50:49Z</time>
      </trkpt>
      <trkpt lat="43.58859" lon="6.30289">
        <ele>636.452</ele>
        <time>2022-08-15T16:50:50Z</time>
      </trkpt>
      <trkpt lat="43.58859" lon="6.30289">
        <ele>636.452</ele>
        <time>2022-08-15T16:50:50Z</time>
      </trkpt>
      <trkpt lat="43.58859" lon="6.3029">
        <ele>636.78</ele>
        <time>2022-08-15T16:50:51Z</time>
      </trkpt>
      <trkpt lat="43.5886" lon="6.3029">
        <ele>637.505</ele>
        <time>2022-08-15T16:50:54Z</time>
      </trkpt>
      <trkpt lat="43.5886" lon="6.3029">
        <ele>636.845</ele>
        <time>2022-08-15T16:50:55Z</time>
      </trkpt>
      <trkpt lat="43.5886" lon="6.3029">
        <ele>636.349</ele>
        <time>2022-08-15T16:50:56Z</time>
      </trkpt>
      <trkpt lat="43.58861" lon="6.30289">
        <ele>637.343</ele>
        <time>2022-08-15T16:50:57Z</time>
      </trkpt>
      <trkpt lat="43.58859" lon="6.30286">
        <ele>635.896</ele>
        <time>2022-08-15T16:51:00Z</time>
      </trkpt>
      <trkpt lat="43.58859" lon="6.30286">
        <ele>634.765</ele>
        <time>2022-08-15T16:51:01Z</time>
      </trkpt>
      <trkpt lat="43.58859" lon="6.30286">
        <ele>634.765</ele>
        <time>2022-08-15T16:51:01Z</time>
      </trkpt>
      <trkpt lat="43.58857" lon="6.30287">
        <ele>634.397</ele>
        <time>2022-08-15T16:51:02Z</time>
      </trkpt>
      <trkpt lat="43.58857" lon="6.30287">
        <ele>634.303</ele>
        <time>2022-08-15T16:51:03Z</time>
      </trkpt>
      <trkpt lat="43.58857" lon="6.30287">
        <ele>635.427</ele>
        <time>2022-08-15T16:51:05Z</time>
      </trkpt>
      <trkpt lat="43.58857" lon="6.30288">
        <ele>635.265</ele>
        <time>2022-08-15T16:51:06Z</time>
      </trkpt>
      <trkpt lat="43.58858" lon="6.30289">
        <ele>635.824</ele>
        <time>2022-08-15T16:51:10Z</time>
      </trkpt>
      <trkpt lat="43.58861" lon="6.3029">
        <ele>635.099</ele>
        <time>2022-08-15T16:51:13Z</time>
      </trkpt>
      <trkpt lat="43.58863" lon="6.30293">
        <ele>633.258</ele>
        <time>2022-08-15T16:51:18Z</time>
      </trkpt>
      <trkpt lat="43.58863" lon="6.30289">
        <ele>630.242</ele>
        <time>2022-08-15T16:51:22Z</time>
      </trkpt>
      <trkpt lat="43.58863" lon="6.30287">
        <ele>631.494</ele>
        <time>2022-08-15T16:51:24Z</time>
      </trkpt>
      <trkpt lat="43.58863" lon="6.30287">
        <ele>631.764</ele>
        <time>2022-08-15T16:51:25Z</time>
      </trkpt>
      <trkpt lat="43.58863" lon="6.30287">
        <ele>631.764</ele>
        <time>2022-08-15T16:51:25Z</time>
      </trkpt>
      <trkpt lat="43.58862" lon="6.30285">
        <ele>630.438</ele>
        <time>2022-08-15T16:51:26Z</time>
      </trkpt>
      <trkpt lat="43.58862" lon="6.30285">
        <ele>630.438</ele>
        <time>2022-08-15T16:51:26Z</time>
      </trkpt>
      <trkpt lat="43.58862" lon="6.30284">
        <ele>630.715</ele>
        <time>2022-08-15T16:51:27Z</time>
      </trkpt>
      <trkpt lat="43.58862" lon="6.30283">
        <ele>630.579</ele>
        <time>2022-08-15T16:51:28Z</time>
      </trkpt>
      <trkpt lat="43.58862" lon="6.30283">
        <ele>630.579</ele>
        <time>2022-08-15T16:51:28Z</time>
      </trkpt>
      <trkpt lat="43.58861" lon="6.30282">
        <ele>629.852</ele>
        <time>2022-08-15T16:51:29Z</time>
      </trkpt>
      <trkpt lat="43.58861" lon="6.30281">
        <ele>630.572</ele>
        <time>2022-08-15T16:51:35Z</time>
      </trkpt>
      <trkpt lat="43.58861" lon="6.3028">
        <ele>630.092</ele>
        <time>2022-08-15T16:51:37Z</time>
      </trkpt>
      <trkpt lat="43.58864" lon="6.30278">
        <ele>634.384</ele>
        <time>2022-08-15T16:51:42Z</time>
      </trkpt>
      <trkpt lat="43.58866" lon="6.30278">
        <ele>634.105</ele>
        <time>2022-08-15T16:51:45Z</time>
      </trkpt>
      <trkpt lat="43.58866" lon="6.30278">
        <ele>634.477</ele>
        <time>2022-08-15T16:51:48Z</time>
      </trkpt>
      <trkpt lat="43.58866" lon="6.30278">
        <ele>634.477</ele>
        <time>2022-08-15T16:51:48Z</time>
      </trkpt>
      <trkpt lat="43.58866" lon="6.30278">
        <ele>633.418</ele>
        <time>2022-08-15T16:51:49Z</time>
      </trkpt>
      <trkpt lat="43.58866" lon="6.30278">
        <ele>633.418</ele>
        <time>2022-08-15T16:51:49Z</time>
      </trkpt>
      <trkpt lat="43.58866" lon="6.30279">
        <ele>633.361</ele>
        <time>2022-08-15T16:51:50Z</time>
      </trkpt>
      <trkpt lat="43.58866" lon="6.30279">
        <ele>633.318</ele>
        <time>2022-08-15T16:51:52Z</time>
      </trkpt>
      <trkpt lat="43.58866" lon="6.30279">
        <ele>632.568</ele>
        <time>2022-08-15T16:51:53Z</time>
      </trkpt>
      <trkpt lat="43.58866" lon="6.3028">
        <ele>632.764</ele>
        <time>2022-08-15T16:51:54Z</time>
      </trkpt>
      <trkpt lat="43.58866" lon="6.30281">
        <ele>632.957</ele>
        <time>2022-08-15T16:51:55Z</time>
      </trkpt>
      <trkpt lat="43.58864" lon="6.30281">
        <ele>633.056</ele>
        <time>2022-08-15T16:51:58Z</time>
      </trkpt>
      <trkpt lat="43.58864" lon="6.30281">
        <ele>633.229</ele>
        <time>2022-08-15T16:51:59Z</time>
      </trkpt>
      <trkpt lat="43.58864" lon="6.30281">
        <ele>633.229</ele>
        <time>2022-08-15T16:51:59Z</time>
      </trkpt>
      <trkpt lat="43.58863" lon="6.30281">
        <ele>633.173</ele>
        <time>2022-08-15T16:52:00Z</time>
      </trkpt>
      <trkpt lat="43.58863" lon="6.30281">
        <ele>633.25</ele>
        <time>2022-08-15T16:52:01Z</time>
      </trkpt>
      <trkpt lat="43.58863" lon="6.30281">
        <ele>633.25</ele>
        <time>2022-08-15T16:52:01Z</time>
      </trkpt>
      <trkpt lat="43.58863" lon="6.30281">
        <ele>633.634</ele>
        <time>2022-08-15T16:52:02Z</time>
      </trkpt>
      <trkpt lat="43.58862" lon="6.3028">
        <ele>634.262</ele>
        <time>2022-08-15T16:52:04Z</time>
      </trkpt>
      <trkpt lat="43.58862" lon="6.3028">
        <ele>634.156</ele>
        <time>2022-08-15T16:52:05Z</time>
      </trkpt>
      <trkpt lat="43.58862" lon="6.3028">
        <ele>633.295</ele>
        <time>2022-08-15T16:52:30Z</time>
      </trkpt>
      <trkpt lat="43.58863" lon="6.30278">
        <ele>633.596</ele>
        <time>2022-08-15T16:52:31Z</time>
      </trkpt>
      <trkpt lat="43.58864" lon="6.30273">
        <ele>633.629</ele>
        <time>2022-08-15T16:52:33Z</time>
      </trkpt>
      <trkpt lat="43.58866" lon="6.3027">
        <ele>632.941</ele>
        <time>2022-08-15T16:52:35Z</time>
      </trkpt>
      <trkpt lat="43.5887" lon="6.30264">
        <ele>630.695</ele>
        <time>2022-08-15T16:52:40Z</time>
      </trkpt>
      <trkpt lat="43.58874" lon="6.30264">
        <ele>630.209</ele>
        <time>2022-08-15T16:52:43Z</time>
      </trkpt>
      <trkpt lat="43.58877" lon="6.30263">
        <ele>631.759</ele>
        <time>2022-08-15T16:52:46Z</time>
      </trkpt>
      <trkpt lat="43.58877" lon="6.30263">
        <ele>631.723</ele>
        <time>2022-08-15T16:52:47Z</time>
      </trkpt>
      <trkpt lat="43.58877" lon="6.30263">
        <ele>632.619</ele>
        <time>2022-08-15T16:52:50Z</time>
      </trkpt>
      <trkpt lat="43.58878" lon="6.30262">
        <ele>633.032</ele>
        <time>2022-08-15T16:52:51Z</time>
      </trkpt>
      <trkpt lat="43.58878" lon="6.30262">
        <ele>632.163</ele>
        <time>2022-08-15T16:52:52Z</time>
      </trkpt>
      <trkpt lat="43.58878" lon="6.30262">
        <ele>632.583</ele>
        <time>2022-08-15T16:52:59Z</time>
      </trkpt>
      <trkpt lat="43.58879" lon="6.30265">
        <ele>632.534</ele>
        <time>2022-08-15T16:53:00Z</time>
      </trkpt>
      <trkpt lat="43.58879" lon="6.30265">
        <ele>632.718</ele>
        <time>2022-08-15T16:53:01Z</time>
      </trkpt>
      <trkpt lat="43.58879" lon="6.30265">
        <ele>632.718</ele>
        <time>2022-08-15T16:53:01Z</time>
      </trkpt>
      <trkpt lat="43.5888" lon="6.30265">
        <ele>632.366</ele>
        <time>2022-08-15T16:53:02Z</time>
      </trkpt>
      <trkpt lat="43.5888" lon="6.30265">
        <ele>632.366</ele>
        <time>2022-08-15T16:53:02Z</time>
      </trkpt>
      <trkpt lat="43.5888" lon="6.30265">
        <ele>632.246</ele>
        <time>2022-08-15T16:53:03Z</time>
      </trkpt>
      <trkpt lat="43.5888" lon="6.30265">
        <ele>632.246</ele>
        <time>2022-08-15T16:53:03Z</time>
      </trkpt>
      <trkpt lat="43.5888" lon="6.30265">
        <ele>632.181</ele>
        <time>2022-08-15T16:53:04Z</time>
      </trkpt>
      <trkpt lat="43.5888" lon="6.30266">
        <ele>631.879</ele>
        <time>2022-08-15T16:53:05Z</time>
      </trkpt>
      <trkpt lat="43.5888" lon="6.30266">
        <ele>632.896</ele>
        <time>2022-08-15T16:53:06Z</time>
      </trkpt>
      <trkpt lat="43.5888" lon="6.30266">
        <ele>637.232</ele>
        <time>2022-08-15T16:53:22Z</time>
      </trkpt>
      <trkpt lat="43.58881" lon="6.30268">
        <ele>637.831</ele>
        <time>2022-08-15T16:53:23Z</time>
      </trkpt>
      <trkpt lat="43.58881" lon="6.30268">
        <ele>639.029</ele>
        <time>2022-08-15T16:53:25Z</time>
      </trkpt>
      <trkpt lat="43.58879" lon="6.30268">
        <ele>638.978</ele>
        <time>2022-08-15T16:53:28Z</time>
      </trkpt>
      <trkpt lat="43.58878" lon="6.30267">
        <ele>638.647</ele>
        <time>2022-08-15T16:53:32Z</time>
      </trkpt>
      <trkpt lat="43.58878" lon="6.30267">
        <ele>638.647</ele>
        <time>2022-08-15T16:53:32Z</time>
      </trkpt>
      <trkpt lat="43.58878" lon="6.30266">
        <ele>638.478</ele>
        <time>2022-08-15T16:53:33Z</time>
      </trkpt>
      <trkpt lat="43.58878" lon="6.30266">
        <ele>638.974</ele>
        <time>2022-08-15T16:53:34Z</time>
      </trkpt>
      <trkpt lat="43.58878" lon="6.30266">
        <ele>638.974</ele>
        <time>2022-08-15T16:53:34Z</time>
      </trkpt>
      <trkpt lat="43.58878" lon="6.30266">
        <ele>638.734</ele>
        <time>2022-08-15T16:53:35Z</time>
      </trkpt>
      <trkpt lat="43.58878" lon="6.30266">
        <ele>638.64</ele>
        <time>2022-08-15T16:53:36Z</time>
      </trkpt>
      <trkpt lat="43.58878" lon="6.30266">
        <ele>638.622</ele>
        <time>2022-08-15T16:53:51Z</time>
      </trkpt>
      <trkpt lat="43.58879" lon="6.30266">
        <ele>639.078</ele>
        <time>2022-08-15T16:53:52Z</time>
      </trkpt>
      <trkpt lat="43.5888" lon="6.30268">
        <ele>638.439</ele>
        <time>2022-08-15T16:53:55Z</time>
      </trkpt>
      <trkpt lat="43.58884" lon="6.30273">
        <ele>638.285</ele>
        <time>2022-08-15T16:53:59Z</time>
      </trkpt>
      <trkpt lat="43.58886" lon="6.30274">
        <ele>638.299</ele>
        <time>2022-08-15T16:54:02Z</time>
      </trkpt>
      <trkpt lat="43.58889" lon="6.30275">
        <ele>639.121</ele>
        <time>2022-08-15T16:54:07Z</time>
      </trkpt>
      <trkpt lat="43.58891" lon="6.30273">
        <ele>637.752</ele>
        <time>2022-08-15T16:54:11Z</time>
      </trkpt>
      <trkpt lat="43.58895" lon="6.30273">
        <ele>637.018</ele>
        <time>2022-08-15T16:54:15Z</time>
      </trkpt>
      <trkpt lat="43.58897" lon="6.30276">
        <ele>638.33</ele>
        <time>2022-08-15T16:54:19Z</time>
      </trkpt>
      <trkpt lat="43.58899" lon="6.30279">
        <ele>638.737</ele>
        <time>2022-08-15T16:54:23Z</time>
      </trkpt>
      <trkpt lat="43.589" lon="6.30279">
        <ele>637.233</ele>
        <time>2022-08-15T16:54:25Z</time>
      </trkpt>
      <trkpt lat="43.589" lon="6.30278">
        <ele>637.906</ele>
        <time>2022-08-15T16:54:26Z</time>
      </trkpt>
      <trkpt lat="43.589" lon="6.30278">
        <ele>637.916</ele>
        <time>2022-08-15T16:54:28Z</time>
      </trkpt>
      <trkpt lat="43.589" lon="6.30278">
        <ele>637.916</ele>
        <time>2022-08-15T16:54:28Z</time>
      </trkpt>
      <trkpt lat="43.58901" lon="6.30278">
        <ele>638.109</ele>
        <time>2022-08-15T16:54:29Z</time>
      </trkpt>
      <trkpt lat="43.58901" lon="6.30278">
        <ele>638.276</ele>
        <time>2022-08-15T16:54:30Z</time>
      </trkpt>
      <trkpt lat="43.58901" lon="6.30278">
        <ele>638.276</ele>
        <time>2022-08-15T16:54:30Z</time>
      </trkpt>
      <trkpt lat="43.58901" lon="6.30279">
        <ele>638.097</ele>
        <time>2022-08-15T16:54:31Z</time>
      </trkpt>
      <trkpt lat="43.58903" lon="6.30282">
        <ele>639.148</ele>
        <time>2022-08-15T16:54:35Z</time>
      </trkpt>
      <trkpt lat="43.58905" lon="6.30279">
        <ele>640.156</ele>
        <time>2022-08-15T16:54:38Z</time>
      </trkpt>
      <trkpt lat="43.58906" lon="6.30278">
        <ele>640.616</ele>
        <time>2022-08-15T16:54:39Z</time>
      </trkpt>
      <trkpt lat="43.58909" lon="6.30275">
        <ele>642.987</ele>
        <time>2022-08-15T16:54:43Z</time>
      </trkpt>
      <trkpt lat="43.58911" lon="6.30274">
        <ele>640.987</ele>
        <time>2022-08-15T16:54:47Z</time>
      </trkpt>
      <trkpt lat="43.58912" lon="6.30273">
        <ele>640.025</ele>
        <time>2022-08-15T16:54:49Z</time>
      </trkpt>
      <trkpt lat="43.58912" lon="6.30273">
        <ele>639.789</ele>
        <time>2022-08-15T16:54:50Z</time>
      </trkpt>
      <trkpt lat="43.58912" lon="6.30273">
        <ele>639.789</ele>
        <time>2022-08-15T16:54:50Z</time>
      </trkpt>
      <trkpt lat="43.58913" lon="6.30274">
        <ele>640.346</ele>
        <time>2022-08-15T16:54:51Z</time>
      </trkpt>
      <trkpt lat="43.58913" lon="6.30274">
        <ele>640.154</ele>
        <time>2022-08-15T16:54:52Z</time>
      </trkpt>
      <trkpt lat="43.58913" lon="6.30274">
        <ele>640.154</ele>
        <time>2022-08-15T16:54:52Z</time>
      </trkpt>
      <trkpt lat="43.58913" lon="6.30275">
        <ele>640.976</ele>
        <time>2022-08-15T16:54:53Z</time>
      </trkpt>
      <trkpt lat="43.58914" lon="6.30274">
        <ele>639.966</ele>
        <time>2022-08-15T16:54:56Z</time>
      </trkpt>
      <trkpt lat="43.58917" lon="6.30271">
        <ele>641.604</ele>
        <time>2022-08-15T16:55:01Z</time>
      </trkpt>
      <trkpt lat="43.58917" lon="6.30271">
        <ele>641.604</ele>
        <time>2022-08-15T16:55:01Z</time>
      </trkpt>
      <trkpt lat="43.58917" lon="6.3027">
        <ele>641.368</ele>
        <time>2022-08-15T16:55:02Z</time>
      </trkpt>
      <trkpt lat="43.58918" lon="6.30269">
        <ele>639.951</ele>
        <time>2022-08-15T16:55:04Z</time>
      </trkpt>
      <trkpt lat="43.58919" lon="6.30266">
        <ele>641.683</ele>
        <time>2022-08-15T16:55:07Z</time>
      </trkpt>
      <trkpt lat="43.58919" lon="6.30265">
        <ele>641.558</ele>
        <time>2022-08-15T16:55:08Z</time>
      </trkpt>
      <trkpt lat="43.58921" lon="6.30258">
        <ele>638.999</ele>
        <time>2022-08-15T16:55:14Z</time>
      </trkpt>
      <trkpt lat="43.58923" lon="6.30252">
        <ele>636.979</ele>
        <time>2022-08-15T16:55:19Z</time>
      </trkpt>
      <trkpt lat="43.58926" lon="6.30245">
        <ele>636.083</ele>
        <time>2022-08-15T16:55:24Z</time>
      </trkpt>
      <trkpt lat="43.58929" lon="6.30245">
        <ele>636.25</ele>
        <time>2022-08-15T16:55:28Z</time>
      </trkpt>
      <trkpt lat="43.5893" lon="6.30246">
        <ele>637.115</ele>
        <time>2022-08-15T16:55:33Z</time>
      </trkpt>
      <trkpt lat="43.5893" lon="6.30247">
        <ele>636.52</ele>
        <time>2022-08-15T16:55:35Z</time>
      </trkpt>
      <trkpt lat="43.5893" lon="6.30247">
        <ele>637.001</ele>
        <time>2022-08-15T16:55:36Z</time>
      </trkpt>
      <trkpt lat="43.5893" lon="6.30247">
        <ele>637.597</ele>
        <time>2022-08-15T16:55:37Z</time>
      </trkpt>
      <trkpt lat="43.58931" lon="6.30243">
        <ele>637.754</ele>
        <time>2022-08-15T16:55:40Z</time>
      </trkpt>
      <trkpt lat="43.58934" lon="6.30242">
        <ele>637.863</ele>
        <time>2022-08-15T16:55:44Z</time>
      </trkpt>
      <trkpt lat="43.58937" lon="6.30241">
        <ele>637.561</ele>
        <time>2022-08-15T16:55:48Z</time>
      </trkpt>
      <trkpt lat="43.58939" lon="6.30238">
        <ele>636.858</ele>
        <time>2022-08-15T16:55:52Z</time>
      </trkpt>
      <trkpt lat="43.58939" lon="6.30235">
        <ele>636.264</ele>
        <time>2022-08-15T16:55:55Z</time>
      </trkpt>
      <trkpt lat="43.58939" lon="6.30235">
        <ele>635.915</ele>
        <time>2022-08-15T16:55:58Z</time>
      </trkpt>
      <trkpt lat="43.58938" lon="6.30235">
        <ele>635.623</ele>
        <time>2022-08-15T16:55:59Z</time>
      </trkpt>
      <trkpt lat="43.58938" lon="6.30234">
        <ele>635.312</ele>
        <time>2022-08-15T16:56:00Z</time>
      </trkpt>
      <trkpt lat="43.58938" lon="6.30234">
        <ele>635.433</ele>
        <time>2022-08-15T16:56:01Z</time>
      </trkpt>
      <trkpt lat="43.58939" lon="6.30234">
        <ele>635.667</ele>
        <time>2022-08-15T16:56:04Z</time>
      </trkpt>
      <trkpt lat="43.58942" lon="6.30235">
        <ele>637.03</ele>
        <time>2022-08-15T16:56:07Z</time>
      </trkpt>
      <trkpt lat="43.58944" lon="6.30235">
        <ele>637.151</ele>
        <time>2022-08-15T16:56:08Z</time>
      </trkpt>
      <trkpt lat="43.58944" lon="6.30235">
        <ele>637.255</ele>
        <time>2022-08-15T16:56:09Z</time>
      </trkpt>
      <trkpt lat="43.58944" lon="6.30235">
        <ele>636.544</ele>
        <time>2022-08-15T16:56:11Z</time>
      </trkpt>
      <trkpt lat="43.58945" lon="6.30234">
        <ele>636.647</ele>
        <time>2022-08-15T16:56:12Z</time>
      </trkpt>
      <trkpt lat="43.58945" lon="6.30234">
        <ele>636.998</ele>
        <time>2022-08-15T16:56:13Z</time>
      </trkpt>
      <trkpt lat="43.58945" lon="6.3023">
        <ele>637.024</ele>
        <time>2022-08-15T16:56:17Z</time>
      </trkpt>
      <trkpt lat="43.58947" lon="6.30234">
        <ele>636.908</ele>
        <time>2022-08-15T16:56:21Z</time>
      </trkpt>
      <trkpt lat="43.58946" lon="6.3024">
        <ele>636.994</ele>
        <time>2022-08-15T16:56:24Z</time>
      </trkpt>
      <trkpt lat="43.58945" lon="6.30244">
        <ele>637.496</ele>
        <time>2022-08-15T16:56:26Z</time>
      </trkpt>
      <trkpt lat="43.58941" lon="6.30247">
        <ele>636.726</ele>
        <time>2022-08-15T16:56:31Z</time>
      </trkpt>
      <trkpt lat="43.5894" lon="6.3025">
        <ele>636.651</ele>
        <time>2022-08-15T16:56:33Z</time>
      </trkpt>
      <trkpt lat="43.58932" lon="6.30265">
        <ele>634.636</ele>
        <time>2022-08-15T16:56:38Z</time>
      </trkpt>
      <trkpt lat="43.58933" lon="6.30264">
        <ele>635.91</ele>
        <time>2022-08-15T16:56:41Z</time>
      </trkpt>
      <trkpt lat="43.58932" lon="6.30263">
        <ele>635.145</ele>
        <time>2022-08-15T16:56:42Z</time>
      </trkpt>
      <trkpt lat="43.58934" lon="6.30259">
        <ele>637.116</ele>
        <time>2022-08-15T16:56:45Z</time>
      </trkpt>
      <trkpt lat="43.58934" lon="6.30258">
        <ele>636.116</ele>
        <time>2022-08-15T16:56:46Z</time>
      </trkpt>
      <trkpt lat="43.58934" lon="6.30258">
        <ele>635.571</ele>
        <time>2022-08-15T16:56:47Z</time>
      </trkpt>
      <trkpt lat="43.58934" lon="6.30258">
        <ele>635.571</ele>
        <time>2022-08-15T16:56:47Z</time>
      </trkpt>
      <trkpt lat="43.58936" lon="6.30256">
        <ele>635.459</ele>
        <time>2022-08-15T16:56:48Z</time>
      </trkpt>
      <trkpt lat="43.58942" lon="6.30248">
        <ele>633.194</ele>
        <time>2022-08-15T16:56:51Z</time>
      </trkpt>
      <trkpt lat="43.58948" lon="6.30242">
        <ele>638.056</ele>
        <time>2022-08-15T16:56:53Z</time>
      </trkpt>
      <trkpt lat="43.58955" lon="6.30236">
        <ele>637.632</ele>
        <time>2022-08-15T16:56:57Z</time>
      </trkpt>
      <trkpt lat="43.58955" lon="6.30236">
        <ele>637.372</ele>
        <time>2022-08-15T16:56:58Z</time>
      </trkpt>
      <trkpt lat="43.58955" lon="6.30236">
        <ele>637.265</ele>
        <time>2022-08-15T16:56:59Z</time>
      </trkpt>
      <trkpt lat="43.58949" lon="6.3027">
        <ele>625.866</ele>
        <time>2022-08-15T16:57:00Z</time>
      </trkpt>
      <trkpt lat="43.58948" lon="6.30268">
        <ele>624.473</ele>
        <time>2022-08-15T16:57:01Z</time>
      </trkpt>
      <trkpt lat="43.58943" lon="6.30266">
        <ele>631.252</ele>
        <time>2022-08-15T16:57:03Z</time>
      </trkpt>
      <trkpt lat="43.5894" lon="6.30269">
        <ele>622.084</ele>
        <time>2022-08-15T16:57:04Z</time>
      </trkpt>
      <trkpt lat="43.58935" lon="6.30272">
        <ele>608.971</ele>
        <time>2022-08-15T16:57:06Z</time>
      </trkpt>
      <trkpt lat="43.58933" lon="6.30273">
        <ele>608.317</ele>
        <time>2022-08-15T16:57:07Z</time>
      </trkpt>
      <trkpt lat="43.58933" lon="6.30273">
        <ele>606.856</ele>
        <time>2022-08-15T16:57:08Z</time>
      </trkpt>
      <trkpt lat="43.58933" lon="6.30273">
        <ele>606.856</ele>
        <time>2022-08-15T16:57:08Z</time>
      </trkpt>
      <trkpt lat="43.58934" lon="6.3027">
        <ele>603.767</ele>
        <time>2022-08-15T16:57:09Z</time>
      </trkpt>
      <trkpt lat="43.58936" lon="6.30267">
        <ele>604.472</ele>
        <time>2022-08-15T16:57:11Z</time>
      </trkpt>
      <trkpt lat="43.58937" lon="6.30266">
        <ele>604.565</ele>
        <time>2022-08-15T16:57:12Z</time>
      </trkpt>
      <trkpt lat="43.5894" lon="6.30266">
        <ele>607.276</ele>
        <time>2022-08-15T16:57:15Z</time>
      </trkpt>
      <trkpt lat="43.5894" lon="6.30266">
        <ele>609.776</ele>
        <time>2022-08-15T16:57:17Z</time>
      </trkpt>
      <trkpt lat="43.58939" lon="6.30261">
        <ele>608.805</ele>
        <time>2022-08-15T16:57:20Z</time>
      </trkpt>
      <trkpt lat="43.58938" lon="6.30256">
        <ele>609.987</ele>
        <time>2022-08-15T16:57:21Z</time>
      </trkpt>
      <trkpt lat="43.58938" lon="6.30251">
        <ele>609.393</ele>
        <time>2022-08-15T16:57:22Z</time>
      </trkpt>
      <trkpt lat="43.58936" lon="6.30244">
        <ele>615.179</ele>
        <time>2022-08-15T16:57:24Z</time>
      </trkpt>
      <trkpt lat="43.58936" lon="6.3024">
        <ele>610.416</ele>
        <time>2022-08-15T16:57:25Z</time>
      </trkpt>
      <trkpt lat="43.58936" lon="6.30236">
        <ele>614.998</ele>
        <time>2022-08-15T16:57:26Z</time>
      </trkpt>
      <trkpt lat="43.58937" lon="6.30229">
        <ele>617.279</ele>
        <time>2022-08-15T16:57:28Z</time>
      </trkpt>
      <trkpt lat="43.58942" lon="6.30221">
        <ele>614.193</ele>
        <time>2022-08-15T16:57:30Z</time>
      </trkpt>
      <trkpt lat="43.58945" lon="6.30217">
        <ele>616.482</ele>
        <time>2022-08-15T16:57:32Z</time>
      </trkpt>
      <trkpt lat="43.58947" lon="6.30215">
        <ele>619.724</ele>
        <time>2022-08-15T16:57:34Z</time>
      </trkpt>
      <trkpt lat="43.58947" lon="6.30215">
        <ele>622.538</ele>
        <time>2022-08-15T16:57:35Z</time>
      </trkpt>
      <trkpt lat="43.58947" lon="6.30215">
        <ele>622.538</ele>
        <time>2022-08-15T16:57:35Z</time>
      </trkpt>
      <trkpt lat="43.58948" lon="6.30211">
        <ele>623.4</ele>
        <time>2022-08-15T16:57:36Z</time>
      </trkpt>
      <trkpt lat="43.58948" lon="6.30209">
        <ele>620.689</ele>
        <time>2022-08-15T16:57:37Z</time>
      </trkpt>
      <trkpt lat="43.58947" lon="6.30205">
        <ele>622.243</ele>
        <time>2022-08-15T16:57:39Z</time>
      </trkpt>
      <trkpt lat="43.58947" lon="6.302">
        <ele>623.199</ele>
        <time>2022-08-15T16:57:41Z</time>
      </trkpt>
      <trkpt lat="43.58947" lon="6.302">
        <ele>627.818</ele>
        <time>2022-08-15T16:57:42Z</time>
      </trkpt>
      <trkpt lat="43.58951" lon="6.30195">
        <ele>632.332</ele>
        <time>2022-08-15T16:57:45Z</time>
      </trkpt>
      <trkpt lat="43.58951" lon="6.30195">
        <ele>632.404</ele>
        <time>2022-08-15T16:57:58Z</time>
      </trkpt>
      <trkpt lat="43.58952" lon="6.30194">
        <ele>633.032</ele>
        <time>2022-08-15T16:57:59Z</time>
      </trkpt>
      <trkpt lat="43.58954" lon="6.3019">
        <ele>635.407</ele>
        <time>2022-08-15T16:58:03Z</time>
      </trkpt>
      <trkpt lat="43.58954" lon="6.3019">
        <ele>632.246</ele>
        <time>2022-08-15T16:58:04Z</time>
      </trkpt>
      <trkpt lat="43.58954" lon="6.3019">
        <ele>632.246</ele>
        <time>2022-08-15T16:58:04Z</time>
      </trkpt>
      <trkpt lat="43.58954" lon="6.30189">
        <ele>631.733</ele>
        <time>2022-08-15T16:58:05Z</time>
      </trkpt>
      <trkpt lat="43.58954" lon="6.30188">
        <ele>633.388</ele>
        <time>2022-08-15T16:58:07Z</time>
      </trkpt>
      <trkpt lat="43.58954" lon="6.30188">
        <ele>633.388</ele>
        <time>2022-08-15T16:58:07Z</time>
      </trkpt>
      <trkpt lat="43.58954" lon="6.30187">
        <ele>632.296</ele>
        <time>2022-08-15T16:58:08Z</time>
      </trkpt>
      <trkpt lat="43.58954" lon="6.30187">
        <ele>632.339</ele>
        <time>2022-08-15T16:58:10Z</time>
      </trkpt>
      <trkpt lat="43.58954" lon="6.30185">
        <ele>630.261</ele>
        <time>2022-08-15T16:58:12Z</time>
      </trkpt>
      <trkpt lat="43.58954" lon="6.30185">
        <ele>630.273</ele>
        <time>2022-08-15T16:58:13Z</time>
      </trkpt>
      <trkpt lat="43.58954" lon="6.30184">
        <ele>630.544</ele>
        <time>2022-08-15T16:58:14Z</time>
      </trkpt>
      <trkpt lat="43.58954" lon="6.30183">
        <ele>629.686</ele>
        <time>2022-08-15T16:58:17Z</time>
      </trkpt>
      <trkpt lat="43.58953" lon="6.30183">
        <ele>629.942</ele>
        <time>2022-08-15T16:58:18Z</time>
      </trkpt>
      <trkpt lat="43.5895" lon="6.30185">
        <ele>632.061</ele>
        <time>2022-08-15T16:58:21Z</time>
      </trkpt>
      <trkpt lat="43.5895" lon="6.30185">
        <ele>631.877</ele>
        <time>2022-08-15T16:58:22Z</time>
      </trkpt>
      <trkpt lat="43.5895" lon="6.30185">
        <ele>632.63</ele>
        <time>2022-08-15T16:58:23Z</time>
      </trkpt>
      <trkpt lat="43.5895" lon="6.30185">
        <ele>632.63</ele>
        <time>2022-08-15T16:58:23Z</time>
      </trkpt>
      <trkpt lat="43.5895" lon="6.30186">
        <ele>632.021</ele>
        <time>2022-08-15T16:58:24Z</time>
      </trkpt>
      <trkpt lat="43.58952" lon="6.30186">
        <ele>634.819</ele>
        <time>2022-08-15T16:58:25Z</time>
      </trkpt>
      <trkpt lat="43.58952" lon="6.30187">
        <ele>635.578</ele>
        <time>2022-08-15T16:58:26Z</time>
      </trkpt>
      <trkpt lat="43.58953" lon="6.30185">
        <ele>636.259</ele>
        <time>2022-08-15T16:58:30Z</time>
      </trkpt>
      <trkpt lat="43.5895" lon="6.30179">
        <ele>637.428</ele>
        <time>2022-08-15T16:58:36Z</time>
      </trkpt>
      <trkpt lat="43.5895" lon="6.30177">
        <ele>637.07</ele>
        <time>2022-08-15T16:58:37Z</time>
      </trkpt>
      <trkpt lat="43.5895" lon="6.30178">
        <ele>638.589</ele>
        <time>2022-08-15T16:58:39Z</time>
      </trkpt>
      <trkpt lat="43.5895" lon="6.30178">
        <ele>639.418</ele>
        <time>2022-08-15T16:58:45Z</time>
      </trkpt>
      <trkpt lat="43.58949" lon="6.30179">
        <ele>639.731</ele>
        <time>2022-08-15T16:58:46Z</time>
      </trkpt>
      <trkpt lat="43.58948" lon="6.30179">
        <ele>638.576</ele>
        <time>2022-08-15T16:58:47Z</time>
      </trkpt>
      <trkpt lat="43.58948" lon="6.30179">
        <ele>640.455</ele>
        <time>2022-08-15T16:58:48Z</time>
      </trkpt>
      <trkpt lat="43.58948" lon="6.30179">
        <ele>640.455</ele>
        <time>2022-08-15T16:58:48Z</time>
      </trkpt>
      <trkpt lat="43.58946" lon="6.3018">
        <ele>638.691</ele>
        <time>2022-08-15T16:58:49Z</time>
      </trkpt>
      <trkpt lat="43.58943" lon="6.30182">
        <ele>637.632</ele>
        <time>2022-08-15T16:58:51Z</time>
      </trkpt>
      <trkpt lat="43.58941" lon="6.30182">
        <ele>635.64</ele>
        <time>2022-08-15T16:58:53Z</time>
      </trkpt>
      <trkpt lat="43.5894" lon="6.30182">
        <ele>635.537</ele>
        <time>2022-08-15T16:58:54Z</time>
      </trkpt>
      <trkpt lat="43.58939" lon="6.30181">
        <ele>634.311</ele>
        <time>2022-08-15T16:58:55Z</time>
      </trkpt>
      <trkpt lat="43.58936" lon="6.30182">
        <ele>633.095</ele>
        <time>2022-08-15T16:58:57Z</time>
      </trkpt>
      <trkpt lat="43.58932" lon="6.30184">
        <ele>631.409</ele>
        <time>2022-08-15T16:58:59Z</time>
      </trkpt>
      <trkpt lat="43.58926" lon="6.30184">
        <ele>633.105</ele>
        <time>2022-08-15T16:59:03Z</time>
      </trkpt>
      <trkpt lat="43.58928" lon="6.30179">
        <ele>633.897</ele>
        <time>2022-08-15T16:59:05Z</time>
      </trkpt>
      <trkpt lat="43.5893" lon="6.30175">
        <ele>635.643</ele>
        <time>2022-08-15T16:59:07Z</time>
      </trkpt>
      <trkpt lat="43.58933" lon="6.30171">
        <ele>633.938</ele>
        <time>2022-08-15T16:59:10Z</time>
      </trkpt>
      <trkpt lat="43.58933" lon="6.30171">
        <ele>634.415</ele>
        <time>2022-08-15T16:59:11Z</time>
      </trkpt>
      <trkpt lat="43.58933" lon="6.30167">
        <ele>634.62</ele>
        <time>2022-08-15T16:59:13Z</time>
      </trkpt>
      <trkpt lat="43.58932" lon="6.30167">
        <ele>634.699</ele>
        <time>2022-08-15T16:59:14Z</time>
      </trkpt>
      <trkpt lat="43.58928" lon="6.30169">
        <ele>633.803</ele>
        <time>2022-08-15T16:59:17Z</time>
      </trkpt>
      <trkpt lat="43.58926" lon="6.30169">
        <ele>632.886</ele>
        <time>2022-08-15T16:59:21Z</time>
      </trkpt>
      <trkpt lat="43.58925" lon="6.3016">
        <ele>632.368</ele>
        <time>2022-08-15T16:59:29Z</time>
      </trkpt>
      <trkpt lat="43.58924" lon="6.30157">
        <ele>632.22</ele>
        <time>2022-08-15T16:59:32Z</time>
      </trkpt>
      <trkpt lat="43.58923" lon="6.30156">
        <ele>631.828</ele>
        <time>2022-08-15T16:59:34Z</time>
      </trkpt>
      <trkpt lat="43.58923" lon="6.30152">
        <ele>628.825</ele>
        <time>2022-08-15T16:59:38Z</time>
      </trkpt>
      <trkpt lat="43.58929" lon="6.30144">
        <ele>628.785</ele>
        <time>2022-08-15T16:59:47Z</time>
      </trkpt>
      <trkpt lat="43.58932" lon="6.30144">
        <ele>628.191</ele>
        <time>2022-08-15T16:59:49Z</time>
      </trkpt>
      <trkpt lat="43.58936" lon="6.30142">
        <ele>628.317</ele>
        <time>2022-08-15T16:59:52Z</time>
      </trkpt>
      <trkpt lat="43.58939" lon="6.30141">
        <ele>628.9</ele>
        <time>2022-08-15T16:59:57Z</time>
      </trkpt>
      <trkpt lat="43.58939" lon="6.3014">
        <ele>628.779</ele>
        <time>2022-08-15T16:59:59Z</time>
      </trkpt>
      <trkpt lat="43.58939" lon="6.30143">
        <ele>628.284</ele>
        <time>2022-08-15T17:00:02Z</time>
      </trkpt>
      <trkpt lat="43.5894" lon="6.30143">
        <ele>628.338</ele>
        <time>2022-08-15T17:00:03Z</time>
      </trkpt>
      <trkpt lat="43.5894" lon="6.30143">
        <ele>628.338</ele>
        <time>2022-08-15T17:00:03Z</time>
      </trkpt>
      <trkpt lat="43.5894" lon="6.30143">
        <ele>628.369</ele>
        <time>2022-08-15T17:00:04Z</time>
      </trkpt>
      <trkpt lat="43.5894" lon="6.30143">
        <ele>628.369</ele>
        <time>2022-08-15T17:00:04Z</time>
      </trkpt>
      <trkpt lat="43.58941" lon="6.30142">
        <ele>628.302</ele>
        <time>2022-08-15T17:00:05Z</time>
      </trkpt>
      <trkpt lat="43.58941" lon="6.30142">
        <ele>628.302</ele>
        <time>2022-08-15T17:00:05Z</time>
      </trkpt>
      <trkpt lat="43.58941" lon="6.30141">
        <ele>628.322</ele>
        <time>2022-08-15T17:00:06Z</time>
      </trkpt>
      <trkpt lat="43.5894" lon="6.30136">
        <ele>628.128</ele>
        <time>2022-08-15T17:00:09Z</time>
      </trkpt>
      <trkpt lat="43.5894" lon="6.3013">
        <ele>628.13</ele>
        <time>2022-08-15T17:00:13Z</time>
      </trkpt>
      <trkpt lat="43.58939" lon="6.30123">
        <ele>625.602</ele>
        <time>2022-08-15T17:00:20Z</time>
      </trkpt>
      <trkpt lat="43.5894" lon="6.30119">
        <ele>625.339</ele>
        <time>2022-08-15T17:00:22Z</time>
      </trkpt>
      <trkpt lat="43.58945" lon="6.30113">
        <ele>623.955</ele>
        <time>2022-08-15T17:00:27Z</time>
      </trkpt>
      <trkpt lat="43.58947" lon="6.30116">
        <ele>622.907</ele>
        <time>2022-08-15T17:00:33Z</time>
      </trkpt>
      <trkpt lat="43.58947" lon="6.3012">
        <ele>623.408</ele>
        <time>2022-08-15T17:00:36Z</time>
      </trkpt>
      <trkpt lat="43.58947" lon="6.30122">
        <ele>623.815</ele>
        <time>2022-08-15T17:00:37Z</time>
      </trkpt>
      <trkpt lat="43.58948" lon="6.30123">
        <ele>623.957</ele>
        <time>2022-08-15T17:00:38Z</time>
      </trkpt>
      <trkpt lat="43.58948" lon="6.30123">
        <ele>623.957</ele>
        <time>2022-08-15T17:00:38Z</time>
      </trkpt>
      <trkpt lat="43.58949" lon="6.30123">
        <ele>624.777</ele>
        <time>2022-08-15T17:00:39Z</time>
      </trkpt>
      <trkpt lat="43.58951" lon="6.30121">
        <ele>624.853</ele>
        <time>2022-08-15T17:00:40Z</time>
      </trkpt>
      <trkpt lat="43.58954" lon="6.30119">
        <ele>624.486</ele>
        <time>2022-08-15T17:00:43Z</time>
      </trkpt>
      <trkpt lat="43.58955" lon="6.30114">
        <ele>623.486</ele>
        <time>2022-08-15T17:00:47Z</time>
      </trkpt>
      <trkpt lat="43.58955" lon="6.30113">
        <ele>622.801</ele>
        <time>2022-08-15T17:00:48Z</time>
      </trkpt>
      <trkpt lat="43.58956" lon="6.30113">
        <ele>622.742</ele>
        <time>2022-08-15T17:00:49Z</time>
      </trkpt>
      <trkpt lat="43.58956" lon="6.30113">
        <ele>622.855</ele>
        <time>2022-08-15T17:00:50Z</time>
      </trkpt>
      <trkpt lat="43.58957" lon="6.30112">
        <ele>622.793</ele>
        <time>2022-08-15T17:00:53Z</time>
      </trkpt>
      <trkpt lat="43.58956" lon="6.30111">
        <ele>622.525</ele>
        <time>2022-08-15T17:00:54Z</time>
      </trkpt>
      <trkpt lat="43.58954" lon="6.30108">
        <ele>621.489</ele>
        <time>2022-08-15T17:00:58Z</time>
      </trkpt>
      <trkpt lat="43.58953" lon="6.30107">
        <ele>621.193</ele>
        <time>2022-08-15T17:00:59Z</time>
      </trkpt>
      <trkpt lat="43.58952" lon="6.30106">
        <ele>621.018</ele>
        <time>2022-08-15T17:01:00Z</time>
      </trkpt>
      <trkpt lat="43.58951" lon="6.30102">
        <ele>620.528</ele>
        <time>2022-08-15T17:01:02Z</time>
      </trkpt>
      <trkpt lat="43.58948" lon="6.30097">
        <ele>620.322</ele>
        <time>2022-08-15T17:01:04Z</time>
      </trkpt>
      <trkpt lat="43.58947" lon="6.30092">
        <ele>619.098</ele>
        <time>2022-08-15T17:01:07Z</time>
      </trkpt>
      <trkpt lat="43.58947" lon="6.30088">
        <ele>618.486</ele>
        <time>2022-08-15T17:01:11Z</time>
      </trkpt>
      <trkpt lat="43.58949" lon="6.30085">
        <ele>618.079</ele>
        <time>2022-08-15T17:01:15Z</time>
      </trkpt>
      <trkpt lat="43.5895" lon="6.30082">
        <ele>618.455</ele>
        <time>2022-08-15T17:01:19Z</time>
      </trkpt>
      <trkpt lat="43.58948" lon="6.3008">
        <ele>619.419</ele>
        <time>2022-08-15T17:01:22Z</time>
      </trkpt>
      <trkpt lat="43.58947" lon="6.30079">
        <ele>619.478</ele>
        <time>2022-08-15T17:01:23Z</time>
      </trkpt>
      <trkpt lat="43.58947" lon="6.30079">
        <ele>618.92</ele>
        <time>2022-08-15T17:01:24Z</time>
      </trkpt>
      <trkpt lat="43.58947" lon="6.30079">
        <ele>619.233</ele>
        <time>2022-08-15T17:01:26Z</time>
      </trkpt>
      <trkpt lat="43.58947" lon="6.30079">
        <ele>619.73</ele>
        <time>2022-08-15T17:01:27Z</time>
      </trkpt>
      <trkpt lat="43.58943" lon="6.3008">
        <ele>618.324</ele>
        <time>2022-08-15T17:01:31Z</time>
      </trkpt>
      <trkpt lat="43.5894" lon="6.30081">
        <ele>619.109</ele>
        <time>2022-08-15T17:01:34Z</time>
      </trkpt>
      <trkpt lat="43.58934" lon="6.30082">
        <ele>619.146</ele>
        <time>2022-08-15T17:01:43Z</time>
      </trkpt>
      <trkpt lat="43.58931" lon="6.30084">
        <ele>617.952</ele>
        <time>2022-08-15T17:01:48Z</time>
      </trkpt>
      <trkpt lat="43.58928" lon="6.30087">
        <ele>617.901</ele>
        <time>2022-08-15T17:01:52Z</time>
      </trkpt>
      <trkpt lat="43.58925" lon="6.30088">
        <ele>617.075</ele>
        <time>2022-08-15T17:01:55Z</time>
      </trkpt>
      <trkpt lat="43.58922" lon="6.30089">
        <ele>616.188</ele>
        <time>2022-08-15T17:01:59Z</time>
      </trkpt>
      <trkpt lat="43.5892" lon="6.30091">
        <ele>615.604</ele>
        <time>2022-08-15T17:02:02Z</time>
      </trkpt>
      <trkpt lat="43.58917" lon="6.30093">
        <ele>615.572</ele>
        <time>2022-08-15T17:02:05Z</time>
      </trkpt>
      <trkpt lat="43.58912" lon="6.30096">
        <ele>614.684</ele>
        <time>2022-08-15T17:02:10Z</time>
      </trkpt>
      <trkpt lat="43.58904" lon="6.301">
        <ele>613.259</ele>
        <time>2022-08-15T17:02:23Z</time>
      </trkpt>
      <trkpt lat="43.589" lon="6.30098">
        <ele>611.715</ele>
        <time>2022-08-15T17:02:31Z</time>
      </trkpt>
      <trkpt lat="43.589" lon="6.30098">
        <ele>611.751</ele>
        <time>2022-08-15T17:02:33Z</time>
      </trkpt>
      <trkpt lat="43.589" lon="6.30098">
        <ele>611.797</ele>
        <time>2022-08-15T17:02:34Z</time>
      </trkpt>
      <trkpt lat="43.589" lon="6.30097">
        <ele>611.685</ele>
        <time>2022-08-15T17:02:35Z</time>
      </trkpt>
      <trkpt lat="43.589" lon="6.30098">
        <ele>611.544</ele>
        <time>2022-08-15T17:02:38Z</time>
      </trkpt>
      <trkpt lat="43.589" lon="6.30098">
        <ele>611.544</ele>
        <time>2022-08-15T17:02:38Z</time>
      </trkpt>
      <trkpt lat="43.58899" lon="6.30098">
        <ele>611.52</ele>
        <time>2022-08-15T17:02:39Z</time>
      </trkpt>
      <trkpt lat="43.58899" lon="6.30098">
        <ele>611.331</ele>
        <time>2022-08-15T17:02:40Z</time>
      </trkpt>
      <trkpt lat="43.58899" lon="6.30098">
        <ele>611.331</ele>
        <time>2022-08-15T17:02:40Z</time>
      </trkpt>
      <trkpt lat="43.58899" lon="6.30097">
        <ele>611.05</ele>
        <time>2022-08-15T17:02:41Z</time>
      </trkpt>
      <trkpt lat="43.58899" lon="6.30097">
        <ele>610.883</ele>
        <time>2022-08-15T17:02:42Z</time>
      </trkpt>
      <trkpt lat="43.58898" lon="6.30097">
        <ele>610.853</ele>
        <time>2022-08-15T17:02:43Z</time>
      </trkpt>
      <trkpt lat="43.58898" lon="6.30097">
        <ele>610.757</ele>
        <time>2022-08-15T17:02:44Z</time>
      </trkpt>
      <trkpt lat="43.58898" lon="6.30096">
        <ele>610.764</ele>
        <time>2022-08-15T17:02:45Z</time>
      </trkpt>
      <trkpt lat="43.58898" lon="6.30095">
        <ele>610.579</ele>
        <time>2022-08-15T17:02:48Z</time>
      </trkpt>
      <trkpt lat="43.58898" lon="6.30095">
        <ele>610.579</ele>
        <time>2022-08-15T17:02:48Z</time>
      </trkpt>
      <trkpt lat="43.58898" lon="6.30095">
        <ele>610.766</ele>
        <time>2022-08-15T17:02:49Z</time>
      </trkpt>
      <trkpt lat="43.58898" lon="6.30095">
        <ele>610.491</ele>
        <time>2022-08-15T17:02:51Z</time>
      </trkpt>
      <trkpt lat="43.58898" lon="6.30095">
        <ele>610.491</ele>
        <time>2022-08-15T17:02:51Z</time>
      </trkpt>
      <trkpt lat="43.58899" lon="6.30095">
        <ele>610.67</ele>
        <time>2022-08-15T17:02:52Z</time>
      </trkpt>
      <trkpt lat="43.58898" lon="6.30093">
        <ele>609.892</ele>
        <time>2022-08-15T17:02:55Z</time>
      </trkpt>
      <trkpt lat="43.58901" lon="6.3009">
        <ele>609.896</ele>
        <time>2022-08-15T17:02:57Z</time>
      </trkpt>
      <trkpt lat="43.58902" lon="6.30087">
        <ele>609.808</ele>
        <time>2022-08-15T17:02:59Z</time>
      </trkpt>
      <trkpt lat="43.58902" lon="6.30084">
        <ele>609.683</ele>
        <time>2022-08-15T17:03:00Z</time>
      </trkpt>
      <trkpt lat="43.58902" lon="6.30082">
        <ele>608.915</ele>
        <time>2022-08-15T17:03:01Z</time>
      </trkpt>
      <trkpt lat="43.58902" lon="6.30082">
        <ele>608.888</ele>
        <time>2022-08-15T17:03:02Z</time>
      </trkpt>
      <trkpt lat="43.58902" lon="6.30082">
        <ele>608.87</ele>
        <time>2022-08-15T17:03:03Z</time>
      </trkpt>
      <trkpt lat="43.58899" lon="6.30082">
        <ele>609.201</ele>
        <time>2022-08-15T17:03:06Z</time>
      </trkpt>
      <trkpt lat="43.58898" lon="6.30079">
        <ele>609.21</ele>
        <time>2022-08-15T17:03:12Z</time>
      </trkpt>
      <trkpt lat="43.58901" lon="6.30073">
        <ele>609.497</ele>
        <time>2022-08-15T17:03:17Z</time>
      </trkpt>
      <trkpt lat="43.5891" lon="6.3005">
        <ele>607.36</ele>
        <time>2022-08-15T17:03:39Z</time>
      </trkpt>
      <trkpt lat="43.58919" lon="6.30037">
        <ele>606.662</ele>
        <time>2022-08-15T17:03:53Z</time>
      </trkpt>
      <trkpt lat="43.5892" lon="6.30036">
        <ele>606.857</ele>
        <time>2022-08-15T17:03:56Z</time>
      </trkpt>
      <trkpt lat="43.5892" lon="6.30036">
        <ele>606.687</ele>
        <time>2022-08-15T17:04:01Z</time>
      </trkpt>
      <trkpt lat="43.58918" lon="6.30034">
        <ele>606.629</ele>
        <time>2022-08-15T17:04:02Z</time>
      </trkpt>
      <trkpt lat="43.58918" lon="6.30033">
        <ele>606.204</ele>
        <time>2022-08-15T17:04:03Z</time>
      </trkpt>
      <trkpt lat="43.5892" lon="6.30025">
        <ele>605.496</ele>
        <time>2022-08-15T17:04:09Z</time>
      </trkpt>
      <trkpt lat="43.58923" lon="6.30022">
        <ele>603.759</ele>
        <time>2022-08-15T17:04:14Z</time>
      </trkpt>
      <trkpt lat="43.58922" lon="6.30021">
        <ele>603.518</ele>
        <time>2022-08-15T17:04:15Z</time>
      </trkpt>
      <trkpt lat="43.58922" lon="6.30021">
        <ele>603.206</ele>
        <time>2022-08-15T17:04:16Z</time>
      </trkpt>
      <trkpt lat="43.58922" lon="6.30021">
        <ele>603.206</ele>
        <time>2022-08-15T17:04:16Z</time>
      </trkpt>
      <trkpt lat="43.58921" lon="6.30021">
        <ele>602.916</ele>
        <time>2022-08-15T17:04:17Z</time>
      </trkpt>
      <trkpt lat="43.58921" lon="6.30021">
        <ele>602.916</ele>
        <time>2022-08-15T17:04:17Z</time>
      </trkpt>
      <trkpt lat="43.58922" lon="6.3002">
        <ele>603.105</ele>
        <time>2022-08-15T17:04:18Z</time>
      </trkpt>
      <trkpt lat="43.58923" lon="6.30016">
        <ele>602.662</ele>
        <time>2022-08-15T17:04:21Z</time>
      </trkpt>
      <trkpt lat="43.58932" lon="6.29997">
        <ele>600.892</ele>
        <time>2022-08-15T17:04:36Z</time>
      </trkpt>
      <trkpt lat="43.58934" lon="6.29991">
        <ele>600.629</ele>
        <time>2022-08-15T17:04:40Z</time>
      </trkpt>
      <trkpt lat="43.58941" lon="6.29974">
        <ele>599.438</ele>
        <time>2022-08-15T17:04:54Z</time>
      </trkpt>
      <trkpt lat="43.58946" lon="6.29959">
        <ele>597.39</ele>
        <time>2022-08-15T17:05:05Z</time>
      </trkpt>
      <trkpt lat="43.58946" lon="6.29957">
        <ele>597.226</ele>
        <time>2022-08-15T17:05:07Z</time>
      </trkpt>
      <trkpt lat="43.58945" lon="6.29956">
        <ele>597.097</ele>
        <time>2022-08-15T17:05:11Z</time>
      </trkpt>
      <trkpt lat="43.58945" lon="6.29956">
        <ele>597.097</ele>
        <time>2022-08-15T17:05:11Z</time>
      </trkpt>
      <trkpt lat="43.58944" lon="6.29956">
        <ele>597.065</ele>
        <time>2022-08-15T17:05:12Z</time>
      </trkpt>
      <trkpt lat="43.58944" lon="6.29956">
        <ele>597.045</ele>
        <time>2022-08-15T17:05:13Z</time>
      </trkpt>
      <trkpt lat="43.58944" lon="6.29956">
        <ele>596.986</ele>
        <time>2022-08-15T17:05:14Z</time>
      </trkpt>
      <trkpt lat="43.58943" lon="6.29955">
        <ele>596.856</ele>
        <time>2022-08-15T17:05:15Z</time>
      </trkpt>
      <trkpt lat="43.58942" lon="6.29953">
        <ele>596.28</ele>
        <time>2022-08-15T17:05:16Z</time>
      </trkpt>
      <trkpt lat="43.58941" lon="6.29944">
        <ele>595.665</ele>
        <time>2022-08-15T17:05:21Z</time>
      </trkpt>
      <trkpt lat="43.58941" lon="6.2994">
        <ele>595.685</ele>
        <time>2022-08-15T17:05:24Z</time>
      </trkpt>
      <trkpt lat="43.58941" lon="6.29923">
        <ele>593.466</ele>
        <time>2022-08-15T17:05:35Z</time>
      </trkpt>
      <trkpt lat="43.5894" lon="6.29918">
        <ele>592.514</ele>
        <time>2022-08-15T17:05:38Z</time>
      </trkpt>
      <trkpt lat="43.58941" lon="6.29902">
        <ele>590.442</ele>
        <time>2022-08-15T17:05:50Z</time>
      </trkpt>
      <trkpt lat="43.58941" lon="6.29893">
        <ele>589.119</ele>
        <time>2022-08-15T17:05:59Z</time>
      </trkpt>
      <trkpt lat="43.58943" lon="6.2989">
        <ele>588.837</ele>
        <time>2022-08-15T17:06:03Z</time>
      </trkpt>
      <trkpt lat="43.58944" lon="6.29886">
        <ele>588.244</ele>
        <time>2022-08-15T17:06:07Z</time>
      </trkpt>
      <trkpt lat="43.5895" lon="6.29865">
        <ele>586.23</ele>
        <time>2022-08-15T17:06:26Z</time>
      </trkpt>
      <trkpt lat="43.58952" lon="6.29856">
        <ele>585.529</ele>
        <time>2022-08-15T17:06:32Z</time>
      </trkpt>
      <trkpt lat="43.58952" lon="6.29852">
        <ele>585.128</ele>
        <time>2022-08-15T17:06:35Z</time>
      </trkpt>
      <trkpt lat="43.58956" lon="6.29839">
        <ele>584.034</ele>
        <time>2022-08-15T17:06:43Z</time>
      </trkpt>
      <trkpt lat="43.58959" lon="6.29829">
        <ele>583.784</ele>
        <time>2022-08-15T17:06:50Z</time>
      </trkpt>
      <trkpt lat="43.58959" lon="6.29829">
        <ele>583.784</ele>
        <time>2022-08-15T17:06:50Z</time>
      </trkpt>
      <trkpt lat="43.58959" lon="6.29829">
        <ele>583.674</ele>
        <time>2022-08-15T17:06:51Z</time>
      </trkpt>
      <trkpt lat="43.58959" lon="6.29829">
        <ele>583.17</ele>
        <time>2022-08-15T17:06:55Z</time>
      </trkpt>
      <trkpt lat="43.5896" lon="6.29828">
        <ele>583.107</ele>
        <time>2022-08-15T17:06:56Z</time>
      </trkpt>
      <trkpt lat="43.5896" lon="6.29827">
        <ele>583.11</ele>
        <time>2022-08-15T17:06:57Z</time>
      </trkpt>
      <trkpt lat="43.5896" lon="6.29826">
        <ele>582.941</ele>
        <time>2022-08-15T17:06:58Z</time>
      </trkpt>
      <trkpt lat="43.5896" lon="6.29826">
        <ele>583.569</ele>
        <time>2022-08-15T17:06:59Z</time>
      </trkpt>
      <trkpt lat="43.5896" lon="6.29826">
        <ele>584.112</ele>
        <time>2022-08-15T17:07:02Z</time>
      </trkpt>
      <trkpt lat="43.5896" lon="6.29826">
        <ele>583.982</ele>
        <time>2022-08-15T17:07:03Z</time>
      </trkpt>
      <trkpt lat="43.5896" lon="6.29826">
        <ele>583.982</ele>
        <time>2022-08-15T17:07:03Z</time>
      </trkpt>
      <trkpt lat="43.5896" lon="6.29825">
        <ele>584.048</ele>
        <time>2022-08-15T17:07:04Z</time>
      </trkpt>
      <trkpt lat="43.58961" lon="6.29822">
        <ele>583.703</ele>
        <time>2022-08-15T17:07:06Z</time>
      </trkpt>
      <trkpt lat="43.58962" lon="6.29817">
        <ele>582.306</ele>
        <time>2022-08-15T17:07:11Z</time>
      </trkpt>
      <trkpt lat="43.58962" lon="6.29817">
        <ele>581.683</ele>
        <time>2022-08-15T17:07:12Z</time>
      </trkpt>
      <trkpt lat="43.58963" lon="6.29815">
        <ele>581.274</ele>
        <time>2022-08-15T17:07:14Z</time>
      </trkpt>
      <trkpt lat="43.58964" lon="6.29804">
        <ele>581.208</ele>
        <time>2022-08-15T17:07:25Z</time>
      </trkpt>
      <trkpt lat="43.58964" lon="6.29804">
        <ele>581.015</ele>
        <time>2022-08-15T17:07:32Z</time>
      </trkpt>
      <trkpt lat="43.58963" lon="6.29805">
        <ele>581.241</ele>
        <time>2022-08-15T17:07:33Z</time>
      </trkpt>
      <trkpt lat="43.58963" lon="6.29805">
        <ele>581.108</ele>
        <time>2022-08-15T17:07:34Z</time>
      </trkpt>
      <trkpt lat="43.58963" lon="6.29804">
        <ele>581.154</ele>
        <time>2022-08-15T17:07:35Z</time>
      </trkpt>
      <trkpt lat="43.58963" lon="6.29804">
        <ele>581.112</ele>
        <time>2022-08-15T17:07:36Z</time>
      </trkpt>
      <trkpt lat="43.58963" lon="6.29804">
        <ele>580.938</ele>
        <time>2022-08-15T17:07:37Z</time>
      </trkpt>
      <trkpt lat="43.58963" lon="6.29804">
        <ele>580.704</ele>
        <time>2022-08-15T17:07:38Z</time>
      </trkpt>
      <trkpt lat="43.58963" lon="6.29804">
        <ele>580.704</ele>
        <time>2022-08-15T17:07:38Z</time>
      </trkpt>
      <trkpt lat="43.58963" lon="6.29804">
        <ele>580.842</ele>
        <time>2022-08-15T17:07:39Z</time>
      </trkpt>
      <trkpt lat="43.58963" lon="6.29804">
        <ele>580.098</ele>
        <time>2022-08-15T17:07:43Z</time>
      </trkpt>
      <trkpt lat="43.58962" lon="6.29804">
        <ele>579.882</ele>
        <time>2022-08-15T17:07:44Z</time>
      </trkpt>
      <trkpt lat="43.5896" lon="6.29801">
        <ele>578.203</ele>
        <time>2022-08-15T17:07:48Z</time>
      </trkpt>
      <trkpt lat="43.58962" lon="6.29795">
        <ele>577.554</ele>
        <time>2022-08-15T17:07:53Z</time>
      </trkpt>
      <trkpt lat="43.58963" lon="6.2979">
        <ele>577.228</ele>
        <time>2022-08-15T17:07:58Z</time>
      </trkpt>
      <trkpt lat="43.58966" lon="6.29784">
        <ele>576.801</ele>
        <time>2022-08-15T17:08:03Z</time>
      </trkpt>
      <trkpt lat="43.58968" lon="6.29773">
        <ele>575.669</ele>
        <time>2022-08-15T17:08:14Z</time>
      </trkpt>
      <trkpt lat="43.58968" lon="6.2977">
        <ele>575.45</ele>
        <time>2022-08-15T17:08:19Z</time>
      </trkpt>
      <trkpt lat="43.58972" lon="6.29755">
        <ele>574.479</ele>
        <time>2022-08-15T17:08:31Z</time>
      </trkpt>
      <trkpt lat="43.58976" lon="6.29741">
        <ele>574.889</ele>
        <time>2022-08-15T17:08:45Z</time>
      </trkpt>
      <trkpt lat="43.58981" lon="6.2973">
        <ele>575.007</ele>
        <time>2022-08-15T17:08:55Z</time>
      </trkpt>
      <trkpt lat="43.58981" lon="6.2973">
        <ele>574.987</ele>
        <time>2022-08-15T17:08:56Z</time>
      </trkpt>
      <trkpt lat="43.58981" lon="6.2973">
        <ele>574.987</ele>
        <time>2022-08-15T17:08:56Z</time>
      </trkpt>
      <trkpt lat="43.58981" lon="6.29729">
        <ele>575.123</ele>
        <time>2022-08-15T17:08:57Z</time>
      </trkpt>
      <trkpt lat="43.58981" lon="6.29729">
        <ele>575.164</ele>
        <time>2022-08-15T17:08:58Z</time>
      </trkpt>
      <trkpt lat="43.58982" lon="6.29729">
        <ele>575.152</ele>
        <time>2022-08-15T17:08:59Z</time>
      </trkpt>
      <trkpt lat="43.58984" lon="6.29726">
        <ele>574.778</ele>
        <time>2022-08-15T17:09:02Z</time>
      </trkpt>
      <trkpt lat="43.58984" lon="6.29718">
        <ele>574.902</ele>
        <time>2022-08-15T17:09:08Z</time>
      </trkpt>
      <trkpt lat="43.58983" lon="6.29713">
        <ele>574.749</ele>
        <time>2022-08-15T17:09:11Z</time>
      </trkpt>
      <trkpt lat="43.58983" lon="6.2971">
        <ele>574.407</ele>
        <time>2022-08-15T17:09:14Z</time>
      </trkpt>
      <trkpt lat="43.58983" lon="6.29709">
        <ele>574.322</ele>
        <time>2022-08-15T17:09:15Z</time>
      </trkpt>
      <trkpt lat="43.58984" lon="6.29703">
        <ele>573.517</ele>
        <time>2022-08-15T17:09:20Z</time>
      </trkpt>
      <trkpt lat="43.58985" lon="6.29698">
        <ele>573.226</ele>
        <time>2022-08-15T17:09:24Z</time>
      </trkpt>
      <trkpt lat="43.58994" lon="6.29679">
        <ele>571.167</ele>
        <time>2022-08-15T17:09:43Z</time>
      </trkpt>
      <trkpt lat="43.59002" lon="6.29653">
        <ele>568.871</ele>
        <time>2022-08-15T17:10:05Z</time>
      </trkpt>
      <trkpt lat="43.59004" lon="6.29648">
        <ele>568.702</ele>
        <time>2022-08-15T17:10:09Z</time>
      </trkpt>
      <trkpt lat="43.59008" lon="6.29639">
        <ele>567.668</ele>
        <time>2022-08-15T17:10:18Z</time>
      </trkpt>
      <trkpt lat="43.5901" lon="6.29632">
        <ele>567.886</ele>
        <time>2022-08-15T17:10:23Z</time>
      </trkpt>
      <trkpt lat="43.59012" lon="6.29628">
        <ele>567.259</ele>
        <time>2022-08-15T17:10:27Z</time>
      </trkpt>
      <trkpt lat="43.59014" lon="6.29625">
        <ele>567.042</ele>
        <time>2022-08-15T17:10:30Z</time>
      </trkpt>
      <trkpt lat="43.59027" lon="6.29593">
        <ele>564.91</ele>
        <time>2022-08-15T17:11:00Z</time>
      </trkpt>
      <trkpt lat="43.59027" lon="6.29588">
        <ele>565.328</ele>
        <time>2022-08-15T17:11:03Z</time>
      </trkpt>
      <trkpt lat="43.59026" lon="6.2958">
        <ele>564.754</ele>
        <time>2022-08-15T17:11:09Z</time>
      </trkpt>
      <trkpt lat="43.59025" lon="6.29576">
        <ele>564.094</ele>
        <time>2022-08-15T17:11:14Z</time>
      </trkpt>
      <trkpt lat="43.59025" lon="6.29576">
        <ele>564.355</ele>
        <time>2022-08-15T17:11:16Z</time>
      </trkpt>
      <trkpt lat="43.59025" lon="6.29576">
        <ele>564.535</ele>
        <time>2022-08-15T17:11:17Z</time>
      </trkpt>
      <trkpt lat="43.59025" lon="6.29575">
        <ele>564.403</ele>
        <time>2022-08-15T17:11:18Z</time>
      </trkpt>
      <trkpt lat="43.59026" lon="6.29574">
        <ele>564.623</ele>
        <time>2022-08-15T17:11:19Z</time>
      </trkpt>
      <trkpt lat="43.59026" lon="6.29573">
        <ele>564.486</ele>
        <time>2022-08-15T17:11:21Z</time>
      </trkpt>
      <trkpt lat="43.59026" lon="6.29573">
        <ele>564.486</ele>
        <time>2022-08-15T17:11:21Z</time>
      </trkpt>
      <trkpt lat="43.59026" lon="6.29573">
        <ele>564.599</ele>
        <time>2022-08-15T17:11:22Z</time>
      </trkpt>
      <trkpt lat="43.59026" lon="6.29573">
        <ele>564.599</ele>
        <time>2022-08-15T17:11:22Z</time>
      </trkpt>
      <trkpt lat="43.59026" lon="6.29573">
        <ele>564.752</ele>
        <time>2022-08-15T17:11:23Z</time>
      </trkpt>
      <trkpt lat="43.59026" lon="6.29573">
        <ele>564.752</ele>
        <time>2022-08-15T17:11:23Z</time>
      </trkpt>
      <trkpt lat="43.59026" lon="6.29573">
        <ele>564.876</ele>
        <time>2022-08-15T17:11:24Z</time>
      </trkpt>
      <trkpt lat="43.59026" lon="6.29573">
        <ele>564.988</ele>
        <time>2022-08-15T17:11:31Z</time>
      </trkpt>
      <trkpt lat="43.59026" lon="6.29573">
        <ele>564.806</ele>
        <time>2022-08-15T17:11:32Z</time>
      </trkpt>
      <trkpt lat="43.59026" lon="6.29573">
        <ele>564.806</ele>
        <time>2022-08-15T17:11:32Z</time>
      </trkpt>
      <trkpt lat="43.59026" lon="6.29573">
        <ele>564.867</ele>
        <time>2022-08-15T17:11:33Z</time>
      </trkpt>
      <trkpt lat="43.59026" lon="6.29573">
        <ele>564.568</ele>
        <time>2022-08-15T17:11:44Z</time>
      </trkpt>
      <trkpt lat="43.59025" lon="6.29573">
        <ele>564.396</ele>
        <time>2022-08-15T17:11:45Z</time>
      </trkpt>
      <trkpt lat="43.59025" lon="6.29573">
        <ele>564.071</ele>
        <time>2022-08-15T17:11:46Z</time>
      </trkpt>
      <trkpt lat="43.59025" lon="6.29573">
        <ele>563.525</ele>
        <time>2022-08-15T17:11:56Z</time>
      </trkpt>
      <trkpt lat="43.59025" lon="6.29572">
        <ele>563.098</ele>
        <time>2022-08-15T17:11:57Z</time>
      </trkpt>
      <trkpt lat="43.59025" lon="6.29572">
        <ele>563.192</ele>
        <time>2022-08-15T17:11:58Z</time>
      </trkpt>
      <trkpt lat="43.59025" lon="6.29572">
        <ele>563.12</ele>
        <time>2022-08-15T17:11:59Z</time>
      </trkpt>
      <trkpt lat="43.59024" lon="6.29572">
        <ele>562.76</ele>
        <time>2022-08-15T17:12:00Z</time>
      </trkpt>
      <trkpt lat="43.59025" lon="6.29572">
        <ele>563.072</ele>
        <time>2022-08-15T17:12:04Z</time>
      </trkpt>
      <trkpt lat="43.59025" lon="6.29572">
        <ele>562.784</ele>
        <time>2022-08-15T17:12:05Z</time>
      </trkpt>
      <trkpt lat="43.59025" lon="6.29572">
        <ele>561.986</ele>
        <time>2022-08-15T17:12:06Z</time>
      </trkpt>
      <trkpt lat="43.59025" lon="6.29572">
        <ele>561.986</ele>
        <time>2022-08-15T17:12:06Z</time>
      </trkpt>
      <trkpt lat="43.59024" lon="6.29571">
        <ele>562.489</ele>
        <time>2022-08-15T17:12:07Z</time>
      </trkpt>
      <trkpt lat="43.59024" lon="6.29571">
        <ele>562.275</ele>
        <time>2022-08-15T17:12:08Z</time>
      </trkpt>
      <trkpt lat="43.59023" lon="6.2957">
        <ele>562.497</ele>
        <time>2022-08-15T17:12:11Z</time>
      </trkpt>
      <trkpt lat="43.59023" lon="6.2957">
        <ele>562.497</ele>
        <time>2022-08-15T17:12:11Z</time>
      </trkpt>
      <trkpt lat="43.59023" lon="6.2957">
        <ele>562.401</ele>
        <time>2022-08-15T17:12:12Z</time>
      </trkpt>
      <trkpt lat="43.59023" lon="6.2957">
        <ele>562.632</ele>
        <time>2022-08-15T17:12:19Z</time>
      </trkpt>
      <trkpt lat="43.59022" lon="6.29569">
        <ele>562.488</ele>
        <time>2022-08-15T17:12:20Z</time>
      </trkpt>
      <trkpt lat="43.59023" lon="6.29564">
        <ele>561.825</ele>
        <time>2022-08-15T17:12:23Z</time>
      </trkpt>
      <trkpt lat="43.59023" lon="6.29556">
        <ele>560.955</ele>
        <time>2022-08-15T17:12:29Z</time>
      </trkpt>
      <trkpt lat="43.59029" lon="6.29547">
        <ele>559.62</ele>
        <time>2022-08-15T17:12:38Z</time>
      </trkpt>
      <trkpt lat="43.59039" lon="6.29537">
        <ele>557.653</ele>
        <time>2022-08-15T17:12:54Z</time>
      </trkpt>
      <trkpt lat="43.59042" lon="6.29535">
        <ele>557.337</ele>
        <time>2022-08-15T17:12:58Z</time>
      </trkpt>
      <trkpt lat="43.59045" lon="6.29526">
        <ele>555.48</ele>
        <time>2022-08-15T17:13:11Z</time>
      </trkpt>
      <trkpt lat="43.59045" lon="6.29526">
        <ele>555.36</ele>
        <time>2022-08-15T17:13:12Z</time>
      </trkpt>
      <trkpt lat="43.59046" lon="6.29525">
        <ele>555.358</ele>
        <time>2022-08-15T17:13:13Z</time>
      </trkpt>
      <trkpt lat="43.59046" lon="6.29525">
        <ele>555.431</ele>
        <time>2022-08-15T17:13:14Z</time>
      </trkpt>
      <trkpt lat="43.59046" lon="6.29524">
        <ele>555.442</ele>
        <time>2022-08-15T17:13:15Z</time>
      </trkpt>
      <trkpt lat="43.59048" lon="6.2952">
        <ele>555.361</ele>
        <time>2022-08-15T17:13:18Z</time>
      </trkpt>
      <trkpt lat="43.59049" lon="6.29504">
        <ele>553.746</ele>
        <time>2022-08-15T17:13:29Z</time>
      </trkpt>
      <trkpt lat="43.59049" lon="6.29503">
        <ele>553.227</ele>
        <time>2022-08-15T17:13:30Z</time>
      </trkpt>
      <trkpt lat="43.59048" lon="6.29496">
        <ele>552.435</ele>
        <time>2022-08-15T17:13:35Z</time>
      </trkpt>
      <trkpt lat="43.5905" lon="6.29488">
        <ele>552.029</ele>
        <time>2022-08-15T17:13:42Z</time>
      </trkpt>
      <trkpt lat="43.59052" lon="6.29483">
        <ele>551.66</ele>
        <time>2022-08-15T17:13:46Z</time>
      </trkpt>
      <trkpt lat="43.59053" lon="6.29465">
        <ele>550.933</ele>
        <time>2022-08-15T17:13:59Z</time>
      </trkpt>
      <trkpt lat="43.59067" lon="6.29427">
        <ele>548.89</ele>
        <time>2022-08-15T17:14:29Z</time>
      </trkpt>
      <trkpt lat="43.5907" lon="6.29424">
        <ele>548.282</ele>
        <time>2022-08-15T17:14:33Z</time>
      </trkpt>
      <trkpt lat="43.59073" lon="6.29422">
        <ele>547.523</ele>
        <time>2022-08-15T17:14:37Z</time>
      </trkpt>
      <trkpt lat="43.59078" lon="6.29425">
        <ele>546.7</ele>
        <time>2022-08-15T17:14:45Z</time>
      </trkpt>
      <trkpt lat="43.59079" lon="6.2943">
        <ele>546.817</ele>
        <time>2022-08-15T17:14:50Z</time>
      </trkpt>
      <trkpt lat="43.59081" lon="6.29434">
        <ele>546.563</ele>
        <time>2022-08-15T17:14:54Z</time>
      </trkpt>
      <trkpt lat="43.59081" lon="6.29434">
        <ele>546.641</ele>
        <time>2022-08-15T17:14:55Z</time>
      </trkpt>
      <trkpt lat="43.59083" lon="6.29453">
        <ele>546.374</ele>
        <time>2022-08-15T17:15:10Z</time>
      </trkpt>
      <trkpt lat="43.59085" lon="6.29461">
        <ele>546.662</ele>
        <time>2022-08-15T17:15:16Z</time>
      </trkpt>
      <trkpt lat="43.59089" lon="6.29468">
        <ele>547.122</ele>
        <time>2022-08-15T17:15:22Z</time>
      </trkpt>
      <trkpt lat="43.59091" lon="6.2947">
        <ele>547.169</ele>
        <time>2022-08-15T17:15:25Z</time>
      </trkpt>
      <trkpt lat="43.59095" lon="6.29471">
        <ele>547.63</ele>
        <time>2022-08-15T17:15:29Z</time>
      </trkpt>
      <trkpt lat="43.59095" lon="6.29471">
        <ele>547.665</ele>
        <time>2022-08-15T17:15:30Z</time>
      </trkpt>
      <trkpt lat="43.59098" lon="6.29469">
        <ele>547.48</ele>
        <time>2022-08-15T17:15:33Z</time>
      </trkpt>
      <trkpt lat="43.59112" lon="6.29462">
        <ele>545.519</ele>
        <time>2022-08-15T17:15:47Z</time>
      </trkpt>
      <trkpt lat="43.59116" lon="6.29455">
        <ele>545.207</ele>
        <time>2022-08-15T17:15:54Z</time>
      </trkpt>
      <trkpt lat="43.59118" lon="6.29449">
        <ele>545.125</ele>
        <time>2022-08-15T17:15:58Z</time>
      </trkpt>
      <trkpt lat="43.59119" lon="6.29443">
        <ele>544.832</ele>
        <time>2022-08-15T17:16:03Z</time>
      </trkpt>
      <trkpt lat="43.59127" lon="6.29424">
        <ele>545.138</ele>
        <time>2022-08-15T17:16:22Z</time>
      </trkpt>
      <trkpt lat="43.59131" lon="6.29418">
        <ele>544.63</ele>
        <time>2022-08-15T17:16:28Z</time>
      </trkpt>
      <trkpt lat="43.59143" lon="6.29391">
        <ele>544.749</ele>
        <time>2022-08-15T17:16:49Z</time>
      </trkpt>
      <trkpt lat="43.59145" lon="6.29389">
        <ele>545.191</ele>
        <time>2022-08-15T17:16:52Z</time>
      </trkpt>
      <trkpt lat="43.59146" lon="6.29385">
        <ele>545.031</ele>
        <time>2022-08-15T17:16:56Z</time>
      </trkpt>
      <trkpt lat="43.59145" lon="6.29378">
        <ele>544.292</ele>
        <time>2022-08-15T17:17:02Z</time>
      </trkpt>
      <trkpt lat="43.59143" lon="6.2937">
        <ele>543.263</ele>
        <time>2022-08-15T17:17:10Z</time>
      </trkpt>
      <trkpt lat="43.59126" lon="6.2929">
        <ele>541.202</ele>
        <time>2022-08-15T17:18:11Z</time>
      </trkpt>
      <trkpt lat="43.59123" lon="6.29264">
        <ele>539.821</ele>
        <time>2022-08-15T17:18:26Z</time>
      </trkpt>
      <trkpt lat="43.59123" lon="6.29259">
        <ele>539.533</ele>
        <time>2022-08-15T17:18:30Z</time>
      </trkpt>
      <trkpt lat="43.59131" lon="6.29246">
        <ele>538.957</ele>
        <time>2022-08-15T17:18:45Z</time>
      </trkpt>
      <trkpt lat="43.59133" lon="6.29242">
        <ele>538.991</ele>
        <time>2022-08-15T17:18:50Z</time>
      </trkpt>
      <trkpt lat="43.59136" lon="6.29228">
        <ele>538.023</ele>
        <time>2022-08-15T17:19:02Z</time>
      </trkpt>
      <trkpt lat="43.5914" lon="6.29215">
        <ele>537.991</ele>
        <time>2022-08-15T17:19:11Z</time>
      </trkpt>
      <trkpt lat="43.59143" lon="6.29196">
        <ele>535.84</ele>
        <time>2022-08-15T17:19:22Z</time>
      </trkpt>
      <trkpt lat="43.59147" lon="6.29177">
        <ele>535.613</ele>
        <time>2022-08-15T17:19:36Z</time>
      </trkpt>
      <trkpt lat="43.59148" lon="6.29172">
        <ele>535.716</ele>
        <time>2022-08-15T17:19:40Z</time>
      </trkpt>
      <trkpt lat="43.59149" lon="6.29168">
        <ele>536.25</ele>
        <time>2022-08-15T17:19:44Z</time>
      </trkpt>
      <trkpt lat="43.59147" lon="6.29163">
        <ele>535.731</ele>
        <time>2022-08-15T17:19:49Z</time>
      </trkpt>
      <trkpt lat="43.59144" lon="6.29157">
        <ele>534.964</ele>
        <time>2022-08-15T17:19:53Z</time>
      </trkpt>
      <trkpt lat="43.59145" lon="6.29152">
        <ele>534.988</ele>
        <time>2022-08-15T17:19:56Z</time>
      </trkpt>
      <trkpt lat="43.59147" lon="6.29146">
        <ele>535.316</ele>
        <time>2022-08-15T17:20:01Z</time>
      </trkpt>
      <trkpt lat="43.59145" lon="6.29142">
        <ele>535.075</ele>
        <time>2022-08-15T17:20:04Z</time>
      </trkpt>
      <trkpt lat="43.59141" lon="6.2914">
        <ele>534.725</ele>
        <time>2022-08-15T17:20:06Z</time>
      </trkpt>
      <trkpt lat="43.59142" lon="6.29136">
        <ele>534.75</ele>
        <time>2022-08-15T17:20:09Z</time>
      </trkpt>
      <trkpt lat="43.59143" lon="6.29104">
        <ele>535.244</ele>
        <time>2022-08-15T17:20:26Z</time>
      </trkpt>
      <trkpt lat="43.59143" lon="6.291">
        <ele>535.109</ele>
        <time>2022-08-15T17:20:30Z</time>
      </trkpt>
      <trkpt lat="43.59146" lon="6.29096">
        <ele>534.976</ele>
        <time>2022-08-15T17:20:33Z</time>
      </trkpt>
      <trkpt lat="43.59151" lon="6.29091">
        <ele>535.012</ele>
        <time>2022-08-15T17:20:36Z</time>
      </trkpt>
      <trkpt lat="43.59152" lon="6.2909">
        <ele>535.273</ele>
        <time>2022-08-15T17:20:38Z</time>
      </trkpt>
      <trkpt lat="43.59152" lon="6.29089">
        <ele>535.495</ele>
        <time>2022-08-15T17:20:42Z</time>
      </trkpt>
      <trkpt lat="43.59153" lon="6.29083">
        <ele>535.639</ele>
        <time>2022-08-15T17:20:45Z</time>
      </trkpt>
      <trkpt lat="43.59156" lon="6.29073">
        <ele>535.931</ele>
        <time>2022-08-15T17:20:52Z</time>
      </trkpt>
      <trkpt lat="43.59194" lon="6.29013">
        <ele>536.196</ele>
        <time>2022-08-15T17:21:50Z</time>
      </trkpt>
      <trkpt lat="43.59194" lon="6.29013">
        <ele>536.272</ele>
        <time>2022-08-15T17:21:52Z</time>
      </trkpt>
      <trkpt lat="43.59194" lon="6.29013">
        <ele>536.272</ele>
        <time>2022-08-15T17:21:52Z</time>
      </trkpt>
      <trkpt lat="43.59195" lon="6.29013">
        <ele>536.436</ele>
        <time>2022-08-15T17:21:53Z</time>
      </trkpt>
      <trkpt lat="43.59195" lon="6.29012">
        <ele>536.608</ele>
        <time>2022-08-15T17:21:54Z</time>
      </trkpt>
      <trkpt lat="43.59203" lon="6.28999">
        <ele>536.07</ele>
        <time>2022-08-15T17:22:03Z</time>
      </trkpt>
      <trkpt lat="43.59206" lon="6.28997">
        <ele>536.099</ele>
        <time>2022-08-15T17:22:06Z</time>
      </trkpt>
      <trkpt lat="43.59211" lon="6.28991">
        <ele>536.554</ele>
        <time>2022-08-15T17:22:13Z</time>
      </trkpt>
      <trkpt lat="43.59239" lon="6.28947">
        <ele>537.604</ele>
        <time>2022-08-15T17:22:54Z</time>
      </trkpt>
      <trkpt lat="43.5924" lon="6.28943">
        <ele>537.276</ele>
        <time>2022-08-15T17:22:58Z</time>
      </trkpt>
      <trkpt lat="43.59258" lon="6.28916">
        <ele>537.269</ele>
        <time>2022-08-15T17:23:27Z</time>
      </trkpt>
      <trkpt lat="43.59258" lon="6.28916">
        <ele>537.269</ele>
        <time>2022-08-15T17:23:27Z</time>
      </trkpt>
      <trkpt lat="43.59258" lon="6.28916">
        <ele>537.354</ele>
        <time>2022-08-15T17:23:28Z</time>
      </trkpt>
      <trkpt lat="43.59258" lon="6.28915">
        <ele>537.434</ele>
        <time>2022-08-15T17:23:29Z</time>
      </trkpt>
      <trkpt lat="43.59257" lon="6.28915">
        <ele>537.335</ele>
        <time>2022-08-15T17:23:30Z</time>
      </trkpt>
      <trkpt lat="43.59254" lon="6.28916">
        <ele>537.73</ele>
        <time>2022-08-15T17:23:34Z</time>
      </trkpt>
      <trkpt lat="43.59254" lon="6.28916">
        <ele>537.684</ele>
        <time>2022-08-15T17:23:35Z</time>
      </trkpt>
      <trkpt lat="43.59254" lon="6.28916">
        <ele>538.31</ele>
        <time>2022-08-15T17:23:41Z</time>
      </trkpt>
      <trkpt lat="43.59254" lon="6.28916">
        <ele>538.359</ele>
        <time>2022-08-15T17:23:42Z</time>
      </trkpt>
      <trkpt lat="43.59254" lon="6.28916">
        <ele>538.359</ele>
        <time>2022-08-15T17:23:42Z</time>
      </trkpt>
      <trkpt lat="43.59254" lon="6.28916">
        <ele>538.387</ele>
        <time>2022-08-15T17:23:43Z</time>
      </trkpt>
      <trkpt lat="43.59254" lon="6.28916">
        <ele>538.392</ele>
        <time>2022-08-15T17:23:44Z</time>
      </trkpt>
      <trkpt lat="43.59258" lon="6.28912">
        <ele>538.526</ele>
        <time>2022-08-15T17:23:48Z</time>
      </trkpt>
      <trkpt lat="43.59274" lon="6.28883">
        <ele>538.281</ele>
        <time>2022-08-15T17:24:13Z</time>
      </trkpt>
      <trkpt lat="43.5929" lon="6.28836">
        <ele>536.049</ele>
        <time>2022-08-15T17:24:49Z</time>
      </trkpt>
      <trkpt lat="43.59293" lon="6.28828">
        <ele>536.004</ele>
        <time>2022-08-15T17:24:56Z</time>
      </trkpt>
      <trkpt lat="43.59293" lon="6.28828">
        <ele>536.004</ele>
        <time>2022-08-15T17:24:56Z</time>
      </trkpt>
      <trkpt lat="43.59293" lon="6.28827">
        <ele>536.15</ele>
        <time>2022-08-15T17:24:57Z</time>
      </trkpt>
      <trkpt lat="43.59295" lon="6.28813">
        <ele>535.158</ele>
        <time>2022-08-15T17:25:08Z</time>
      </trkpt>
      <trkpt lat="43.59302" lon="6.28793">
        <ele>535.583</ele>
        <time>2022-08-15T17:25:23Z</time>
      </trkpt>
      <trkpt lat="43.59305" lon="6.28792">
        <ele>536.214</ele>
        <time>2022-08-15T17:25:27Z</time>
      </trkpt>
      <trkpt lat="43.59305" lon="6.28793">
        <ele>536.125</ele>
        <time>2022-08-15T17:25:29Z</time>
      </trkpt>
      <trkpt lat="43.59307" lon="6.28795">
        <ele>537.052</ele>
        <time>2022-08-15T17:25:33Z</time>
      </trkpt>
      <trkpt lat="43.5931" lon="6.28797">
        <ele>537.452</ele>
        <time>2022-08-15T17:25:37Z</time>
      </trkpt>
      <trkpt lat="43.59315" lon="6.28802">
        <ele>538.019</ele>
        <time>2022-08-15T17:25:45Z</time>
      </trkpt>
      <trkpt lat="43.59318" lon="6.28808">
        <ele>538.68</ele>
        <time>2022-08-15T17:25:54Z</time>
      </trkpt>
      <trkpt lat="43.59319" lon="6.28809">
        <ele>538.543</ele>
        <time>2022-08-15T17:25:55Z</time>
      </trkpt>
      <trkpt lat="43.59325" lon="6.28822">
        <ele>540.549</ele>
        <time>2022-08-15T17:26:09Z</time>
      </trkpt>
      <trkpt lat="43.59327" lon="6.2883">
        <ele>541.659</ele>
        <time>2022-08-15T17:26:18Z</time>
      </trkpt>
      <trkpt lat="43.59326" lon="6.28834">
        <ele>542.432</ele>
        <time>2022-08-15T17:26:23Z</time>
      </trkpt>
      <trkpt lat="43.59325" lon="6.28838">
        <ele>542.523</ele>
        <time>2022-08-15T17:26:27Z</time>
      </trkpt>
      <trkpt lat="43.59325" lon="6.28838">
        <ele>542.563</ele>
        <time>2022-08-15T17:26:28Z</time>
      </trkpt>
      <trkpt lat="43.59325" lon="6.28838">
        <ele>542.895</ele>
        <time>2022-08-15T17:26:38Z</time>
      </trkpt>
      <trkpt lat="43.59325" lon="6.28837">
        <ele>542.806</ele>
        <time>2022-08-15T17:26:39Z</time>
      </trkpt>
      <trkpt lat="43.59325" lon="6.28837">
        <ele>542.927</ele>
        <time>2022-08-15T17:26:41Z</time>
      </trkpt>
      <trkpt lat="43.59325" lon="6.28837">
        <ele>542.914</ele>
        <time>2022-08-15T17:26:49Z</time>
      </trkpt>
      <trkpt lat="43.59325" lon="6.28836">
        <ele>543.236</ele>
        <time>2022-08-15T17:26:50Z</time>
      </trkpt>
      <trkpt lat="43.59325" lon="6.28836">
        <ele>543.217</ele>
        <time>2022-08-15T17:26:51Z</time>
      </trkpt>
      <trkpt lat="43.59325" lon="6.28836">
        <ele>543.085</ele>
        <time>2022-08-15T17:26:58Z</time>
      </trkpt>
      <trkpt lat="43.59324" lon="6.28836">
        <ele>542.974</ele>
        <time>2022-08-15T17:26:59Z</time>
      </trkpt>
      <trkpt lat="43.59324" lon="6.28836">
        <ele>543.066</ele>
        <time>2022-08-15T17:27:00Z</time>
      </trkpt>
      <trkpt lat="43.59324" lon="6.28838">
        <ele>543.347</ele>
        <time>2022-08-15T17:27:03Z</time>
      </trkpt>
      <trkpt lat="43.59324" lon="6.2884">
        <ele>542.987</ele>
        <time>2022-08-15T17:27:05Z</time>
      </trkpt>
      <trkpt lat="43.59324" lon="6.28841">
        <ele>543.181</ele>
        <time>2022-08-15T17:27:07Z</time>
      </trkpt>
      <trkpt lat="43.59324" lon="6.28841">
        <ele>543.384</ele>
        <time>2022-08-15T17:27:37Z</time>
      </trkpt>
      <trkpt lat="43.59324" lon="6.28841">
        <ele>542.831</ele>
        <time>2022-08-15T17:27:38Z</time>
      </trkpt>
      <trkpt lat="43.59324" lon="6.28841">
        <ele>542.832</ele>
        <time>2022-08-15T17:27:39Z</time>
      </trkpt>
      <trkpt lat="43.59325" lon="6.28841">
        <ele>542.251</ele>
        <time>2022-08-15T17:27:40Z</time>
      </trkpt>
      <trkpt lat="43.59325" lon="6.28841">
        <ele>541.929</ele>
        <time>2022-08-15T17:27:42Z</time>
      </trkpt>
      <trkpt lat="43.59325" lon="6.28841">
        <ele>542.04</ele>
        <time>2022-08-15T17:28:02Z</time>
      </trkpt>
      <trkpt lat="43.59325" lon="6.2884">
        <ele>542.26</ele>
        <time>2022-08-15T17:28:03Z</time>
      </trkpt>
      <trkpt lat="43.59324" lon="6.28841">
        <ele>542.003</ele>
        <time>2022-08-15T17:28:07Z</time>
      </trkpt>
      <trkpt lat="43.59324" lon="6.28841">
        <ele>542.095</ele>
        <time>2022-08-15T17:28:08Z</time>
      </trkpt>
      <trkpt lat="43.59324" lon="6.28841">
        <ele>542.095</ele>
        <time>2022-08-15T17:28:08Z</time>
      </trkpt>
      <trkpt lat="43.59324" lon="6.28842">
        <ele>542.379</ele>
        <time>2022-08-15T17:28:09Z</time>
      </trkpt>
      <trkpt lat="43.59324" lon="6.28842">
        <ele>542.236</ele>
        <time>2022-08-15T17:28:10Z</time>
      </trkpt>
      <trkpt lat="43.59324" lon="6.28842">
        <ele>542.236</ele>
        <time>2022-08-15T17:28:10Z</time>
      </trkpt>
      <trkpt lat="43.59324" lon="6.28843">
        <ele>542.024</ele>
        <time>2022-08-15T17:28:11Z</time>
      </trkpt>
      <trkpt lat="43.59324" lon="6.28843">
        <ele>541.943</ele>
        <time>2022-08-15T17:28:13Z</time>
      </trkpt>
      <trkpt lat="43.59324" lon="6.28843">
        <ele>541.542</ele>
        <time>2022-08-15T17:28:33Z</time>
      </trkpt>
      <trkpt lat="43.59323" lon="6.28842">
        <ele>541.411</ele>
        <time>2022-08-15T17:28:34Z</time>
      </trkpt>
      <trkpt lat="43.59323" lon="6.28842">
        <ele>541.411</ele>
        <time>2022-08-15T17:28:34Z</time>
      </trkpt>
      <trkpt lat="43.59322" lon="6.28843">
        <ele>541.17</ele>
        <time>2022-08-15T17:28:35Z</time>
      </trkpt>
      <trkpt lat="43.5932" lon="6.28844">
        <ele>541.335</ele>
        <time>2022-08-15T17:28:38Z</time>
      </trkpt>
      <trkpt lat="43.59321" lon="6.28843">
        <ele>541.407</ele>
        <time>2022-08-15T17:28:39Z</time>
      </trkpt>
      <trkpt lat="43.59322" lon="6.28841">
        <ele>541.177</ele>
        <time>2022-08-15T17:28:42Z</time>
      </trkpt>
      <trkpt lat="43.59322" lon="6.28841">
        <ele>541.177</ele>
        <time>2022-08-15T17:28:42Z</time>
      </trkpt>
      <trkpt lat="43.59322" lon="6.28841">
        <ele>540.582</ele>
        <time>2022-08-15T17:28:43Z</time>
      </trkpt>
      <trkpt lat="43.59322" lon="6.28842">
        <ele>540.774</ele>
        <time>2022-08-15T17:28:44Z</time>
      </trkpt>
      <trkpt lat="43.59323" lon="6.28842">
        <ele>541.563</ele>
        <time>2022-08-15T17:28:48Z</time>
      </trkpt>
      <trkpt lat="43.59323" lon="6.28842">
        <ele>541.954</ele>
        <time>2022-08-15T17:28:49Z</time>
      </trkpt>
      <trkpt lat="43.59322" lon="6.28843">
        <ele>542.073</ele>
        <time>2022-08-15T17:28:50Z</time>
      </trkpt>
      <trkpt lat="43.59321" lon="6.28843">
        <ele>541.763</ele>
        <time>2022-08-15T17:28:53Z</time>
      </trkpt>
      <trkpt lat="43.59321" lon="6.28843">
        <ele>541.763</ele>
        <time>2022-08-15T17:28:53Z</time>
      </trkpt>
      <trkpt lat="43.59322" lon="6.28844">
        <ele>542.223</ele>
        <time>2022-08-15T17:28:54Z</time>
      </trkpt>
      <trkpt lat="43.59322" lon="6.28844">
        <ele>542.223</ele>
        <time>2022-08-15T17:28:55Z</time>
      </trkpt>
    </trkseg>
  </trk>
</gpx>